<?xml version="1.0" encoding="UTF-8" standalone="no" ?>
<gpx xmlns="http://www.topografix.com/GPX/1/1" xmlns:xsi="http://www.w3.org/2001/XMLSchema-instance" xsi:schemaLocation="http://www.topografix.com/GPX/1/1 http://www.topografix.com/GPX/1/1/gpx.xsd" version="1.1" creator="VisuGPX - https://www.visugpx.com">
  <metadata>
    <name>Serre fil - Trail de La Meije</name>
    <desc><![CDATA[Serre fil - Trail de La Meije Serre fil - Trail de La Meije]]></desc>
  </metadata>
  <trk>
    <name><![CDATA[20170625-run-serre_fil-chazelet-emparis]]></name>
    <trkseg>
      <trkpt lat="45.0542" lon="6.28449">
        <ele>1799.73</ele>
        <time>2017-06-25T09:05:20Z</time>
      </trkpt>
      <trkpt lat="45.05426" lon="6.2844">
        <ele>1797.8</ele>
        <time>2017-06-25T09:05:24Z</time>
      </trkpt>
      <trkpt lat="45.05435" lon="6.28426">
        <ele>1794.92</ele>
        <time>2017-06-25T09:05:29Z</time>
      </trkpt>
      <trkpt lat="45.05454" lon="6.28412">
        <ele>1793</ele>
        <time>2017-06-25T09:05:38Z</time>
      </trkpt>
      <trkpt lat="45.05467" lon="6.28404">
        <ele>1789.63</ele>
        <time>2017-06-25T09:05:44Z</time>
      </trkpt>
      <trkpt lat="45.05479" lon="6.28388">
        <ele>1789.15</ele>
        <time>2017-06-25T09:05:51Z</time>
      </trkpt>
      <trkpt lat="45.05491" lon="6.28371">
        <ele>1787.23</ele>
        <time>2017-06-25T09:05:58Z</time>
      </trkpt>
      <trkpt lat="45.05503" lon="6.28355">
        <ele>1783.86</ele>
        <time>2017-06-25T09:06:05Z</time>
      </trkpt>
      <trkpt lat="45.05514" lon="6.28342">
        <ele>1780.98</ele>
        <time>2017-06-25T09:06:11Z</time>
      </trkpt>
      <trkpt lat="45.05525" lon="6.28325">
        <ele>1777.13</ele>
        <time>2017-06-25T09:06:18Z</time>
      </trkpt>
      <trkpt lat="45.05534" lon="6.28312">
        <ele>1774.25</ele>
        <time>2017-06-25T09:06:24Z</time>
      </trkpt>
      <trkpt lat="45.05547" lon="6.28295">
        <ele>1770.89</ele>
        <time>2017-06-25T09:06:32Z</time>
      </trkpt>
      <trkpt lat="45.05562" lon="6.28275">
        <ele>1768.48</ele>
        <time>2017-06-25T09:06:40Z</time>
      </trkpt>
      <trkpt lat="45.05573" lon="6.28258">
        <ele>1766.56</ele>
        <time>2017-06-25T09:06:46Z</time>
      </trkpt>
      <trkpt lat="45.0558" lon="6.28247">
        <ele>1765.12</ele>
        <time>2017-06-25T09:06:50Z</time>
      </trkpt>
      <trkpt lat="45.05592" lon="6.2823">
        <ele>1763.68</ele>
        <time>2017-06-25T09:06:57Z</time>
      </trkpt>
      <trkpt lat="45.05598" lon="6.28222">
        <ele>1762.71</ele>
        <time>2017-06-25T09:07:01Z</time>
      </trkpt>
      <trkpt lat="45.05609" lon="6.282">
        <ele>1759.83</ele>
        <time>2017-06-25T09:07:09Z</time>
      </trkpt>
      <trkpt lat="45.0562" lon="6.28183">
        <ele>1761.27</ele>
        <time>2017-06-25T09:07:16Z</time>
      </trkpt>
      <trkpt lat="45.05625" lon="6.28175">
        <ele>1761.27</ele>
        <time>2017-06-25T09:07:19Z</time>
      </trkpt>
      <trkpt lat="45.05634" lon="6.28157">
        <ele>1761.27</ele>
        <time>2017-06-25T09:07:26Z</time>
      </trkpt>
      <trkpt lat="45.0564" lon="6.28146">
        <ele>1759.83</ele>
        <time>2017-06-25T09:07:30Z</time>
      </trkpt>
      <trkpt lat="45.05653" lon="6.28126">
        <ele>1756.95</ele>
        <time>2017-06-25T09:07:38Z</time>
      </trkpt>
      <trkpt lat="45.05664" lon="6.28105">
        <ele>1754.06</ele>
        <time>2017-06-25T09:07:46Z</time>
      </trkpt>
      <trkpt lat="45.05673" lon="6.28083">
        <ele>1752.14</ele>
        <time>2017-06-25T09:07:54Z</time>
      </trkpt>
      <trkpt lat="45.05683" lon="6.28065">
        <ele>1750.22</ele>
        <time>2017-06-25T09:08:01Z</time>
      </trkpt>
      <trkpt lat="45.05695" lon="6.28048">
        <ele>1747.33</ele>
        <time>2017-06-25T09:08:08Z</time>
      </trkpt>
      <trkpt lat="45.05703" lon="6.28028">
        <ele>1743.97</ele>
        <time>2017-06-25T09:08:14Z</time>
      </trkpt>
      <trkpt lat="45.05702" lon="6.2801">
        <ele>1743.97</ele>
        <time>2017-06-25T09:08:19Z</time>
      </trkpt>
      <trkpt lat="45.05701" lon="6.27991">
        <ele>1744.93</ele>
        <time>2017-06-25T09:08:25Z</time>
      </trkpt>
      <trkpt lat="45.05701" lon="6.27988">
        <ele>1744.93</ele>
        <time>2017-06-25T09:08:26Z</time>
      </trkpt>
      <trkpt lat="45.05699" lon="6.27983">
        <ele>1745.89</ele>
        <time>2017-06-25T09:08:31Z</time>
      </trkpt>
      <trkpt lat="45.05702" lon="6.27976">
        <ele>1745.89</ele>
        <time>2017-06-25T09:08:38Z</time>
      </trkpt>
      <trkpt lat="45.05703" lon="6.27977">
        <ele>1745.89</ele>
        <time>2017-06-25T09:08:45Z</time>
      </trkpt>
      <trkpt lat="45.05705" lon="6.27977">
        <ele>1745.41</ele>
        <time>2017-06-25T09:08:57Z</time>
      </trkpt>
      <trkpt lat="45.05706" lon="6.27968">
        <ele>1746.85</ele>
        <time>2017-06-25T09:09:03Z</time>
      </trkpt>
      <trkpt lat="45.05707" lon="6.27964">
        <ele>1746.85</ele>
        <time>2017-06-25T09:09:18Z</time>
      </trkpt>
      <trkpt lat="45.05708" lon="6.27962">
        <ele>1746.85</ele>
        <time>2017-06-25T09:09:29Z</time>
      </trkpt>
      <trkpt lat="45.05709" lon="6.2796">
        <ele>1746.85</ele>
        <time>2017-06-25T09:09:31Z</time>
      </trkpt>
      <trkpt lat="45.05713" lon="6.27948">
        <ele>1745.89</ele>
        <time>2017-06-25T09:09:37Z</time>
      </trkpt>
      <trkpt lat="45.05713" lon="6.27946">
        <ele>1746.37</ele>
        <time>2017-06-25T09:09:43Z</time>
      </trkpt>
      <trkpt lat="45.05714" lon="6.27948">
        <ele>1744.93</ele>
        <time>2017-06-25T09:09:52Z</time>
      </trkpt>
      <trkpt lat="45.05713" lon="6.27947">
        <ele>1745.41</ele>
        <time>2017-06-25T09:10:00Z</time>
      </trkpt>
      <trkpt lat="45.05714" lon="6.27948">
        <ele>1746.37</ele>
        <time>2017-06-25T09:10:08Z</time>
      </trkpt>
      <trkpt lat="45.05715" lon="6.27947">
        <ele>1746.37</ele>
        <time>2017-06-25T09:10:18Z</time>
      </trkpt>
      <trkpt lat="45.05715" lon="6.27948">
        <ele>1745.89</ele>
        <time>2017-06-25T09:10:30Z</time>
      </trkpt>
      <trkpt lat="45.05716" lon="6.27948">
        <ele>1745.89</ele>
        <time>2017-06-25T09:10:42Z</time>
      </trkpt>
      <trkpt lat="45.05716" lon="6.27949">
        <ele>1746.37</ele>
        <time>2017-06-25T09:10:50Z</time>
      </trkpt>
      <trkpt lat="45.05716" lon="6.27949">
        <ele>1747.33</ele>
        <time>2017-06-25T09:11:02Z</time>
      </trkpt>
      <trkpt lat="45.05716" lon="6.27949">
        <ele>1746.85</ele>
        <time>2017-06-25T09:11:15Z</time>
      </trkpt>
      <trkpt lat="45.05716" lon="6.2795">
        <ele>1744.93</ele>
        <time>2017-06-25T09:11:27Z</time>
      </trkpt>
      <trkpt lat="45.05716" lon="6.27949">
        <ele>1744.45</ele>
        <time>2017-06-25T09:11:35Z</time>
      </trkpt>
      <trkpt lat="45.05714" lon="6.2794">
        <ele>1745.41</ele>
        <time>2017-06-25T09:11:42Z</time>
      </trkpt>
      <trkpt lat="45.05712" lon="6.27928">
        <ele>1748.29</ele>
        <time>2017-06-25T09:11:51Z</time>
      </trkpt>
      <trkpt lat="45.0571" lon="6.27925">
        <ele>1749.26</ele>
        <time>2017-06-25T09:11:57Z</time>
      </trkpt>
      <trkpt lat="45.0571" lon="6.27924">
        <ele>1749.26</ele>
        <time>2017-06-25T09:12:03Z</time>
      </trkpt>
      <trkpt lat="45.05708" lon="6.27923">
        <ele>1749.74</ele>
        <time>2017-06-25T09:12:10Z</time>
      </trkpt>
      <trkpt lat="45.05708" lon="6.27923">
        <ele>1749.74</ele>
        <time>2017-06-25T09:12:21Z</time>
      </trkpt>
      <trkpt lat="45.05707" lon="6.27924">
        <ele>1749.74</ele>
        <time>2017-06-25T09:12:30Z</time>
      </trkpt>
      <trkpt lat="45.05701" lon="6.2792">
        <ele>1750.7</ele>
        <time>2017-06-25T09:12:36Z</time>
      </trkpt>
      <trkpt lat="45.05694" lon="6.27915">
        <ele>1748.78</ele>
        <time>2017-06-25T09:12:41Z</time>
      </trkpt>
      <trkpt lat="45.05692" lon="6.279">
        <ele>1748.78</ele>
        <time>2017-06-25T09:12:48Z</time>
      </trkpt>
      <trkpt lat="45.0569" lon="6.27883">
        <ele>1751.18</ele>
        <time>2017-06-25T09:12:56Z</time>
      </trkpt>
      <trkpt lat="45.0569" lon="6.27881">
        <ele>1751.66</ele>
        <time>2017-06-25T09:12:57Z</time>
      </trkpt>
      <trkpt lat="45.05691" lon="6.27865">
        <ele>1754.06</ele>
        <time>2017-06-25T09:13:07Z</time>
      </trkpt>
      <trkpt lat="45.05692" lon="6.27854">
        <ele>1756.95</ele>
        <time>2017-06-25T09:13:17Z</time>
      </trkpt>
      <trkpt lat="45.05694" lon="6.27845">
        <ele>1760.31</ele>
        <time>2017-06-25T09:13:26Z</time>
      </trkpt>
      <trkpt lat="45.05694" lon="6.2784">
        <ele>1762.23</ele>
        <time>2017-06-25T09:13:34Z</time>
      </trkpt>
      <trkpt lat="45.05694" lon="6.27839">
        <ele>1766.08</ele>
        <time>2017-06-25T09:13:47Z</time>
      </trkpt>
      <trkpt lat="45.05696" lon="6.27832">
        <ele>1767.04</ele>
        <time>2017-06-25T09:13:55Z</time>
      </trkpt>
      <trkpt lat="45.05696" lon="6.27827">
        <ele>1768.48</ele>
        <time>2017-06-25T09:14:01Z</time>
      </trkpt>
      <trkpt lat="45.05692" lon="6.27822">
        <ele>1769.92</ele>
        <time>2017-06-25T09:14:09Z</time>
      </trkpt>
      <trkpt lat="45.05692" lon="6.27816">
        <ele>1771.85</ele>
        <time>2017-06-25T09:14:16Z</time>
      </trkpt>
      <trkpt lat="45.05693" lon="6.27809">
        <ele>1773.29</ele>
        <time>2017-06-25T09:14:23Z</time>
      </trkpt>
      <trkpt lat="45.05695" lon="6.27805">
        <ele>1774.25</ele>
        <time>2017-06-25T09:14:31Z</time>
      </trkpt>
      <trkpt lat="45.05698" lon="6.27798">
        <ele>1776.65</ele>
        <time>2017-06-25T09:14:41Z</time>
      </trkpt>
      <trkpt lat="45.05702" lon="6.27792">
        <ele>1777.61</ele>
        <time>2017-06-25T09:14:47Z</time>
      </trkpt>
      <trkpt lat="45.05706" lon="6.27784">
        <ele>1780.5</ele>
        <time>2017-06-25T09:14:55Z</time>
      </trkpt>
      <trkpt lat="45.05709" lon="6.27778">
        <ele>1781.46</ele>
        <time>2017-06-25T09:15:03Z</time>
      </trkpt>
      <trkpt lat="45.05714" lon="6.2777">
        <ele>1781.94</ele>
        <time>2017-06-25T09:15:13Z</time>
      </trkpt>
      <trkpt lat="45.05715" lon="6.27769">
        <ele>1783.38</ele>
        <time>2017-06-25T09:15:21Z</time>
      </trkpt>
      <trkpt lat="45.05719" lon="6.27762">
        <ele>1788.19</ele>
        <time>2017-06-25T09:15:29Z</time>
      </trkpt>
      <trkpt lat="45.0572" lon="6.27759">
        <ele>1792.03</ele>
        <time>2017-06-25T09:15:41Z</time>
      </trkpt>
      <trkpt lat="45.0572" lon="6.27759">
        <ele>1793</ele>
        <time>2017-06-25T09:15:51Z</time>
      </trkpt>
      <trkpt lat="45.0572" lon="6.27757">
        <ele>1793.48</ele>
        <time>2017-06-25T09:15:59Z</time>
      </trkpt>
      <trkpt lat="45.05721" lon="6.27756">
        <ele>1793.48</ele>
        <time>2017-06-25T09:16:10Z</time>
      </trkpt>
      <trkpt lat="45.05723" lon="6.27749">
        <ele>1795.4</ele>
        <time>2017-06-25T09:16:17Z</time>
      </trkpt>
      <trkpt lat="45.05729" lon="6.2774">
        <ele>1796.84</ele>
        <time>2017-06-25T09:16:25Z</time>
      </trkpt>
      <trkpt lat="45.05731" lon="6.27735">
        <ele>1797.8</ele>
        <time>2017-06-25T09:16:28Z</time>
      </trkpt>
      <trkpt lat="45.05729" lon="6.27726">
        <ele>1799.73</ele>
        <time>2017-06-25T09:16:35Z</time>
      </trkpt>
      <trkpt lat="45.05723" lon="6.27723">
        <ele>1803.57</ele>
        <time>2017-06-25T09:16:42Z</time>
      </trkpt>
      <trkpt lat="45.05727" lon="6.27717">
        <ele>1805.49</ele>
        <time>2017-06-25T09:16:49Z</time>
      </trkpt>
      <trkpt lat="45.05729" lon="6.27717">
        <ele>1805.97</ele>
        <time>2017-06-25T09:16:50Z</time>
      </trkpt>
      <trkpt lat="45.05731" lon="6.27717">
        <ele>1805.97</ele>
        <time>2017-06-25T09:16:52Z</time>
      </trkpt>
      <trkpt lat="45.05731" lon="6.27712">
        <ele>1808.86</ele>
        <time>2017-06-25T09:16:58Z</time>
      </trkpt>
      <trkpt lat="45.05729" lon="6.27713">
        <ele>1809.82</ele>
        <time>2017-06-25T09:17:05Z</time>
      </trkpt>
      <trkpt lat="45.05729" lon="6.27712">
        <ele>1809.82</ele>
        <time>2017-06-25T09:17:10Z</time>
      </trkpt>
      <trkpt lat="45.05729" lon="6.27711">
        <ele>1809.82</ele>
        <time>2017-06-25T09:17:12Z</time>
      </trkpt>
      <trkpt lat="45.05727" lon="6.27703">
        <ele>1811.74</ele>
        <time>2017-06-25T09:17:21Z</time>
      </trkpt>
      <trkpt lat="45.05729" lon="6.27703">
        <ele>1811.74</ele>
        <time>2017-06-25T09:17:23Z</time>
      </trkpt>
      <trkpt lat="45.05738" lon="6.27703">
        <ele>1813.66</ele>
        <time>2017-06-25T09:17:31Z</time>
      </trkpt>
      <trkpt lat="45.05738" lon="6.27698">
        <ele>1814.63</ele>
        <time>2017-06-25T09:17:38Z</time>
      </trkpt>
      <trkpt lat="45.05735" lon="6.27689">
        <ele>1816.07</ele>
        <time>2017-06-25T09:17:48Z</time>
      </trkpt>
      <trkpt lat="45.05735" lon="6.27684">
        <ele>1816.55</ele>
        <time>2017-06-25T09:17:54Z</time>
      </trkpt>
      <trkpt lat="45.05737" lon="6.27679">
        <ele>1817.51</ele>
        <time>2017-06-25T09:18:00Z</time>
      </trkpt>
      <trkpt lat="45.05741" lon="6.27668">
        <ele>1819.91</ele>
        <time>2017-06-25T09:18:08Z</time>
      </trkpt>
      <trkpt lat="45.05742" lon="6.27666">
        <ele>1820.39</ele>
        <time>2017-06-25T09:18:10Z</time>
      </trkpt>
      <trkpt lat="45.05744" lon="6.27664">
        <ele>1820.87</ele>
        <time>2017-06-25T09:18:12Z</time>
      </trkpt>
      <trkpt lat="45.05755" lon="6.27659">
        <ele>1825.2</ele>
        <time>2017-06-25T09:18:21Z</time>
      </trkpt>
      <trkpt lat="45.05765" lon="6.27652">
        <ele>1827.12</ele>
        <time>2017-06-25T09:18:28Z</time>
      </trkpt>
      <trkpt lat="45.05775" lon="6.27655">
        <ele>1830.01</ele>
        <time>2017-06-25T09:18:37Z</time>
      </trkpt>
      <trkpt lat="45.05784" lon="6.27661">
        <ele>1831.93</ele>
        <time>2017-06-25T09:18:45Z</time>
      </trkpt>
      <trkpt lat="45.05791" lon="6.27668">
        <ele>1830.97</ele>
        <time>2017-06-25T09:18:53Z</time>
      </trkpt>
      <trkpt lat="45.05801" lon="6.27675">
        <ele>1829.05</ele>
        <time>2017-06-25T09:19:02Z</time>
      </trkpt>
      <trkpt lat="45.05815" lon="6.27674">
        <ele>1830.49</ele>
        <time>2017-06-25T09:19:12Z</time>
      </trkpt>
      <trkpt lat="45.0583" lon="6.27676">
        <ele>1830.01</ele>
        <time>2017-06-25T09:19:20Z</time>
      </trkpt>
      <trkpt lat="45.05849" lon="6.27672">
        <ele>1828.56</ele>
        <time>2017-06-25T09:19:29Z</time>
      </trkpt>
      <trkpt lat="45.05863" lon="6.27664">
        <ele>1829.53</ele>
        <time>2017-06-25T09:19:36Z</time>
      </trkpt>
      <trkpt lat="45.05884" lon="6.27652">
        <ele>1832.41</ele>
        <time>2017-06-25T09:19:45Z</time>
      </trkpt>
      <trkpt lat="45.05899" lon="6.27645">
        <ele>1833.85</ele>
        <time>2017-06-25T09:19:52Z</time>
      </trkpt>
      <trkpt lat="45.05912" lon="6.27636">
        <ele>1834.81</ele>
        <time>2017-06-25T09:19:58Z</time>
      </trkpt>
      <trkpt lat="45.05919" lon="6.27627">
        <ele>1835.29</ele>
        <time>2017-06-25T09:20:02Z</time>
      </trkpt>
      <trkpt lat="45.05933" lon="6.27611">
        <ele>1836.74</ele>
        <time>2017-06-25T09:20:10Z</time>
      </trkpt>
      <trkpt lat="45.05947" lon="6.27603">
        <ele>1839.62</ele>
        <time>2017-06-25T09:20:17Z</time>
      </trkpt>
      <trkpt lat="45.05959" lon="6.27595">
        <ele>1839.62</ele>
        <time>2017-06-25T09:20:24Z</time>
      </trkpt>
      <trkpt lat="45.05972" lon="6.27587">
        <ele>1841.06</ele>
        <time>2017-06-25T09:20:31Z</time>
      </trkpt>
      <trkpt lat="45.05986" lon="6.27578">
        <ele>1841.06</ele>
        <time>2017-06-25T09:20:38Z</time>
      </trkpt>
      <trkpt lat="45.06" lon="6.27568">
        <ele>1841.54</ele>
        <time>2017-06-25T09:20:46Z</time>
      </trkpt>
      <trkpt lat="45.06014" lon="6.27562">
        <ele>1841.54</ele>
        <time>2017-06-25T09:20:54Z</time>
      </trkpt>
      <trkpt lat="45.06025" lon="6.27562">
        <ele>1841.54</ele>
        <time>2017-06-25T09:21:00Z</time>
      </trkpt>
      <trkpt lat="45.06036" lon="6.27549">
        <ele>1841.06</ele>
        <time>2017-06-25T09:21:07Z</time>
      </trkpt>
      <trkpt lat="45.06035" lon="6.27525">
        <ele>1839.62</ele>
        <time>2017-06-25T09:21:15Z</time>
      </trkpt>
      <trkpt lat="45.06036" lon="6.27513">
        <ele>1839.14</ele>
        <time>2017-06-25T09:21:19Z</time>
      </trkpt>
      <trkpt lat="45.0604" lon="6.27498">
        <ele>1837.7</ele>
        <time>2017-06-25T09:21:24Z</time>
      </trkpt>
      <trkpt lat="45.06044" lon="6.2748">
        <ele>1834.81</ele>
        <time>2017-06-25T09:21:30Z</time>
      </trkpt>
      <trkpt lat="45.06052" lon="6.27473">
        <ele>1832.41</ele>
        <time>2017-06-25T09:21:35Z</time>
      </trkpt>
      <trkpt lat="45.06065" lon="6.27478">
        <ele>1832.41</ele>
        <time>2017-06-25T09:21:42Z</time>
      </trkpt>
      <trkpt lat="45.06068" lon="6.27478">
        <ele>1831.93</ele>
        <time>2017-06-25T09:21:48Z</time>
      </trkpt>
      <trkpt lat="45.06069" lon="6.27479">
        <ele>1832.89</ele>
        <time>2017-06-25T09:21:53Z</time>
      </trkpt>
      <trkpt lat="45.06077" lon="6.27477">
        <ele>1832.41</ele>
        <time>2017-06-25T09:21:57Z</time>
      </trkpt>
      <trkpt lat="45.06084" lon="6.27475">
        <ele>1831.45</ele>
        <time>2017-06-25T09:22:00Z</time>
      </trkpt>
      <trkpt lat="45.06091" lon="6.27467">
        <ele>1830.97</ele>
        <time>2017-06-25T09:22:04Z</time>
      </trkpt>
      <trkpt lat="45.06105" lon="6.27474">
        <ele>1831.45</ele>
        <time>2017-06-25T09:22:11Z</time>
      </trkpt>
      <trkpt lat="45.06119" lon="6.27479">
        <ele>1833.37</ele>
        <time>2017-06-25T09:22:18Z</time>
      </trkpt>
      <trkpt lat="45.06135" lon="6.27475">
        <ele>1834.33</ele>
        <time>2017-06-25T09:22:26Z</time>
      </trkpt>
      <trkpt lat="45.0614" lon="6.27474">
        <ele>1834.33</ele>
        <time>2017-06-25T09:22:30Z</time>
      </trkpt>
      <trkpt lat="45.06151" lon="6.2747">
        <ele>1833.85</ele>
        <time>2017-06-25T09:22:39Z</time>
      </trkpt>
      <trkpt lat="45.06162" lon="6.2747">
        <ele>1832.89</ele>
        <time>2017-06-25T09:22:47Z</time>
      </trkpt>
      <trkpt lat="45.06176" lon="6.27477">
        <ele>1833.85</ele>
        <time>2017-06-25T09:22:55Z</time>
      </trkpt>
      <trkpt lat="45.06191" lon="6.27485">
        <ele>1836.26</ele>
        <time>2017-06-25T09:23:04Z</time>
      </trkpt>
      <trkpt lat="45.06202" lon="6.2749">
        <ele>1839.14</ele>
        <time>2017-06-25T09:23:14Z</time>
      </trkpt>
      <trkpt lat="45.06212" lon="6.27499">
        <ele>1841.06</ele>
        <time>2017-06-25T09:23:24Z</time>
      </trkpt>
      <trkpt lat="45.06221" lon="6.27505">
        <ele>1842.5</ele>
        <time>2017-06-25T09:23:32Z</time>
      </trkpt>
      <trkpt lat="45.06232" lon="6.27506">
        <ele>1844.91</ele>
        <time>2017-06-25T09:23:41Z</time>
      </trkpt>
      <trkpt lat="45.06246" lon="6.27506">
        <ele>1846.83</ele>
        <time>2017-06-25T09:23:52Z</time>
      </trkpt>
      <trkpt lat="45.06257" lon="6.27505">
        <ele>1848.75</ele>
        <time>2017-06-25T09:24:01Z</time>
      </trkpt>
      <trkpt lat="45.06269" lon="6.27502">
        <ele>1849.71</ele>
        <time>2017-06-25T09:24:10Z</time>
      </trkpt>
      <trkpt lat="45.06281" lon="6.27498">
        <ele>1851.64</ele>
        <time>2017-06-25T09:24:20Z</time>
      </trkpt>
      <trkpt lat="45.0629" lon="6.27492">
        <ele>1852.6</ele>
        <time>2017-06-25T09:24:27Z</time>
      </trkpt>
      <trkpt lat="45.06306" lon="6.27486">
        <ele>1855</ele>
        <time>2017-06-25T09:24:38Z</time>
      </trkpt>
      <trkpt lat="45.0632" lon="6.2748">
        <ele>1855.96</ele>
        <time>2017-06-25T09:24:48Z</time>
      </trkpt>
      <trkpt lat="45.06334" lon="6.27475">
        <ele>1857.4</ele>
        <time>2017-06-25T09:24:58Z</time>
      </trkpt>
      <trkpt lat="45.06346" lon="6.2747">
        <ele>1856.44</ele>
        <time>2017-06-25T09:25:07Z</time>
      </trkpt>
      <trkpt lat="45.06358" lon="6.27464">
        <ele>1856.92</ele>
        <time>2017-06-25T09:25:16Z</time>
      </trkpt>
      <trkpt lat="45.06373" lon="6.27458">
        <ele>1857.89</ele>
        <time>2017-06-25T09:25:27Z</time>
      </trkpt>
      <trkpt lat="45.06385" lon="6.2745">
        <ele>1859.33</ele>
        <time>2017-06-25T09:25:37Z</time>
      </trkpt>
      <trkpt lat="45.06395" lon="6.27445">
        <ele>1861.73</ele>
        <time>2017-06-25T09:25:45Z</time>
      </trkpt>
      <trkpt lat="45.0641" lon="6.27439">
        <ele>1862.69</ele>
        <time>2017-06-25T09:25:57Z</time>
      </trkpt>
      <trkpt lat="45.06419" lon="6.27432">
        <ele>1863.17</ele>
        <time>2017-06-25T09:26:05Z</time>
      </trkpt>
      <trkpt lat="45.06431" lon="6.27426">
        <ele>1863.65</ele>
        <time>2017-06-25T09:26:14Z</time>
      </trkpt>
      <trkpt lat="45.06442" lon="6.27422">
        <ele>1864.61</ele>
        <time>2017-06-25T09:26:23Z</time>
      </trkpt>
      <trkpt lat="45.06459" lon="6.27418">
        <ele>1865.58</ele>
        <time>2017-06-25T09:26:35Z</time>
      </trkpt>
      <trkpt lat="45.06471" lon="6.27415">
        <ele>1865.58</ele>
        <time>2017-06-25T09:26:45Z</time>
      </trkpt>
      <trkpt lat="45.06476" lon="6.27413">
        <ele>1866.06</ele>
        <time>2017-06-25T09:26:52Z</time>
      </trkpt>
      <trkpt lat="45.0648" lon="6.27411">
        <ele>1867.02</ele>
        <time>2017-06-25T09:26:56Z</time>
      </trkpt>
      <trkpt lat="45.06487" lon="6.27406">
        <ele>1868.94</ele>
        <time>2017-06-25T09:27:07Z</time>
      </trkpt>
      <trkpt lat="45.06493" lon="6.27401">
        <ele>1869.42</ele>
        <time>2017-06-25T09:27:14Z</time>
      </trkpt>
      <trkpt lat="45.06504" lon="6.27391">
        <ele>1869.42</ele>
        <time>2017-06-25T09:27:24Z</time>
      </trkpt>
      <trkpt lat="45.0652" lon="6.2739">
        <ele>1868.46</ele>
        <time>2017-06-25T09:27:34Z</time>
      </trkpt>
      <trkpt lat="45.06524" lon="6.27391">
        <ele>1868.46</ele>
        <time>2017-06-25T09:27:38Z</time>
      </trkpt>
      <trkpt lat="45.06528" lon="6.27388">
        <ele>1868.94</ele>
        <time>2017-06-25T09:27:42Z</time>
      </trkpt>
      <trkpt lat="45.06531" lon="6.27385">
        <ele>1869.42</ele>
        <time>2017-06-25T09:27:47Z</time>
      </trkpt>
      <trkpt lat="45.06533" lon="6.27384">
        <ele>1871.82</ele>
        <time>2017-06-25T09:27:53Z</time>
      </trkpt>
      <trkpt lat="45.06534" lon="6.2738">
        <ele>1872.3</ele>
        <time>2017-06-25T09:27:56Z</time>
      </trkpt>
      <trkpt lat="45.06536" lon="6.27377">
        <ele>1872.79</ele>
        <time>2017-06-25T09:27:58Z</time>
      </trkpt>
      <trkpt lat="45.06538" lon="6.27375">
        <ele>1873.27</ele>
        <time>2017-06-25T09:28:00Z</time>
      </trkpt>
      <trkpt lat="45.06544" lon="6.27364">
        <ele>1874.71</ele>
        <time>2017-06-25T09:28:08Z</time>
      </trkpt>
      <trkpt lat="45.06552" lon="6.27352">
        <ele>1876.63</ele>
        <time>2017-06-25T09:28:17Z</time>
      </trkpt>
      <trkpt lat="45.0656" lon="6.2734">
        <ele>1878.07</ele>
        <time>2017-06-25T09:28:26Z</time>
      </trkpt>
      <trkpt lat="45.06568" lon="6.27326">
        <ele>1879.03</ele>
        <time>2017-06-25T09:28:36Z</time>
      </trkpt>
      <trkpt lat="45.06576" lon="6.27313">
        <ele>1879.51</ele>
        <time>2017-06-25T09:28:46Z</time>
      </trkpt>
      <trkpt lat="45.06582" lon="6.27303">
        <ele>1880.48</ele>
        <time>2017-06-25T09:28:53Z</time>
      </trkpt>
      <trkpt lat="45.06588" lon="6.27291">
        <ele>1880.96</ele>
        <time>2017-06-25T09:29:01Z</time>
      </trkpt>
      <trkpt lat="45.06598" lon="6.27282">
        <ele>1882.4</ele>
        <time>2017-06-25T09:29:10Z</time>
      </trkpt>
      <trkpt lat="45.06608" lon="6.27279">
        <ele>1883.84</ele>
        <time>2017-06-25T09:29:18Z</time>
      </trkpt>
      <trkpt lat="45.06619" lon="6.27275">
        <ele>1884.8</ele>
        <time>2017-06-25T09:29:28Z</time>
      </trkpt>
      <trkpt lat="45.0663" lon="6.27271">
        <ele>1885.76</ele>
        <time>2017-06-25T09:29:37Z</time>
      </trkpt>
      <trkpt lat="45.06637" lon="6.27267">
        <ele>1886.24</ele>
        <time>2017-06-25T09:29:44Z</time>
      </trkpt>
      <trkpt lat="45.06644" lon="6.27261">
        <ele>1886.72</ele>
        <time>2017-06-25T09:29:52Z</time>
      </trkpt>
      <trkpt lat="45.0665" lon="6.27255">
        <ele>1887.69</ele>
        <time>2017-06-25T09:29:58Z</time>
      </trkpt>
      <trkpt lat="45.06659" lon="6.27249">
        <ele>1888.65</ele>
        <time>2017-06-25T09:30:06Z</time>
      </trkpt>
      <trkpt lat="45.06668" lon="6.27241">
        <ele>1888.17</ele>
        <time>2017-06-25T09:30:14Z</time>
      </trkpt>
      <trkpt lat="45.06679" lon="6.27235">
        <ele>1889.13</ele>
        <time>2017-06-25T09:30:24Z</time>
      </trkpt>
      <trkpt lat="45.06688" lon="6.27227">
        <ele>1891.05</ele>
        <time>2017-06-25T09:30:33Z</time>
      </trkpt>
      <trkpt lat="45.06689" lon="6.27226">
        <ele>1891.53</ele>
        <time>2017-06-25T09:30:34Z</time>
      </trkpt>
      <trkpt lat="45.06698" lon="6.27218">
        <ele>1892.01</ele>
        <time>2017-06-25T09:30:43Z</time>
      </trkpt>
      <trkpt lat="45.06706" lon="6.27208">
        <ele>1892.49</ele>
        <time>2017-06-25T09:30:51Z</time>
      </trkpt>
      <trkpt lat="45.06713" lon="6.27193">
        <ele>1893.45</ele>
        <time>2017-06-25T09:31:01Z</time>
      </trkpt>
      <trkpt lat="45.06715" lon="6.27177">
        <ele>1894.42</ele>
        <time>2017-06-25T09:31:10Z</time>
      </trkpt>
      <trkpt lat="45.06719" lon="6.27161">
        <ele>1893.93</ele>
        <time>2017-06-25T09:31:19Z</time>
      </trkpt>
      <trkpt lat="45.06728" lon="6.27155">
        <ele>1894.42</ele>
        <time>2017-06-25T09:31:27Z</time>
      </trkpt>
      <trkpt lat="45.06743" lon="6.27157">
        <ele>1894.9</ele>
        <time>2017-06-25T09:31:38Z</time>
      </trkpt>
      <trkpt lat="45.06755" lon="6.2716">
        <ele>1895.38</ele>
        <time>2017-06-25T09:31:48Z</time>
      </trkpt>
      <trkpt lat="45.06765" lon="6.27154">
        <ele>1896.82</ele>
        <time>2017-06-25T09:31:57Z</time>
      </trkpt>
      <trkpt lat="45.06777" lon="6.27146">
        <ele>1896.34</ele>
        <time>2017-06-25T09:32:07Z</time>
      </trkpt>
      <trkpt lat="45.06789" lon="6.27146">
        <ele>1897.78</ele>
        <time>2017-06-25T09:32:17Z</time>
      </trkpt>
      <trkpt lat="45.06799" lon="6.27143">
        <ele>1899.7</ele>
        <time>2017-06-25T09:32:25Z</time>
      </trkpt>
      <trkpt lat="45.06807" lon="6.27135">
        <ele>1900.66</ele>
        <time>2017-06-25T09:32:33Z</time>
      </trkpt>
      <trkpt lat="45.06814" lon="6.27123">
        <ele>1902.59</ele>
        <time>2017-06-25T09:32:42Z</time>
      </trkpt>
      <trkpt lat="45.0682" lon="6.27107">
        <ele>1903.07</ele>
        <time>2017-06-25T09:32:51Z</time>
      </trkpt>
      <trkpt lat="45.06822" lon="6.27092">
        <ele>1903.07</ele>
        <time>2017-06-25T09:32:59Z</time>
      </trkpt>
      <trkpt lat="45.06831" lon="6.27078">
        <ele>1903.07</ele>
        <time>2017-06-25T09:33:09Z</time>
      </trkpt>
      <trkpt lat="45.06841" lon="6.27076">
        <ele>1904.99</ele>
        <time>2017-06-25T09:33:16Z</time>
      </trkpt>
      <trkpt lat="45.06853" lon="6.27071">
        <ele>1903.55</ele>
        <time>2017-06-25T09:33:25Z</time>
      </trkpt>
      <trkpt lat="45.06863" lon="6.27061">
        <ele>1903.07</ele>
        <time>2017-06-25T09:33:34Z</time>
      </trkpt>
      <trkpt lat="45.06869" lon="6.27053">
        <ele>1904.03</ele>
        <time>2017-06-25T09:33:40Z</time>
      </trkpt>
      <trkpt lat="45.06875" lon="6.27051">
        <ele>1904.99</ele>
        <time>2017-06-25T09:33:45Z</time>
      </trkpt>
      <trkpt lat="45.06886" lon="6.27057">
        <ele>1905.47</ele>
        <time>2017-06-25T09:33:54Z</time>
      </trkpt>
      <trkpt lat="45.06898" lon="6.27061">
        <ele>1905.47</ele>
        <time>2017-06-25T09:34:03Z</time>
      </trkpt>
      <trkpt lat="45.06907" lon="6.27062">
        <ele>1906.43</ele>
        <time>2017-06-25T09:34:11Z</time>
      </trkpt>
      <trkpt lat="45.06916" lon="6.27054">
        <ele>1907.87</ele>
        <time>2017-06-25T09:34:20Z</time>
      </trkpt>
      <trkpt lat="45.0692" lon="6.27047">
        <ele>1908.35</ele>
        <time>2017-06-25T09:34:25Z</time>
      </trkpt>
      <trkpt lat="45.06934" lon="6.27033">
        <ele>1910.76</ele>
        <time>2017-06-25T09:34:37Z</time>
      </trkpt>
      <trkpt lat="45.06943" lon="6.2702">
        <ele>1910.76</ele>
        <time>2017-06-25T09:34:47Z</time>
      </trkpt>
      <trkpt lat="45.06953" lon="6.2701">
        <ele>1911.72</ele>
        <time>2017-06-25T09:34:55Z</time>
      </trkpt>
      <trkpt lat="45.06963" lon="6.27">
        <ele>1911.24</ele>
        <time>2017-06-25T09:35:04Z</time>
      </trkpt>
      <trkpt lat="45.06971" lon="6.26987">
        <ele>1911.72</ele>
        <time>2017-06-25T09:35:12Z</time>
      </trkpt>
      <trkpt lat="45.06986" lon="6.26976">
        <ele>1910.76</ele>
        <time>2017-06-25T09:35:24Z</time>
      </trkpt>
      <trkpt lat="45.06998" lon="6.26967">
        <ele>1910.76</ele>
        <time>2017-06-25T09:35:34Z</time>
      </trkpt>
      <trkpt lat="45.07006" lon="6.26958">
        <ele>1910.76</ele>
        <time>2017-06-25T09:35:42Z</time>
      </trkpt>
      <trkpt lat="45.07021" lon="6.26947">
        <ele>1911.24</ele>
        <time>2017-06-25T09:35:54Z</time>
      </trkpt>
      <trkpt lat="45.07024" lon="6.26946">
        <ele>1912.2</ele>
        <time>2017-06-25T09:35:57Z</time>
      </trkpt>
      <trkpt lat="45.07037" lon="6.26939">
        <ele>1914.6</ele>
        <time>2017-06-25T09:36:08Z</time>
      </trkpt>
      <trkpt lat="45.07049" lon="6.2693">
        <ele>1915.08</ele>
        <time>2017-06-25T09:36:18Z</time>
      </trkpt>
      <trkpt lat="45.0706" lon="6.26927">
        <ele>1915.56</ele>
        <time>2017-06-25T09:36:26Z</time>
      </trkpt>
      <trkpt lat="45.0707" lon="6.26926">
        <ele>1916.53</ele>
        <time>2017-06-25T09:36:34Z</time>
      </trkpt>
      <trkpt lat="45.07083" lon="6.26922">
        <ele>1916.04</ele>
        <time>2017-06-25T09:36:44Z</time>
      </trkpt>
      <trkpt lat="45.07094" lon="6.26919">
        <ele>1917.01</ele>
        <time>2017-06-25T09:36:53Z</time>
      </trkpt>
      <trkpt lat="45.07105" lon="6.26913">
        <ele>1918.93</ele>
        <time>2017-06-25T09:37:03Z</time>
      </trkpt>
      <trkpt lat="45.07114" lon="6.26908">
        <ele>1920.37</ele>
        <time>2017-06-25T09:37:11Z</time>
      </trkpt>
      <trkpt lat="45.07126" lon="6.269">
        <ele>1921.81</ele>
        <time>2017-06-25T09:37:22Z</time>
      </trkpt>
      <trkpt lat="45.07129" lon="6.26898">
        <ele>1922.29</ele>
        <time>2017-06-25T09:37:25Z</time>
      </trkpt>
      <trkpt lat="45.07143" lon="6.26894">
        <ele>1924.22</ele>
        <time>2017-06-25T09:37:36Z</time>
      </trkpt>
      <trkpt lat="45.07155" lon="6.26892">
        <ele>1924.22</ele>
        <time>2017-06-25T09:37:45Z</time>
      </trkpt>
      <trkpt lat="45.07168" lon="6.26885">
        <ele>1923.25</ele>
        <time>2017-06-25T09:37:55Z</time>
      </trkpt>
      <trkpt lat="45.07179" lon="6.26878">
        <ele>1921.81</ele>
        <time>2017-06-25T09:38:03Z</time>
      </trkpt>
      <trkpt lat="45.07189" lon="6.26868">
        <ele>1921.81</ele>
        <time>2017-06-25T09:38:09Z</time>
      </trkpt>
      <trkpt lat="45.07202" lon="6.26854">
        <ele>1921.33</ele>
        <time>2017-06-25T09:38:16Z</time>
      </trkpt>
      <trkpt lat="45.07214" lon="6.26843">
        <ele>1921.33</ele>
        <time>2017-06-25T09:38:22Z</time>
      </trkpt>
      <trkpt lat="45.07228" lon="6.26829">
        <ele>1922.29</ele>
        <time>2017-06-25T09:38:29Z</time>
      </trkpt>
      <trkpt lat="45.07241" lon="6.2681">
        <ele>1923.74</ele>
        <time>2017-06-25T09:38:37Z</time>
      </trkpt>
      <trkpt lat="45.07253" lon="6.26791">
        <ele>1923.74</ele>
        <time>2017-06-25T09:38:45Z</time>
      </trkpt>
      <trkpt lat="45.07264" lon="6.26794">
        <ele>1922.77</ele>
        <time>2017-06-25T09:38:54Z</time>
      </trkpt>
      <trkpt lat="45.07276" lon="6.26791">
        <ele>1924.22</ele>
        <time>2017-06-25T09:39:04Z</time>
      </trkpt>
      <trkpt lat="45.07286" lon="6.2679">
        <ele>1926.14</ele>
        <time>2017-06-25T09:39:13Z</time>
      </trkpt>
      <trkpt lat="45.07294" lon="6.26789">
        <ele>1927.58</ele>
        <time>2017-06-25T09:39:22Z</time>
      </trkpt>
      <trkpt lat="45.07294" lon="6.26791">
        <ele>1927.1</ele>
        <time>2017-06-25T09:39:31Z</time>
      </trkpt>
      <trkpt lat="45.07304" lon="6.26782">
        <ele>1926.14</ele>
        <time>2017-06-25T09:39:40Z</time>
      </trkpt>
      <trkpt lat="45.07311" lon="6.26779">
        <ele>1926.14</ele>
        <time>2017-06-25T09:39:47Z</time>
      </trkpt>
      <trkpt lat="45.07321" lon="6.2678">
        <ele>1927.1</ele>
        <time>2017-06-25T09:39:56Z</time>
      </trkpt>
      <trkpt lat="45.07328" lon="6.26783">
        <ele>1928.54</ele>
        <time>2017-06-25T09:40:04Z</time>
      </trkpt>
      <trkpt lat="45.07331" lon="6.26785">
        <ele>1928.54</ele>
        <time>2017-06-25T09:40:12Z</time>
      </trkpt>
      <trkpt lat="45.07329" lon="6.26785">
        <ele>1927.58</ele>
        <time>2017-06-25T09:40:26Z</time>
      </trkpt>
      <trkpt lat="45.0733" lon="6.26786">
        <ele>1928.06</ele>
        <time>2017-06-25T09:40:37Z</time>
      </trkpt>
      <trkpt lat="45.07329" lon="6.26785">
        <ele>1928.06</ele>
        <time>2017-06-25T09:40:47Z</time>
      </trkpt>
      <trkpt lat="45.07329" lon="6.26784">
        <ele>1928.54</ele>
        <time>2017-06-25T09:40:56Z</time>
      </trkpt>
      <trkpt lat="45.07329" lon="6.26785">
        <ele>1928.54</ele>
        <time>2017-06-25T09:41:08Z</time>
      </trkpt>
      <trkpt lat="45.07328" lon="6.26785">
        <ele>1929.02</ele>
        <time>2017-06-25T09:41:20Z</time>
      </trkpt>
      <trkpt lat="45.07328" lon="6.26785">
        <ele>1929.5</ele>
        <time>2017-06-25T09:41:30Z</time>
      </trkpt>
      <trkpt lat="45.07328" lon="6.26786">
        <ele>1929.5</ele>
        <time>2017-06-25T09:41:40Z</time>
      </trkpt>
      <trkpt lat="45.07328" lon="6.26786">
        <ele>1930.46</ele>
        <time>2017-06-25T09:41:49Z</time>
      </trkpt>
      <trkpt lat="45.07328" lon="6.26786">
        <ele>1930.95</ele>
        <time>2017-06-25T09:41:57Z</time>
      </trkpt>
      <trkpt lat="45.07328" lon="6.26786">
        <ele>1930.95</ele>
        <time>2017-06-25T09:42:08Z</time>
      </trkpt>
      <trkpt lat="45.07329" lon="6.26786">
        <ele>1930.95</ele>
        <time>2017-06-25T09:42:15Z</time>
      </trkpt>
      <trkpt lat="45.07329" lon="6.26787">
        <ele>1930.95</ele>
        <time>2017-06-25T09:42:27Z</time>
      </trkpt>
      <trkpt lat="45.07329" lon="6.26786">
        <ele>1930.46</ele>
        <time>2017-06-25T09:42:38Z</time>
      </trkpt>
      <trkpt lat="45.07329" lon="6.26786">
        <ele>1930.95</ele>
        <time>2017-06-25T09:42:47Z</time>
      </trkpt>
      <trkpt lat="45.07329" lon="6.26786">
        <ele>1931.91</ele>
        <time>2017-06-25T09:42:58Z</time>
      </trkpt>
      <trkpt lat="45.07329" lon="6.26785">
        <ele>1931.43</ele>
        <time>2017-06-25T09:43:06Z</time>
      </trkpt>
      <trkpt lat="45.07329" lon="6.26785">
        <ele>1930.95</ele>
        <time>2017-06-25T09:43:17Z</time>
      </trkpt>
      <trkpt lat="45.07329" lon="6.26785">
        <ele>1930.95</ele>
        <time>2017-06-25T09:43:25Z</time>
      </trkpt>
      <trkpt lat="45.07329" lon="6.26785">
        <ele>1930.95</ele>
        <time>2017-06-25T09:43:34Z</time>
      </trkpt>
      <trkpt lat="45.07329" lon="6.26785">
        <ele>1930.95</ele>
        <time>2017-06-25T09:43:41Z</time>
      </trkpt>
      <trkpt lat="45.07329" lon="6.26785">
        <ele>1931.43</ele>
        <time>2017-06-25T09:43:51Z</time>
      </trkpt>
      <trkpt lat="45.0733" lon="6.26785">
        <ele>1931.91</ele>
        <time>2017-06-25T09:44:04Z</time>
      </trkpt>
      <trkpt lat="45.07329" lon="6.26785">
        <ele>1932.39</ele>
        <time>2017-06-25T09:44:14Z</time>
      </trkpt>
      <trkpt lat="45.07329" lon="6.26785">
        <ele>1932.39</ele>
        <time>2017-06-25T09:44:27Z</time>
      </trkpt>
      <trkpt lat="45.07329" lon="6.26786">
        <ele>1932.39</ele>
        <time>2017-06-25T09:44:35Z</time>
      </trkpt>
      <trkpt lat="45.07329" lon="6.26786">
        <ele>1931.91</ele>
        <time>2017-06-25T09:44:44Z</time>
      </trkpt>
      <trkpt lat="45.07328" lon="6.26785">
        <ele>1930.95</ele>
        <time>2017-06-25T09:44:58Z</time>
      </trkpt>
      <trkpt lat="45.07328" lon="6.26786">
        <ele>1929.98</ele>
        <time>2017-06-25T09:45:12Z</time>
      </trkpt>
      <trkpt lat="45.07329" lon="6.26786">
        <ele>1929.98</ele>
        <time>2017-06-25T09:45:26Z</time>
      </trkpt>
      <trkpt lat="45.07329" lon="6.26786">
        <ele>1929.5</ele>
        <time>2017-06-25T09:45:40Z</time>
      </trkpt>
      <trkpt lat="45.07329" lon="6.26786">
        <ele>1929.02</ele>
        <time>2017-06-25T09:45:58Z</time>
      </trkpt>
      <trkpt lat="45.07329" lon="6.26786">
        <ele>1929.5</ele>
        <time>2017-06-25T09:46:11Z</time>
      </trkpt>
      <trkpt lat="45.07329" lon="6.26786">
        <ele>1929.98</ele>
        <time>2017-06-25T09:46:30Z</time>
      </trkpt>
      <trkpt lat="45.07329" lon="6.26786">
        <ele>1931.43</ele>
        <time>2017-06-25T09:46:49Z</time>
      </trkpt>
      <trkpt lat="45.07329" lon="6.26787">
        <ele>1931.43</ele>
        <time>2017-06-25T09:47:02Z</time>
      </trkpt>
      <trkpt lat="45.07329" lon="6.26787">
        <ele>1930.95</ele>
        <time>2017-06-25T09:47:18Z</time>
      </trkpt>
      <trkpt lat="45.0733" lon="6.26787">
        <ele>1931.91</ele>
        <time>2017-06-25T09:47:34Z</time>
      </trkpt>
      <trkpt lat="45.07329" lon="6.26787">
        <ele>1932.87</ele>
        <time>2017-06-25T09:47:44Z</time>
      </trkpt>
      <trkpt lat="45.07329" lon="6.26788">
        <ele>1932.87</ele>
        <time>2017-06-25T09:47:58Z</time>
      </trkpt>
      <trkpt lat="45.0733" lon="6.26788">
        <ele>1932.87</ele>
        <time>2017-06-25T09:48:06Z</time>
      </trkpt>
      <trkpt lat="45.0733" lon="6.26788">
        <ele>1933.35</ele>
        <time>2017-06-25T09:48:20Z</time>
      </trkpt>
      <trkpt lat="45.0733" lon="6.26788">
        <ele>1933.83</ele>
        <time>2017-06-25T09:48:32Z</time>
      </trkpt>
      <trkpt lat="45.0733" lon="6.26788">
        <ele>1933.83</ele>
        <time>2017-06-25T09:48:43Z</time>
      </trkpt>
      <trkpt lat="45.07329" lon="6.26788">
        <ele>1934.31</ele>
        <time>2017-06-25T09:48:55Z</time>
      </trkpt>
      <trkpt lat="45.07329" lon="6.26788">
        <ele>1934.31</ele>
        <time>2017-06-25T09:49:01Z</time>
      </trkpt>
      <trkpt lat="45.07329" lon="6.26788">
        <ele>1932.87</ele>
        <time>2017-06-25T09:49:16Z</time>
      </trkpt>
      <trkpt lat="45.07329" lon="6.26787">
        <ele>1933.35</ele>
        <time>2017-06-25T09:49:27Z</time>
      </trkpt>
      <trkpt lat="45.07329" lon="6.26787">
        <ele>1933.83</ele>
        <time>2017-06-25T09:49:39Z</time>
      </trkpt>
      <trkpt lat="45.07329" lon="6.26787">
        <ele>1933.83</ele>
        <time>2017-06-25T09:49:47Z</time>
      </trkpt>
      <trkpt lat="45.07329" lon="6.26787">
        <ele>1934.31</ele>
        <time>2017-06-25T09:50:02Z</time>
      </trkpt>
      <trkpt lat="45.07329" lon="6.26787">
        <ele>1935.27</ele>
        <time>2017-06-25T09:50:12Z</time>
      </trkpt>
      <trkpt lat="45.0733" lon="6.26787">
        <ele>1936.23</ele>
        <time>2017-06-25T09:50:24Z</time>
      </trkpt>
      <trkpt lat="45.07329" lon="6.26787">
        <ele>1935.27</ele>
        <time>2017-06-25T09:50:36Z</time>
      </trkpt>
      <trkpt lat="45.07329" lon="6.26787">
        <ele>1935.27</ele>
        <time>2017-06-25T09:50:44Z</time>
      </trkpt>
      <trkpt lat="45.07329" lon="6.26787">
        <ele>1935.27</ele>
        <time>2017-06-25T09:50:55Z</time>
      </trkpt>
      <trkpt lat="45.07328" lon="6.26786">
        <ele>1935.75</ele>
        <time>2017-06-25T09:51:07Z</time>
      </trkpt>
      <trkpt lat="45.07329" lon="6.26786">
        <ele>1936.23</ele>
        <time>2017-06-25T09:51:18Z</time>
      </trkpt>
      <trkpt lat="45.07329" lon="6.26787">
        <ele>1937.67</ele>
        <time>2017-06-25T09:51:28Z</time>
      </trkpt>
      <trkpt lat="45.07328" lon="6.26787">
        <ele>1936.71</ele>
        <time>2017-06-25T09:51:38Z</time>
      </trkpt>
      <trkpt lat="45.07329" lon="6.26788">
        <ele>1937.67</ele>
        <time>2017-06-25T09:51:51Z</time>
      </trkpt>
      <trkpt lat="45.07329" lon="6.26787">
        <ele>1937.67</ele>
        <time>2017-06-25T09:52:04Z</time>
      </trkpt>
      <trkpt lat="45.07329" lon="6.26788">
        <ele>1937.19</ele>
        <time>2017-06-25T09:52:10Z</time>
      </trkpt>
      <trkpt lat="45.07329" lon="6.26787">
        <ele>1937.19</ele>
        <time>2017-06-25T09:52:17Z</time>
      </trkpt>
      <trkpt lat="45.07329" lon="6.26787">
        <ele>1936.71</ele>
        <time>2017-06-25T09:52:30Z</time>
      </trkpt>
      <trkpt lat="45.07328" lon="6.26788">
        <ele>1936.71</ele>
        <time>2017-06-25T09:52:39Z</time>
      </trkpt>
      <trkpt lat="45.07329" lon="6.26788">
        <ele>1936.71</ele>
        <time>2017-06-25T09:52:56Z</time>
      </trkpt>
      <trkpt lat="45.07329" lon="6.26788">
        <ele>1937.67</ele>
        <time>2017-06-25T09:53:10Z</time>
      </trkpt>
      <trkpt lat="45.0733" lon="6.26789">
        <ele>1937.67</ele>
        <time>2017-06-25T09:53:17Z</time>
      </trkpt>
      <trkpt lat="45.0733" lon="6.26789">
        <ele>1936.71</ele>
        <time>2017-06-25T09:53:28Z</time>
      </trkpt>
      <trkpt lat="45.0733" lon="6.26788">
        <ele>1936.23</ele>
        <time>2017-06-25T09:53:44Z</time>
      </trkpt>
      <trkpt lat="45.0733" lon="6.26789">
        <ele>1936.71</ele>
        <time>2017-06-25T09:53:51Z</time>
      </trkpt>
      <trkpt lat="45.0733" lon="6.26789">
        <ele>1937.19</ele>
        <time>2017-06-25T09:53:57Z</time>
      </trkpt>
      <trkpt lat="45.07331" lon="6.26789">
        <ele>1937.19</ele>
        <time>2017-06-25T09:54:03Z</time>
      </trkpt>
      <trkpt lat="45.07331" lon="6.2679">
        <ele>1937.19</ele>
        <time>2017-06-25T09:54:10Z</time>
      </trkpt>
      <trkpt lat="45.07331" lon="6.26789">
        <ele>1937.67</ele>
        <time>2017-06-25T09:54:21Z</time>
      </trkpt>
      <trkpt lat="45.0733" lon="6.26789">
        <ele>1938.16</ele>
        <time>2017-06-25T09:54:30Z</time>
      </trkpt>
      <trkpt lat="45.0733" lon="6.2679">
        <ele>1938.16</ele>
        <time>2017-06-25T09:54:36Z</time>
      </trkpt>
      <trkpt lat="45.0733" lon="6.26789">
        <ele>1938.16</ele>
        <time>2017-06-25T09:54:48Z</time>
      </trkpt>
      <trkpt lat="45.07334" lon="6.26788">
        <ele>1938.16</ele>
        <time>2017-06-25T09:54:55Z</time>
      </trkpt>
      <trkpt lat="45.07334" lon="6.26788">
        <ele>1938.16</ele>
        <time>2017-06-25T09:54:57Z</time>
      </trkpt>
      <trkpt lat="45.07331" lon="6.26786">
        <ele>1938.16</ele>
        <time>2017-06-25T09:55:07Z</time>
      </trkpt>
      <trkpt lat="45.07331" lon="6.26787">
        <ele>1937.67</ele>
        <time>2017-06-25T09:55:16Z</time>
      </trkpt>
      <trkpt lat="45.07332" lon="6.26788">
        <ele>1937.67</ele>
        <time>2017-06-25T09:55:31Z</time>
      </trkpt>
      <trkpt lat="45.07332" lon="6.26789">
        <ele>1937.67</ele>
        <time>2017-06-25T09:55:45Z</time>
      </trkpt>
      <trkpt lat="45.07332" lon="6.2679">
        <ele>1937.67</ele>
        <time>2017-06-25T09:55:53Z</time>
      </trkpt>
      <trkpt lat="45.07332" lon="6.26791">
        <ele>1937.67</ele>
        <time>2017-06-25T09:56:06Z</time>
      </trkpt>
      <trkpt lat="45.07332" lon="6.26791">
        <ele>1937.19</ele>
        <time>2017-06-25T09:56:28Z</time>
      </trkpt>
      <trkpt lat="45.07332" lon="6.2679">
        <ele>1937.19</ele>
        <time>2017-06-25T09:56:43Z</time>
      </trkpt>
      <trkpt lat="45.07332" lon="6.2679">
        <ele>1937.19</ele>
        <time>2017-06-25T09:56:56Z</time>
      </trkpt>
      <trkpt lat="45.07332" lon="6.2679">
        <ele>1936.71</ele>
        <time>2017-06-25T09:57:04Z</time>
      </trkpt>
      <trkpt lat="45.07332" lon="6.26789">
        <ele>1936.71</ele>
        <time>2017-06-25T09:57:32Z</time>
      </trkpt>
      <trkpt lat="45.07332" lon="6.26789">
        <ele>1936.23</ele>
        <time>2017-06-25T09:57:43Z</time>
      </trkpt>
      <trkpt lat="45.07332" lon="6.26789">
        <ele>1936.23</ele>
        <time>2017-06-25T09:57:44Z</time>
      </trkpt>
      <trkpt lat="45.07342" lon="6.2679">
        <ele>1936.71</ele>
        <time>2017-06-25T09:57:53Z</time>
      </trkpt>
      <trkpt lat="45.0735" lon="6.26783">
        <ele>1937.19</ele>
        <time>2017-06-25T09:58:01Z</time>
      </trkpt>
      <trkpt lat="45.07352" lon="6.26782">
        <ele>1937.19</ele>
        <time>2017-06-25T09:58:03Z</time>
      </trkpt>
      <trkpt lat="45.07354" lon="6.26778">
        <ele>1937.19</ele>
        <time>2017-06-25T09:58:06Z</time>
      </trkpt>
      <trkpt lat="45.07358" lon="6.26776">
        <ele>1937.67</ele>
        <time>2017-06-25T09:58:10Z</time>
      </trkpt>
      <trkpt lat="45.07362" lon="6.26766">
        <ele>1940.08</ele>
        <time>2017-06-25T09:58:16Z</time>
      </trkpt>
      <trkpt lat="45.07362" lon="6.26764">
        <ele>1940.08</ele>
        <time>2017-06-25T09:58:17Z</time>
      </trkpt>
      <trkpt lat="45.07364" lon="6.26754">
        <ele>1940.08</ele>
        <time>2017-06-25T09:58:22Z</time>
      </trkpt>
      <trkpt lat="45.07366" lon="6.26744">
        <ele>1940.56</ele>
        <time>2017-06-25T09:58:28Z</time>
      </trkpt>
      <trkpt lat="45.07369" lon="6.26733">
        <ele>1941.52</ele>
        <time>2017-06-25T09:58:36Z</time>
      </trkpt>
      <trkpt lat="45.07371" lon="6.26726">
        <ele>1941.52</ele>
        <time>2017-06-25T09:58:41Z</time>
      </trkpt>
      <trkpt lat="45.07376" lon="6.26718">
        <ele>1942.48</ele>
        <time>2017-06-25T09:58:48Z</time>
      </trkpt>
      <trkpt lat="45.07384" lon="6.26713">
        <ele>1943.44</ele>
        <time>2017-06-25T09:58:55Z</time>
      </trkpt>
      <trkpt lat="45.07395" lon="6.26714">
        <ele>1946.33</ele>
        <time>2017-06-25T09:59:04Z</time>
      </trkpt>
      <trkpt lat="45.07404" lon="6.26717">
        <ele>1949.69</ele>
        <time>2017-06-25T09:59:11Z</time>
      </trkpt>
      <trkpt lat="45.07415" lon="6.26717">
        <ele>1953.06</ele>
        <time>2017-06-25T09:59:19Z</time>
      </trkpt>
      <trkpt lat="45.07427" lon="6.26714">
        <ele>1955.94</ele>
        <time>2017-06-25T09:59:27Z</time>
      </trkpt>
      <trkpt lat="45.07435" lon="6.26711">
        <ele>1955.94</ele>
        <time>2017-06-25T09:59:34Z</time>
      </trkpt>
      <trkpt lat="45.07434" lon="6.26709">
        <ele>1956.42</ele>
        <time>2017-06-25T09:59:41Z</time>
      </trkpt>
      <trkpt lat="45.07434" lon="6.26708">
        <ele>1958.34</ele>
        <time>2017-06-25T09:59:49Z</time>
      </trkpt>
      <trkpt lat="45.07433" lon="6.26707">
        <ele>1957.86</ele>
        <time>2017-06-25T10:00:03Z</time>
      </trkpt>
      <trkpt lat="45.07436" lon="6.26705">
        <ele>1957.38</ele>
        <time>2017-06-25T10:00:11Z</time>
      </trkpt>
      <trkpt lat="45.07438" lon="6.26701">
        <ele>1958.34</ele>
        <time>2017-06-25T10:00:17Z</time>
      </trkpt>
      <trkpt lat="45.07441" lon="6.26699">
        <ele>1958.34</ele>
        <time>2017-06-25T10:00:20Z</time>
      </trkpt>
      <trkpt lat="45.07445" lon="6.26692">
        <ele>1958.82</ele>
        <time>2017-06-25T10:00:26Z</time>
      </trkpt>
      <trkpt lat="45.07448" lon="6.26685">
        <ele>1959.78</ele>
        <time>2017-06-25T10:00:33Z</time>
      </trkpt>
      <trkpt lat="45.07453" lon="6.26675">
        <ele>1960.75</ele>
        <time>2017-06-25T10:00:43Z</time>
      </trkpt>
      <trkpt lat="45.07454" lon="6.26667">
        <ele>1961.71</ele>
        <time>2017-06-25T10:00:50Z</time>
      </trkpt>
      <trkpt lat="45.07456" lon="6.26655">
        <ele>1963.15</ele>
        <time>2017-06-25T10:00:58Z</time>
      </trkpt>
      <trkpt lat="45.0746" lon="6.26645">
        <ele>1965.07</ele>
        <time>2017-06-25T10:01:06Z</time>
      </trkpt>
      <trkpt lat="45.07463" lon="6.26634">
        <ele>1967.96</ele>
        <time>2017-06-25T10:01:15Z</time>
      </trkpt>
      <trkpt lat="45.07465" lon="6.26625">
        <ele>1969.4</ele>
        <time>2017-06-25T10:01:23Z</time>
      </trkpt>
      <trkpt lat="45.07466" lon="6.26625">
        <ele>1970.36</ele>
        <time>2017-06-25T10:01:32Z</time>
      </trkpt>
      <trkpt lat="45.07468" lon="6.2662">
        <ele>1970.36</ele>
        <time>2017-06-25T10:01:39Z</time>
      </trkpt>
      <trkpt lat="45.07473" lon="6.26603">
        <ele>1971.32</ele>
        <time>2017-06-25T10:01:49Z</time>
      </trkpt>
      <trkpt lat="45.07479" lon="6.26589">
        <ele>1973.24</ele>
        <time>2017-06-25T10:01:58Z</time>
      </trkpt>
      <trkpt lat="45.07487" lon="6.2657">
        <ele>1973.24</ele>
        <time>2017-06-25T10:02:06Z</time>
      </trkpt>
      <trkpt lat="45.07495" lon="6.26553">
        <ele>1972.76</ele>
        <time>2017-06-25T10:02:12Z</time>
      </trkpt>
      <trkpt lat="45.07505" lon="6.26535">
        <ele>1971.8</ele>
        <time>2017-06-25T10:02:20Z</time>
      </trkpt>
      <trkpt lat="45.07506" lon="6.26535">
        <ele>1971.32</ele>
        <time>2017-06-25T10:02:22Z</time>
      </trkpt>
      <trkpt lat="45.07505" lon="6.26532">
        <ele>1973.72</ele>
        <time>2017-06-25T10:02:28Z</time>
      </trkpt>
      <trkpt lat="45.07504" lon="6.26529">
        <ele>1973.72</ele>
        <time>2017-06-25T10:02:35Z</time>
      </trkpt>
      <trkpt lat="45.07506" lon="6.26521">
        <ele>1973.72</ele>
        <time>2017-06-25T10:02:40Z</time>
      </trkpt>
      <trkpt lat="45.07506" lon="6.26515">
        <ele>1973.24</ele>
        <time>2017-06-25T10:02:46Z</time>
      </trkpt>
      <trkpt lat="45.07508" lon="6.26503">
        <ele>1973.72</ele>
        <time>2017-06-25T10:02:54Z</time>
      </trkpt>
      <trkpt lat="45.07509" lon="6.26499">
        <ele>1973.72</ele>
        <time>2017-06-25T10:02:56Z</time>
      </trkpt>
      <trkpt lat="45.07511" lon="6.26493">
        <ele>1973.24</ele>
        <time>2017-06-25T10:03:00Z</time>
      </trkpt>
      <trkpt lat="45.07518" lon="6.26476">
        <ele>1973.24</ele>
        <time>2017-06-25T10:03:11Z</time>
      </trkpt>
      <trkpt lat="45.07522" lon="6.26467">
        <ele>1974.2</ele>
        <time>2017-06-25T10:03:18Z</time>
      </trkpt>
      <trkpt lat="45.07527" lon="6.26461">
        <ele>1973.72</ele>
        <time>2017-06-25T10:03:23Z</time>
      </trkpt>
      <trkpt lat="45.07535" lon="6.2645">
        <ele>1975.17</ele>
        <time>2017-06-25T10:03:33Z</time>
      </trkpt>
      <trkpt lat="45.0754" lon="6.26443">
        <ele>1976.61</ele>
        <time>2017-06-25T10:03:40Z</time>
      </trkpt>
      <trkpt lat="45.0754" lon="6.26442">
        <ele>1979.01</ele>
        <time>2017-06-25T10:03:48Z</time>
      </trkpt>
      <trkpt lat="45.07543" lon="6.26441">
        <ele>1979.01</ele>
        <time>2017-06-25T10:03:52Z</time>
      </trkpt>
      <trkpt lat="45.07546" lon="6.26435">
        <ele>1979.49</ele>
        <time>2017-06-25T10:03:56Z</time>
      </trkpt>
      <trkpt lat="45.07554" lon="6.26422">
        <ele>1979.97</ele>
        <time>2017-06-25T10:04:05Z</time>
      </trkpt>
      <trkpt lat="45.07562" lon="6.26408">
        <ele>1980.45</ele>
        <time>2017-06-25T10:04:16Z</time>
      </trkpt>
      <trkpt lat="45.07569" lon="6.26394">
        <ele>1980.93</ele>
        <time>2017-06-25T10:04:23Z</time>
      </trkpt>
      <trkpt lat="45.07578" lon="6.26375">
        <ele>1981.41</ele>
        <time>2017-06-25T10:04:31Z</time>
      </trkpt>
      <trkpt lat="45.07587" lon="6.26358">
        <ele>1983.34</ele>
        <time>2017-06-25T10:04:38Z</time>
      </trkpt>
      <trkpt lat="45.07596" lon="6.26345">
        <ele>1984.3</ele>
        <time>2017-06-25T10:04:47Z</time>
      </trkpt>
      <trkpt lat="45.07599" lon="6.26342">
        <ele>1985.26</ele>
        <time>2017-06-25T10:04:58Z</time>
      </trkpt>
      <trkpt lat="45.07615" lon="6.26335">
        <ele>1987.66</ele>
        <time>2017-06-25T10:05:12Z</time>
      </trkpt>
      <trkpt lat="45.07617" lon="6.26335">
        <ele>1988.62</ele>
        <time>2017-06-25T10:05:18Z</time>
      </trkpt>
      <trkpt lat="45.07627" lon="6.26333">
        <ele>1990.07</ele>
        <time>2017-06-25T10:05:26Z</time>
      </trkpt>
      <trkpt lat="45.07632" lon="6.26332">
        <ele>1990.55</ele>
        <time>2017-06-25T10:05:31Z</time>
      </trkpt>
      <trkpt lat="45.07643" lon="6.26325">
        <ele>1991.99</ele>
        <time>2017-06-25T10:05:41Z</time>
      </trkpt>
      <trkpt lat="45.07649" lon="6.26322">
        <ele>1993.91</ele>
        <time>2017-06-25T10:05:49Z</time>
      </trkpt>
      <trkpt lat="45.07651" lon="6.26317">
        <ele>1994.87</ele>
        <time>2017-06-25T10:05:54Z</time>
      </trkpt>
      <trkpt lat="45.07653" lon="6.26314">
        <ele>1995.35</ele>
        <time>2017-06-25T10:05:57Z</time>
      </trkpt>
      <trkpt lat="45.07655" lon="6.26308">
        <ele>1996.32</ele>
        <time>2017-06-25T10:06:03Z</time>
      </trkpt>
      <trkpt lat="45.07652" lon="6.26315">
        <ele>1996.32</ele>
        <time>2017-06-25T10:06:11Z</time>
      </trkpt>
      <trkpt lat="45.07651" lon="6.26316">
        <ele>1996.8</ele>
        <time>2017-06-25T10:06:22Z</time>
      </trkpt>
      <trkpt lat="45.07653" lon="6.26314">
        <ele>1996.32</ele>
        <time>2017-06-25T10:06:30Z</time>
      </trkpt>
      <trkpt lat="45.07655" lon="6.26307">
        <ele>1995.83</ele>
        <time>2017-06-25T10:06:35Z</time>
      </trkpt>
      <trkpt lat="45.07656" lon="6.26293">
        <ele>1998.24</ele>
        <time>2017-06-25T10:06:44Z</time>
      </trkpt>
      <trkpt lat="45.07653" lon="6.2628">
        <ele>2002.08</ele>
        <time>2017-06-25T10:06:52Z</time>
      </trkpt>
      <trkpt lat="45.07651" lon="6.26266">
        <ele>2004.01</ele>
        <time>2017-06-25T10:07:00Z</time>
      </trkpt>
      <trkpt lat="45.07646" lon="6.2625">
        <ele>2005.45</ele>
        <time>2017-06-25T10:07:10Z</time>
      </trkpt>
      <trkpt lat="45.07641" lon="6.26239">
        <ele>2006.89</ele>
        <time>2017-06-25T10:07:18Z</time>
      </trkpt>
      <trkpt lat="45.07638" lon="6.26227">
        <ele>2008.33</ele>
        <time>2017-06-25T10:07:26Z</time>
      </trkpt>
      <trkpt lat="45.07636" lon="6.26216">
        <ele>2008.81</ele>
        <time>2017-06-25T10:07:34Z</time>
      </trkpt>
      <trkpt lat="45.07636" lon="6.26215">
        <ele>2008.81</ele>
        <time>2017-06-25T10:07:42Z</time>
      </trkpt>
      <trkpt lat="45.07634" lon="6.26213">
        <ele>2009.29</ele>
        <time>2017-06-25T10:07:49Z</time>
      </trkpt>
      <trkpt lat="45.07634" lon="6.26213">
        <ele>2009.77</ele>
        <time>2017-06-25T10:08:01Z</time>
      </trkpt>
      <trkpt lat="45.0763" lon="6.2621">
        <ele>2009.77</ele>
        <time>2017-06-25T10:08:08Z</time>
      </trkpt>
      <trkpt lat="45.0763" lon="6.26209">
        <ele>2009.77</ele>
        <time>2017-06-25T10:08:11Z</time>
      </trkpt>
      <trkpt lat="45.07624" lon="6.26213">
        <ele>2010.25</ele>
        <time>2017-06-25T10:08:17Z</time>
      </trkpt>
      <trkpt lat="45.07613" lon="6.26216">
        <ele>2011.22</ele>
        <time>2017-06-25T10:08:23Z</time>
      </trkpt>
      <trkpt lat="45.07596" lon="6.26226">
        <ele>2010.25</ele>
        <time>2017-06-25T10:08:31Z</time>
      </trkpt>
      <trkpt lat="45.0759" lon="6.26226">
        <ele>2011.22</ele>
        <time>2017-06-25T10:08:37Z</time>
      </trkpt>
      <trkpt lat="45.07581" lon="6.26221">
        <ele>2012.18</ele>
        <time>2017-06-25T10:08:46Z</time>
      </trkpt>
      <trkpt lat="45.07577" lon="6.26215">
        <ele>2013.62</ele>
        <time>2017-06-25T10:08:54Z</time>
      </trkpt>
      <trkpt lat="45.07571" lon="6.26211">
        <ele>2014.58</ele>
        <time>2017-06-25T10:09:01Z</time>
      </trkpt>
      <trkpt lat="45.07563" lon="6.26209">
        <ele>2016.02</ele>
        <time>2017-06-25T10:09:09Z</time>
      </trkpt>
      <trkpt lat="45.07553" lon="6.26209">
        <ele>2017.94</ele>
        <time>2017-06-25T10:09:17Z</time>
      </trkpt>
      <trkpt lat="45.07545" lon="6.26209">
        <ele>2019.87</ele>
        <time>2017-06-25T10:09:25Z</time>
      </trkpt>
      <trkpt lat="45.07534" lon="6.26211">
        <ele>2021.31</ele>
        <time>2017-06-25T10:09:34Z</time>
      </trkpt>
      <trkpt lat="45.07521" lon="6.26213">
        <ele>2022.27</ele>
        <time>2017-06-25T10:09:45Z</time>
      </trkpt>
      <trkpt lat="45.07517" lon="6.26212">
        <ele>2022.27</ele>
        <time>2017-06-25T10:09:49Z</time>
      </trkpt>
      <trkpt lat="45.07511" lon="6.26203">
        <ele>2022.75</ele>
        <time>2017-06-25T10:09:58Z</time>
      </trkpt>
      <trkpt lat="45.07512" lon="6.26198">
        <ele>2022.75</ele>
        <time>2017-06-25T10:10:02Z</time>
      </trkpt>
      <trkpt lat="45.07513" lon="6.26191">
        <ele>2023.23</ele>
        <time>2017-06-25T10:10:06Z</time>
      </trkpt>
      <trkpt lat="45.07517" lon="6.26181">
        <ele>2024.19</ele>
        <time>2017-06-25T10:10:16Z</time>
      </trkpt>
      <trkpt lat="45.07519" lon="6.26177">
        <ele>2024.19</ele>
        <time>2017-06-25T10:10:24Z</time>
      </trkpt>
      <trkpt lat="45.07524" lon="6.26164">
        <ele>2025.64</ele>
        <time>2017-06-25T10:10:33Z</time>
      </trkpt>
      <trkpt lat="45.07528" lon="6.26154">
        <ele>2027.56</ele>
        <time>2017-06-25T10:10:40Z</time>
      </trkpt>
      <trkpt lat="45.07534" lon="6.26141">
        <ele>2029.48</ele>
        <time>2017-06-25T10:10:49Z</time>
      </trkpt>
      <trkpt lat="45.07535" lon="6.26137">
        <ele>2029.48</ele>
        <time>2017-06-25T10:10:57Z</time>
      </trkpt>
      <trkpt lat="45.07533" lon="6.26135">
        <ele>2031.4</ele>
        <time>2017-06-25T10:11:05Z</time>
      </trkpt>
      <trkpt lat="45.07531" lon="6.26136">
        <ele>2031.88</ele>
        <time>2017-06-25T10:11:12Z</time>
      </trkpt>
      <trkpt lat="45.07531" lon="6.26136">
        <ele>2031.88</ele>
        <time>2017-06-25T10:11:29Z</time>
      </trkpt>
      <trkpt lat="45.07531" lon="6.26136">
        <ele>2031.4</ele>
        <time>2017-06-25T10:11:45Z</time>
      </trkpt>
      <trkpt lat="45.07531" lon="6.26132">
        <ele>2030.92</ele>
        <time>2017-06-25T10:11:54Z</time>
      </trkpt>
      <trkpt lat="45.07534" lon="6.26127">
        <ele>2030.92</ele>
        <time>2017-06-25T10:11:58Z</time>
      </trkpt>
      <trkpt lat="45.07532" lon="6.26111">
        <ele>2033.33</ele>
        <time>2017-06-25T10:12:08Z</time>
      </trkpt>
      <trkpt lat="45.07531" lon="6.26101">
        <ele>2035.25</ele>
        <time>2017-06-25T10:12:15Z</time>
      </trkpt>
      <trkpt lat="45.07529" lon="6.26089">
        <ele>2037.17</ele>
        <time>2017-06-25T10:12:25Z</time>
      </trkpt>
      <trkpt lat="45.07528" lon="6.2608">
        <ele>2041.02</ele>
        <time>2017-06-25T10:12:33Z</time>
      </trkpt>
      <trkpt lat="45.07527" lon="6.2607">
        <ele>2043.42</ele>
        <time>2017-06-25T10:12:40Z</time>
      </trkpt>
      <trkpt lat="45.07517" lon="6.26061">
        <ele>2044.86</ele>
        <time>2017-06-25T10:12:50Z</time>
      </trkpt>
      <trkpt lat="45.07514" lon="6.26048">
        <ele>2046.3</ele>
        <time>2017-06-25T10:12:59Z</time>
      </trkpt>
      <trkpt lat="45.07516" lon="6.26035">
        <ele>2048.71</ele>
        <time>2017-06-25T10:13:08Z</time>
      </trkpt>
      <trkpt lat="45.07519" lon="6.26022">
        <ele>2050.15</ele>
        <time>2017-06-25T10:13:18Z</time>
      </trkpt>
      <trkpt lat="45.07521" lon="6.26013">
        <ele>2052.07</ele>
        <time>2017-06-25T10:13:26Z</time>
      </trkpt>
      <trkpt lat="45.0752" lon="6.26009">
        <ele>2052.55</ele>
        <time>2017-06-25T10:13:30Z</time>
      </trkpt>
      <trkpt lat="45.07519" lon="6.26007">
        <ele>2053.03</ele>
        <time>2017-06-25T10:13:32Z</time>
      </trkpt>
      <trkpt lat="45.07513" lon="6.25999">
        <ele>2053.99</ele>
        <time>2017-06-25T10:13:42Z</time>
      </trkpt>
      <trkpt lat="45.07507" lon="6.25993">
        <ele>2056.88</ele>
        <time>2017-06-25T10:13:52Z</time>
      </trkpt>
      <trkpt lat="45.07503" lon="6.25989">
        <ele>2059.28</ele>
        <time>2017-06-25T10:14:00Z</time>
      </trkpt>
      <trkpt lat="45.07496" lon="6.25986">
        <ele>2061.68</ele>
        <time>2017-06-25T10:14:10Z</time>
      </trkpt>
      <trkpt lat="45.0749" lon="6.25982">
        <ele>2064.09</ele>
        <time>2017-06-25T10:14:19Z</time>
      </trkpt>
      <trkpt lat="45.07484" lon="6.25981">
        <ele>2065.53</ele>
        <time>2017-06-25T10:14:27Z</time>
      </trkpt>
      <trkpt lat="45.07476" lon="6.25987">
        <ele>2067.45</ele>
        <time>2017-06-25T10:14:36Z</time>
      </trkpt>
      <trkpt lat="45.07469" lon="6.25991">
        <ele>2070.34</ele>
        <time>2017-06-25T10:14:44Z</time>
      </trkpt>
      <trkpt lat="45.07459" lon="6.25997">
        <ele>2070.82</ele>
        <time>2017-06-25T10:14:54Z</time>
      </trkpt>
      <trkpt lat="45.07449" lon="6.26003">
        <ele>2072.74</ele>
        <time>2017-06-25T10:15:05Z</time>
      </trkpt>
      <trkpt lat="45.0745" lon="6.26004">
        <ele>2071.78</ele>
        <time>2017-06-25T10:15:12Z</time>
      </trkpt>
      <trkpt lat="45.07447" lon="6.26003">
        <ele>2072.26</ele>
        <time>2017-06-25T10:15:20Z</time>
      </trkpt>
      <trkpt lat="45.07441" lon="6.26011">
        <ele>2074.18</ele>
        <time>2017-06-25T10:15:28Z</time>
      </trkpt>
      <trkpt lat="45.07441" lon="6.26013">
        <ele>2074.66</ele>
        <time>2017-06-25T10:15:34Z</time>
      </trkpt>
      <trkpt lat="45.0744" lon="6.26013">
        <ele>2074.66</ele>
        <time>2017-06-25T10:15:48Z</time>
      </trkpt>
      <trkpt lat="45.07428" lon="6.26022">
        <ele>2076.1</ele>
        <time>2017-06-25T10:15:56Z</time>
      </trkpt>
      <trkpt lat="45.07416" lon="6.26032">
        <ele>2078.03</ele>
        <time>2017-06-25T10:16:04Z</time>
      </trkpt>
      <trkpt lat="45.07409" lon="6.26043">
        <ele>2078.99</ele>
        <time>2017-06-25T10:16:10Z</time>
      </trkpt>
      <trkpt lat="45.07409" lon="6.26045">
        <ele>2078.99</ele>
        <time>2017-06-25T10:16:26Z</time>
      </trkpt>
      <trkpt lat="45.07408" lon="6.26045">
        <ele>2078.99</ele>
        <time>2017-06-25T10:16:36Z</time>
      </trkpt>
      <trkpt lat="45.07407" lon="6.26044">
        <ele>2078.99</ele>
        <time>2017-06-25T10:16:38Z</time>
      </trkpt>
      <trkpt lat="45.07397" lon="6.26045">
        <ele>2083.31</ele>
        <time>2017-06-25T10:16:47Z</time>
      </trkpt>
      <trkpt lat="45.07393" lon="6.26046">
        <ele>2085.24</ele>
        <time>2017-06-25T10:16:56Z</time>
      </trkpt>
      <trkpt lat="45.07393" lon="6.26046">
        <ele>2084.76</ele>
        <time>2017-06-25T10:17:13Z</time>
      </trkpt>
      <trkpt lat="45.07393" lon="6.26047">
        <ele>2084.76</ele>
        <time>2017-06-25T10:17:28Z</time>
      </trkpt>
      <trkpt lat="45.07392" lon="6.26047">
        <ele>2084.76</ele>
        <time>2017-06-25T10:17:40Z</time>
      </trkpt>
      <trkpt lat="45.07386" lon="6.26052">
        <ele>2086.2</ele>
        <time>2017-06-25T10:17:47Z</time>
      </trkpt>
      <trkpt lat="45.07386" lon="6.26052">
        <ele>2085.72</ele>
        <time>2017-06-25T10:17:58Z</time>
      </trkpt>
      <trkpt lat="45.07385" lon="6.26052">
        <ele>2085.24</ele>
        <time>2017-06-25T10:18:11Z</time>
      </trkpt>
      <trkpt lat="45.07385" lon="6.26052">
        <ele>2085.24</ele>
        <time>2017-06-25T10:18:14Z</time>
      </trkpt>
      <trkpt lat="45.07381" lon="6.26053">
        <ele>2085.72</ele>
        <time>2017-06-25T10:18:21Z</time>
      </trkpt>
      <trkpt lat="45.07374" lon="6.26054">
        <ele>2088.12</ele>
        <time>2017-06-25T10:18:30Z</time>
      </trkpt>
      <trkpt lat="45.07368" lon="6.26056">
        <ele>2090.04</ele>
        <time>2017-06-25T10:18:37Z</time>
      </trkpt>
      <trkpt lat="45.07359" lon="6.26059">
        <ele>2091.97</ele>
        <time>2017-06-25T10:18:48Z</time>
      </trkpt>
      <trkpt lat="45.07355" lon="6.2606">
        <ele>2093.41</ele>
        <time>2017-06-25T10:18:55Z</time>
      </trkpt>
      <trkpt lat="45.07353" lon="6.26061">
        <ele>2093.41</ele>
        <time>2017-06-25T10:19:00Z</time>
      </trkpt>
      <trkpt lat="45.07353" lon="6.26062">
        <ele>2093.41</ele>
        <time>2017-06-25T10:19:11Z</time>
      </trkpt>
      <trkpt lat="45.07352" lon="6.26064">
        <ele>2093.89</ele>
        <time>2017-06-25T10:19:25Z</time>
      </trkpt>
      <trkpt lat="45.07352" lon="6.26067">
        <ele>2093.89</ele>
        <time>2017-06-25T10:19:32Z</time>
      </trkpt>
      <trkpt lat="45.07353" lon="6.26066">
        <ele>2094.85</ele>
        <time>2017-06-25T10:19:41Z</time>
      </trkpt>
      <trkpt lat="45.07353" lon="6.26066">
        <ele>2095.81</ele>
        <time>2017-06-25T10:19:58Z</time>
      </trkpt>
      <trkpt lat="45.07353" lon="6.26066">
        <ele>2095.81</ele>
        <time>2017-06-25T10:20:09Z</time>
      </trkpt>
      <trkpt lat="45.07353" lon="6.26059">
        <ele>2096.77</ele>
        <time>2017-06-25T10:20:15Z</time>
      </trkpt>
      <trkpt lat="45.07344" lon="6.26057">
        <ele>2099.18</ele>
        <time>2017-06-25T10:20:25Z</time>
      </trkpt>
      <trkpt lat="45.07342" lon="6.26056">
        <ele>2099.66</ele>
        <time>2017-06-25T10:20:31Z</time>
      </trkpt>
      <trkpt lat="45.07336" lon="6.26052">
        <ele>2101.1</ele>
        <time>2017-06-25T10:20:39Z</time>
      </trkpt>
      <trkpt lat="45.07327" lon="6.26053">
        <ele>2102.06</ele>
        <time>2017-06-25T10:20:48Z</time>
      </trkpt>
      <trkpt lat="45.07317" lon="6.26052">
        <ele>2103.5</ele>
        <time>2017-06-25T10:20:58Z</time>
      </trkpt>
      <trkpt lat="45.07309" lon="6.26053">
        <ele>2104.94</ele>
        <time>2017-06-25T10:21:08Z</time>
      </trkpt>
      <trkpt lat="45.07308" lon="6.26052">
        <ele>2105.42</ele>
        <time>2017-06-25T10:21:14Z</time>
      </trkpt>
      <trkpt lat="45.07309" lon="6.26051">
        <ele>2104.94</ele>
        <time>2017-06-25T10:21:30Z</time>
      </trkpt>
      <trkpt lat="45.07309" lon="6.26051">
        <ele>2104.94</ele>
        <time>2017-06-25T10:21:48Z</time>
      </trkpt>
      <trkpt lat="45.07309" lon="6.26052">
        <ele>2104.46</ele>
        <time>2017-06-25T10:22:00Z</time>
      </trkpt>
      <trkpt lat="45.07308" lon="6.26052">
        <ele>2104.46</ele>
        <time>2017-06-25T10:22:04Z</time>
      </trkpt>
      <trkpt lat="45.07302" lon="6.26051">
        <ele>2104.46</ele>
        <time>2017-06-25T10:22:11Z</time>
      </trkpt>
      <trkpt lat="45.07298" lon="6.26048">
        <ele>2108.31</ele>
        <time>2017-06-25T10:22:20Z</time>
      </trkpt>
      <trkpt lat="45.07292" lon="6.26044">
        <ele>2111.19</ele>
        <time>2017-06-25T10:22:29Z</time>
      </trkpt>
      <trkpt lat="45.0729" lon="6.26044">
        <ele>2111.67</ele>
        <time>2017-06-25T10:22:36Z</time>
      </trkpt>
      <trkpt lat="45.07284" lon="6.26044">
        <ele>2112.15</ele>
        <time>2017-06-25T10:22:41Z</time>
      </trkpt>
      <trkpt lat="45.07276" lon="6.26042">
        <ele>2114.08</ele>
        <time>2017-06-25T10:22:50Z</time>
      </trkpt>
      <trkpt lat="45.07274" lon="6.26039">
        <ele>2114.08</ele>
        <time>2017-06-25T10:22:54Z</time>
      </trkpt>
      <trkpt lat="45.07272" lon="6.26036">
        <ele>2113.6</ele>
        <time>2017-06-25T10:23:01Z</time>
      </trkpt>
      <trkpt lat="45.07271" lon="6.26036">
        <ele>2113.12</ele>
        <time>2017-06-25T10:23:10Z</time>
      </trkpt>
      <trkpt lat="45.07267" lon="6.26036">
        <ele>2114.56</ele>
        <time>2017-06-25T10:23:17Z</time>
      </trkpt>
      <trkpt lat="45.07261" lon="6.26031">
        <ele>2116</ele>
        <time>2017-06-25T10:23:24Z</time>
      </trkpt>
      <trkpt lat="45.07252" lon="6.26027">
        <ele>2117.44</ele>
        <time>2017-06-25T10:23:33Z</time>
      </trkpt>
      <trkpt lat="45.07243" lon="6.26021">
        <ele>2118.88</ele>
        <time>2017-06-25T10:23:44Z</time>
      </trkpt>
      <trkpt lat="45.07233" lon="6.26022">
        <ele>2121.29</ele>
        <time>2017-06-25T10:23:53Z</time>
      </trkpt>
      <trkpt lat="45.0723" lon="6.26024">
        <ele>2122.73</ele>
        <time>2017-06-25T10:24:00Z</time>
      </trkpt>
      <trkpt lat="45.07224" lon="6.26025">
        <ele>2124.17</ele>
        <time>2017-06-25T10:24:07Z</time>
      </trkpt>
      <trkpt lat="45.07216" lon="6.26028">
        <ele>2126.57</ele>
        <time>2017-06-25T10:24:15Z</time>
      </trkpt>
      <trkpt lat="45.07208" lon="6.26031">
        <ele>2129.46</ele>
        <time>2017-06-25T10:24:24Z</time>
      </trkpt>
      <trkpt lat="45.07203" lon="6.26034">
        <ele>2131.38</ele>
        <time>2017-06-25T10:24:33Z</time>
      </trkpt>
      <trkpt lat="45.072" lon="6.26032">
        <ele>2132.34</ele>
        <time>2017-06-25T10:24:40Z</time>
      </trkpt>
      <trkpt lat="45.07191" lon="6.26032">
        <ele>2133.3</ele>
        <time>2017-06-25T10:24:49Z</time>
      </trkpt>
      <trkpt lat="45.07184" lon="6.26035">
        <ele>2134.26</ele>
        <time>2017-06-25T10:24:57Z</time>
      </trkpt>
      <trkpt lat="45.07177" lon="6.26033">
        <ele>2136.67</ele>
        <time>2017-06-25T10:25:07Z</time>
      </trkpt>
      <trkpt lat="45.07168" lon="6.26032">
        <ele>2139.07</ele>
        <time>2017-06-25T10:25:18Z</time>
      </trkpt>
      <trkpt lat="45.07163" lon="6.26031">
        <ele>2140.03</ele>
        <time>2017-06-25T10:25:26Z</time>
      </trkpt>
      <trkpt lat="45.07158" lon="6.26026">
        <ele>2141.47</ele>
        <time>2017-06-25T10:25:33Z</time>
      </trkpt>
      <trkpt lat="45.07155" lon="6.26024">
        <ele>2142.92</ele>
        <time>2017-06-25T10:25:39Z</time>
      </trkpt>
      <trkpt lat="45.07154" lon="6.2602">
        <ele>2144.84</ele>
        <time>2017-06-25T10:25:45Z</time>
      </trkpt>
      <trkpt lat="45.07151" lon="6.26012">
        <ele>2144.84</ele>
        <time>2017-06-25T10:25:52Z</time>
      </trkpt>
      <trkpt lat="45.07148" lon="6.26008">
        <ele>2145.8</ele>
        <time>2017-06-25T10:25:58Z</time>
      </trkpt>
      <trkpt lat="45.07147" lon="6.26005">
        <ele>2146.28</ele>
        <time>2017-06-25T10:26:00Z</time>
      </trkpt>
      <trkpt lat="45.07143" lon="6.25992">
        <ele>2147.24</ele>
        <time>2017-06-25T10:26:09Z</time>
      </trkpt>
      <trkpt lat="45.07139" lon="6.25981">
        <ele>2148.68</ele>
        <time>2017-06-25T10:26:18Z</time>
      </trkpt>
      <trkpt lat="45.07136" lon="6.25972">
        <ele>2151.09</ele>
        <time>2017-06-25T10:26:26Z</time>
      </trkpt>
      <trkpt lat="45.07131" lon="6.25963">
        <ele>2152.53</ele>
        <time>2017-06-25T10:26:35Z</time>
      </trkpt>
      <trkpt lat="45.07132" lon="6.2596">
        <ele>2153.01</ele>
        <time>2017-06-25T10:26:40Z</time>
      </trkpt>
      <trkpt lat="45.07134" lon="6.2595">
        <ele>2154.45</ele>
        <time>2017-06-25T10:26:48Z</time>
      </trkpt>
      <trkpt lat="45.07134" lon="6.25944">
        <ele>2154.93</ele>
        <time>2017-06-25T10:26:55Z</time>
      </trkpt>
      <trkpt lat="45.07135" lon="6.2594">
        <ele>2155.41</ele>
        <time>2017-06-25T10:27:01Z</time>
      </trkpt>
      <trkpt lat="45.07135" lon="6.25939">
        <ele>2155.41</ele>
        <time>2017-06-25T10:27:02Z</time>
      </trkpt>
      <trkpt lat="45.07139" lon="6.25924">
        <ele>2157.82</ele>
        <time>2017-06-25T10:27:12Z</time>
      </trkpt>
      <trkpt lat="45.07142" lon="6.25912">
        <ele>2159.74</ele>
        <time>2017-06-25T10:27:21Z</time>
      </trkpt>
      <trkpt lat="45.07144" lon="6.25906">
        <ele>2160.7</ele>
        <time>2017-06-25T10:27:26Z</time>
      </trkpt>
      <trkpt lat="45.07153" lon="6.25892">
        <ele>2162.14</ele>
        <time>2017-06-25T10:27:37Z</time>
      </trkpt>
      <trkpt lat="45.0716" lon="6.25882">
        <ele>2163.58</ele>
        <time>2017-06-25T10:27:46Z</time>
      </trkpt>
      <trkpt lat="45.07162" lon="6.25878">
        <ele>2164.55</ele>
        <time>2017-06-25T10:27:52Z</time>
      </trkpt>
      <trkpt lat="45.07164" lon="6.25872">
        <ele>2164.55</ele>
        <time>2017-06-25T10:27:59Z</time>
      </trkpt>
      <trkpt lat="45.07171" lon="6.2586">
        <ele>2165.51</ele>
        <time>2017-06-25T10:28:08Z</time>
      </trkpt>
      <trkpt lat="45.07174" lon="6.2585">
        <ele>2166.47</ele>
        <time>2017-06-25T10:28:17Z</time>
      </trkpt>
      <trkpt lat="45.07176" lon="6.25849">
        <ele>2166.95</ele>
        <time>2017-06-25T10:28:24Z</time>
      </trkpt>
      <trkpt lat="45.07179" lon="6.25841">
        <ele>2167.91</ele>
        <time>2017-06-25T10:28:31Z</time>
      </trkpt>
      <trkpt lat="45.07184" lon="6.25831">
        <ele>2170.31</ele>
        <time>2017-06-25T10:28:40Z</time>
      </trkpt>
      <trkpt lat="45.07187" lon="6.25828">
        <ele>2170.79</ele>
        <time>2017-06-25T10:28:43Z</time>
      </trkpt>
      <trkpt lat="45.07195" lon="6.2582">
        <ele>2171.76</ele>
        <time>2017-06-25T10:28:52Z</time>
      </trkpt>
      <trkpt lat="45.07197" lon="6.25817">
        <ele>2172.24</ele>
        <time>2017-06-25T10:28:59Z</time>
      </trkpt>
      <trkpt lat="45.07197" lon="6.25817">
        <ele>2172.24</ele>
        <time>2017-06-25T10:29:12Z</time>
      </trkpt>
      <trkpt lat="45.07198" lon="6.25814">
        <ele>2172.24</ele>
        <time>2017-06-25T10:29:18Z</time>
      </trkpt>
      <trkpt lat="45.07204" lon="6.25797">
        <ele>2174.16</ele>
        <time>2017-06-25T10:29:30Z</time>
      </trkpt>
      <trkpt lat="45.07205" lon="6.25793">
        <ele>2174.16</ele>
        <time>2017-06-25T10:29:33Z</time>
      </trkpt>
      <trkpt lat="45.07202" lon="6.25789">
        <ele>2174.64</ele>
        <time>2017-06-25T10:29:38Z</time>
      </trkpt>
      <trkpt lat="45.07201" lon="6.25776">
        <ele>2175.6</ele>
        <time>2017-06-25T10:29:46Z</time>
      </trkpt>
      <trkpt lat="45.07201" lon="6.2576">
        <ele>2177.52</ele>
        <time>2017-06-25T10:29:57Z</time>
      </trkpt>
      <trkpt lat="45.07199" lon="6.25754">
        <ele>2178.97</ele>
        <time>2017-06-25T10:30:04Z</time>
      </trkpt>
      <trkpt lat="45.07199" lon="6.25752">
        <ele>2178.97</ele>
        <time>2017-06-25T10:30:05Z</time>
      </trkpt>
      <trkpt lat="45.07201" lon="6.25739">
        <ele>2180.89</ele>
        <time>2017-06-25T10:30:15Z</time>
      </trkpt>
      <trkpt lat="45.07202" lon="6.25729">
        <ele>2181.85</ele>
        <time>2017-06-25T10:30:23Z</time>
      </trkpt>
      <trkpt lat="45.07207" lon="6.25718">
        <ele>2183.29</ele>
        <time>2017-06-25T10:30:32Z</time>
      </trkpt>
      <trkpt lat="45.07209" lon="6.25709">
        <ele>2184.25</ele>
        <time>2017-06-25T10:30:39Z</time>
      </trkpt>
      <trkpt lat="45.07212" lon="6.25702">
        <ele>2185.69</ele>
        <time>2017-06-25T10:30:46Z</time>
      </trkpt>
      <trkpt lat="45.07212" lon="6.25695">
        <ele>2186.18</ele>
        <time>2017-06-25T10:30:52Z</time>
      </trkpt>
      <trkpt lat="45.07208" lon="6.25692">
        <ele>2187.14</ele>
        <time>2017-06-25T10:30:59Z</time>
      </trkpt>
      <trkpt lat="45.07203" lon="6.2569">
        <ele>2190.02</ele>
        <time>2017-06-25T10:31:07Z</time>
      </trkpt>
      <trkpt lat="45.07196" lon="6.25688">
        <ele>2192.9</ele>
        <time>2017-06-25T10:31:17Z</time>
      </trkpt>
      <trkpt lat="45.07192" lon="6.25687">
        <ele>2194.83</ele>
        <time>2017-06-25T10:31:22Z</time>
      </trkpt>
      <trkpt lat="45.07183" lon="6.25688">
        <ele>2196.75</ele>
        <time>2017-06-25T10:31:31Z</time>
      </trkpt>
      <trkpt lat="45.07181" lon="6.25683">
        <ele>2197.23</ele>
        <time>2017-06-25T10:31:37Z</time>
      </trkpt>
      <trkpt lat="45.07183" lon="6.2568">
        <ele>2196.75</ele>
        <time>2017-06-25T10:31:46Z</time>
      </trkpt>
      <trkpt lat="45.07183" lon="6.25679">
        <ele>2197.23</ele>
        <time>2017-06-25T10:31:51Z</time>
      </trkpt>
      <trkpt lat="45.07182" lon="6.25675">
        <ele>2198.19</ele>
        <time>2017-06-25T10:31:58Z</time>
      </trkpt>
      <trkpt lat="45.07182" lon="6.25668">
        <ele>2198.19</ele>
        <time>2017-06-25T10:32:04Z</time>
      </trkpt>
      <trkpt lat="45.07186" lon="6.25655">
        <ele>2199.15</ele>
        <time>2017-06-25T10:32:14Z</time>
      </trkpt>
      <trkpt lat="45.07187" lon="6.25651">
        <ele>2199.63</ele>
        <time>2017-06-25T10:32:17Z</time>
      </trkpt>
      <trkpt lat="45.0719" lon="6.25647">
        <ele>2201.08</ele>
        <time>2017-06-25T10:32:21Z</time>
      </trkpt>
      <trkpt lat="45.0719" lon="6.25644">
        <ele>2202.04</ele>
        <time>2017-06-25T10:32:23Z</time>
      </trkpt>
      <trkpt lat="45.07192" lon="6.25642">
        <ele>2203</ele>
        <time>2017-06-25T10:32:26Z</time>
      </trkpt>
      <trkpt lat="45.07196" lon="6.2563">
        <ele>2208.77</ele>
        <time>2017-06-25T10:32:37Z</time>
      </trkpt>
      <trkpt lat="45.07198" lon="6.25625">
        <ele>2212.13</ele>
        <time>2017-06-25T10:32:43Z</time>
      </trkpt>
      <trkpt lat="45.07213" lon="6.25648">
        <ele>2222.22</ele>
        <time>2017-06-25T10:33:01Z</time>
      </trkpt>
      <trkpt lat="45.07204" lon="6.25631">
        <ele>2215.5</ele>
        <time>2017-06-25T10:33:02Z</time>
      </trkpt>
      <trkpt lat="45.07208" lon="6.25599">
        <ele>2219.34</ele>
        <time>2017-06-25T10:33:12Z</time>
      </trkpt>
      <trkpt lat="45.07211" lon="6.25588">
        <ele>2218.38</ele>
        <time>2017-06-25T10:33:21Z</time>
      </trkpt>
      <trkpt lat="45.07212" lon="6.2558">
        <ele>2218.38</ele>
        <time>2017-06-25T10:33:29Z</time>
      </trkpt>
      <trkpt lat="45.07213" lon="6.25575">
        <ele>2219.34</ele>
        <time>2017-06-25T10:33:33Z</time>
      </trkpt>
      <trkpt lat="45.0721" lon="6.25571">
        <ele>2219.82</ele>
        <time>2017-06-25T10:33:40Z</time>
      </trkpt>
      <trkpt lat="45.07206" lon="6.25563">
        <ele>2221.74</ele>
        <time>2017-06-25T10:33:50Z</time>
      </trkpt>
      <trkpt lat="45.072" lon="6.25556">
        <ele>2224.15</ele>
        <time>2017-06-25T10:34:00Z</time>
      </trkpt>
      <trkpt lat="45.07196" lon="6.25549">
        <ele>2225.59</ele>
        <time>2017-06-25T10:34:09Z</time>
      </trkpt>
      <trkpt lat="45.07197" lon="6.25548">
        <ele>2224.63</ele>
        <time>2017-06-25T10:34:17Z</time>
      </trkpt>
      <trkpt lat="45.07193" lon="6.25541">
        <ele>2227.03</ele>
        <time>2017-06-25T10:34:25Z</time>
      </trkpt>
      <trkpt lat="45.0719" lon="6.25537">
        <ele>2228.95</ele>
        <time>2017-06-25T10:34:32Z</time>
      </trkpt>
      <trkpt lat="45.07185" lon="6.25533">
        <ele>2230.88</ele>
        <time>2017-06-25T10:34:41Z</time>
      </trkpt>
      <trkpt lat="45.0718" lon="6.25529">
        <ele>2232.32</ele>
        <time>2017-06-25T10:34:49Z</time>
      </trkpt>
      <trkpt lat="45.07178" lon="6.25528">
        <ele>2232.8</ele>
        <time>2017-06-25T10:34:53Z</time>
      </trkpt>
      <trkpt lat="45.07167" lon="6.25526">
        <ele>2235.2</ele>
        <time>2017-06-25T10:35:04Z</time>
      </trkpt>
      <trkpt lat="45.07162" lon="6.2553">
        <ele>2237.13</ele>
        <time>2017-06-25T10:35:12Z</time>
      </trkpt>
      <trkpt lat="45.07158" lon="6.25531">
        <ele>2238.09</ele>
        <time>2017-06-25T10:35:16Z</time>
      </trkpt>
      <trkpt lat="45.07154" lon="6.2553">
        <ele>2239.53</ele>
        <time>2017-06-25T10:35:25Z</time>
      </trkpt>
      <trkpt lat="45.0715" lon="6.2553">
        <ele>2240.01</ele>
        <time>2017-06-25T10:35:32Z</time>
      </trkpt>
      <trkpt lat="45.07148" lon="6.25527">
        <ele>2240.49</ele>
        <time>2017-06-25T10:35:35Z</time>
      </trkpt>
      <trkpt lat="45.07146" lon="6.25526">
        <ele>2240.01</ele>
        <time>2017-06-25T10:35:37Z</time>
      </trkpt>
      <trkpt lat="45.07135" lon="6.25526">
        <ele>2241.45</ele>
        <time>2017-06-25T10:35:47Z</time>
      </trkpt>
      <trkpt lat="45.07127" lon="6.25524">
        <ele>2243.85</ele>
        <time>2017-06-25T10:35:56Z</time>
      </trkpt>
      <trkpt lat="45.07122" lon="6.2552">
        <ele>2244.82</ele>
        <time>2017-06-25T10:36:04Z</time>
      </trkpt>
      <trkpt lat="45.07115" lon="6.25516">
        <ele>2247.22</ele>
        <time>2017-06-25T10:36:14Z</time>
      </trkpt>
      <trkpt lat="45.07112" lon="6.25515">
        <ele>2247.7</ele>
        <time>2017-06-25T10:36:24Z</time>
      </trkpt>
      <trkpt lat="45.07111" lon="6.25514">
        <ele>2248.18</ele>
        <time>2017-06-25T10:36:31Z</time>
      </trkpt>
      <trkpt lat="45.07107" lon="6.25515">
        <ele>2248.66</ele>
        <time>2017-06-25T10:36:41Z</time>
      </trkpt>
      <trkpt lat="45.071" lon="6.25514">
        <ele>2250.58</ele>
        <time>2017-06-25T10:36:49Z</time>
      </trkpt>
      <trkpt lat="45.07097" lon="6.25514">
        <ele>2251.54</ele>
        <time>2017-06-25T10:36:55Z</time>
      </trkpt>
      <trkpt lat="45.07091" lon="6.25514">
        <ele>2251.54</ele>
        <time>2017-06-25T10:37:03Z</time>
      </trkpt>
      <trkpt lat="45.07089" lon="6.25514">
        <ele>2252.03</ele>
        <time>2017-06-25T10:37:05Z</time>
      </trkpt>
      <trkpt lat="45.07078" lon="6.25516">
        <ele>2254.43</ele>
        <time>2017-06-25T10:37:16Z</time>
      </trkpt>
      <trkpt lat="45.07073" lon="6.25519">
        <ele>2255.87</ele>
        <time>2017-06-25T10:37:23Z</time>
      </trkpt>
      <trkpt lat="45.07069" lon="6.25516">
        <ele>2256.35</ele>
        <time>2017-06-25T10:37:27Z</time>
      </trkpt>
      <trkpt lat="45.07061" lon="6.25519">
        <ele>2257.79</ele>
        <time>2017-06-25T10:37:36Z</time>
      </trkpt>
      <trkpt lat="45.07053" lon="6.25523">
        <ele>2260.68</ele>
        <time>2017-06-25T10:37:45Z</time>
      </trkpt>
      <trkpt lat="45.07047" lon="6.25522">
        <ele>2262.12</ele>
        <time>2017-06-25T10:37:53Z</time>
      </trkpt>
      <trkpt lat="45.07046" lon="6.25521">
        <ele>2262.6</ele>
        <time>2017-06-25T10:38:01Z</time>
      </trkpt>
      <trkpt lat="45.07046" lon="6.25521">
        <ele>2264.04</ele>
        <time>2017-06-25T10:38:12Z</time>
      </trkpt>
      <trkpt lat="45.07045" lon="6.25521">
        <ele>2264.52</ele>
        <time>2017-06-25T10:38:21Z</time>
      </trkpt>
      <trkpt lat="45.07039" lon="6.25519">
        <ele>2265.96</ele>
        <time>2017-06-25T10:38:28Z</time>
      </trkpt>
      <trkpt lat="45.07033" lon="6.25518">
        <ele>2268.37</ele>
        <time>2017-06-25T10:38:36Z</time>
      </trkpt>
      <trkpt lat="45.07023" lon="6.25517">
        <ele>2270.77</ele>
        <time>2017-06-25T10:38:48Z</time>
      </trkpt>
      <trkpt lat="45.07017" lon="6.25518">
        <ele>2272.21</ele>
        <time>2017-06-25T10:38:57Z</time>
      </trkpt>
      <trkpt lat="45.07014" lon="6.25518">
        <ele>2272.69</ele>
        <time>2017-06-25T10:39:03Z</time>
      </trkpt>
      <trkpt lat="45.07007" lon="6.25522">
        <ele>2274.62</ele>
        <time>2017-06-25T10:39:12Z</time>
      </trkpt>
      <trkpt lat="45.07003" lon="6.25523">
        <ele>2275.58</ele>
        <time>2017-06-25T10:39:22Z</time>
      </trkpt>
      <trkpt lat="45.07001" lon="6.25524">
        <ele>2276.06</ele>
        <time>2017-06-25T10:39:28Z</time>
      </trkpt>
      <trkpt lat="45.06994" lon="6.25525">
        <ele>2277.98</ele>
        <time>2017-06-25T10:39:37Z</time>
      </trkpt>
      <trkpt lat="45.06993" lon="6.25526">
        <ele>2277.98</ele>
        <time>2017-06-25T10:39:47Z</time>
      </trkpt>
      <trkpt lat="45.06989" lon="6.25527">
        <ele>2278.46</ele>
        <time>2017-06-25T10:39:55Z</time>
      </trkpt>
      <trkpt lat="45.06985" lon="6.25527">
        <ele>2280.38</ele>
        <time>2017-06-25T10:40:02Z</time>
      </trkpt>
      <trkpt lat="45.06978" lon="6.25528">
        <ele>2280.87</ele>
        <time>2017-06-25T10:40:10Z</time>
      </trkpt>
      <trkpt lat="45.06971" lon="6.2553">
        <ele>2281.35</ele>
        <time>2017-06-25T10:40:19Z</time>
      </trkpt>
      <trkpt lat="45.06964" lon="6.25533">
        <ele>2281.83</ele>
        <time>2017-06-25T10:40:27Z</time>
      </trkpt>
      <trkpt lat="45.06961" lon="6.25534">
        <ele>2282.79</ele>
        <time>2017-06-25T10:40:34Z</time>
      </trkpt>
      <trkpt lat="45.06959" lon="6.25534">
        <ele>2283.27</ele>
        <time>2017-06-25T10:40:42Z</time>
      </trkpt>
      <trkpt lat="45.06957" lon="6.25535">
        <ele>2283.27</ele>
        <time>2017-06-25T10:40:44Z</time>
      </trkpt>
      <trkpt lat="45.0695" lon="6.25535">
        <ele>2283.75</ele>
        <time>2017-06-25T10:40:51Z</time>
      </trkpt>
      <trkpt lat="45.0694" lon="6.25535">
        <ele>2286.63</ele>
        <time>2017-06-25T10:41:01Z</time>
      </trkpt>
      <trkpt lat="45.06938" lon="6.25536">
        <ele>2288.08</ele>
        <time>2017-06-25T10:41:04Z</time>
      </trkpt>
      <trkpt lat="45.06932" lon="6.25537">
        <ele>2290.48</ele>
        <time>2017-06-25T10:41:12Z</time>
      </trkpt>
      <trkpt lat="45.06928" lon="6.25541">
        <ele>2292.88</ele>
        <time>2017-06-25T10:41:20Z</time>
      </trkpt>
      <trkpt lat="45.06924" lon="6.25545">
        <ele>2295.28</ele>
        <time>2017-06-25T10:41:28Z</time>
      </trkpt>
      <trkpt lat="45.06925" lon="6.25545">
        <ele>2295.28</ele>
        <time>2017-06-25T10:41:38Z</time>
      </trkpt>
      <trkpt lat="45.06925" lon="6.25546">
        <ele>2295.77</ele>
        <time>2017-06-25T10:41:46Z</time>
      </trkpt>
      <trkpt lat="45.06923" lon="6.25548">
        <ele>2295.77</ele>
        <time>2017-06-25T10:42:00Z</time>
      </trkpt>
      <trkpt lat="45.06917" lon="6.2555">
        <ele>2296.25</ele>
        <time>2017-06-25T10:42:09Z</time>
      </trkpt>
      <trkpt lat="45.0691" lon="6.25553">
        <ele>2297.21</ele>
        <time>2017-06-25T10:42:18Z</time>
      </trkpt>
      <trkpt lat="45.06909" lon="6.25553">
        <ele>2298.17</ele>
        <time>2017-06-25T10:42:23Z</time>
      </trkpt>
      <trkpt lat="45.06908" lon="6.25554">
        <ele>2299.13</ele>
        <time>2017-06-25T10:42:34Z</time>
      </trkpt>
      <trkpt lat="45.069" lon="6.25556">
        <ele>2300.09</ele>
        <time>2017-06-25T10:42:41Z</time>
      </trkpt>
      <trkpt lat="45.06898" lon="6.25557">
        <ele>2300.09</ele>
        <time>2017-06-25T10:42:43Z</time>
      </trkpt>
      <trkpt lat="45.06894" lon="6.25556">
        <ele>2300.09</ele>
        <time>2017-06-25T10:42:47Z</time>
      </trkpt>
      <trkpt lat="45.06886" lon="6.25559">
        <ele>2299.61</ele>
        <time>2017-06-25T10:42:53Z</time>
      </trkpt>
      <trkpt lat="45.06878" lon="6.2556">
        <ele>2299.61</ele>
        <time>2017-06-25T10:43:01Z</time>
      </trkpt>
      <trkpt lat="45.06866" lon="6.2556">
        <ele>2299.61</ele>
        <time>2017-06-25T10:43:10Z</time>
      </trkpt>
      <trkpt lat="45.06863" lon="6.2556">
        <ele>2300.09</ele>
        <time>2017-06-25T10:43:14Z</time>
      </trkpt>
      <trkpt lat="45.06858" lon="6.25558">
        <ele>2302.01</ele>
        <time>2017-06-25T10:43:21Z</time>
      </trkpt>
      <trkpt lat="45.06855" lon="6.25559">
        <ele>2302.98</ele>
        <time>2017-06-25T10:43:30Z</time>
      </trkpt>
      <trkpt lat="45.06848" lon="6.25562">
        <ele>2305.38</ele>
        <time>2017-06-25T10:43:38Z</time>
      </trkpt>
      <trkpt lat="45.06841" lon="6.25565">
        <ele>2305.86</ele>
        <time>2017-06-25T10:43:46Z</time>
      </trkpt>
      <trkpt lat="45.06837" lon="6.25564">
        <ele>2305.86</ele>
        <time>2017-06-25T10:43:52Z</time>
      </trkpt>
      <trkpt lat="45.0683" lon="6.25566">
        <ele>2306.82</ele>
        <time>2017-06-25T10:43:59Z</time>
      </trkpt>
      <trkpt lat="45.06829" lon="6.25566">
        <ele>2308.26</ele>
        <time>2017-06-25T10:44:05Z</time>
      </trkpt>
      <trkpt lat="45.06825" lon="6.25567">
        <ele>2308.74</ele>
        <time>2017-06-25T10:44:13Z</time>
      </trkpt>
      <trkpt lat="45.06825" lon="6.25568">
        <ele>2310.67</ele>
        <time>2017-06-25T10:44:26Z</time>
      </trkpt>
      <trkpt lat="45.0682" lon="6.25569">
        <ele>2310.19</ele>
        <time>2017-06-25T10:44:30Z</time>
      </trkpt>
      <trkpt lat="45.06812" lon="6.25568">
        <ele>2310.19</ele>
        <time>2017-06-25T10:44:36Z</time>
      </trkpt>
      <trkpt lat="45.06802" lon="6.25574">
        <ele>2310.19</ele>
        <time>2017-06-25T10:44:44Z</time>
      </trkpt>
      <trkpt lat="45.06794" lon="6.25578">
        <ele>2308.26</ele>
        <time>2017-06-25T10:44:53Z</time>
      </trkpt>
      <trkpt lat="45.06786" lon="6.25579">
        <ele>2307.78</ele>
        <time>2017-06-25T10:45:01Z</time>
      </trkpt>
      <trkpt lat="45.06781" lon="6.25577">
        <ele>2308.26</ele>
        <time>2017-06-25T10:45:10Z</time>
      </trkpt>
      <trkpt lat="45.06777" lon="6.25577">
        <ele>2310.19</ele>
        <time>2017-06-25T10:45:17Z</time>
      </trkpt>
      <trkpt lat="45.06772" lon="6.25579">
        <ele>2312.11</ele>
        <time>2017-06-25T10:45:25Z</time>
      </trkpt>
      <trkpt lat="45.06766" lon="6.25578">
        <ele>2312.59</ele>
        <time>2017-06-25T10:45:32Z</time>
      </trkpt>
      <trkpt lat="45.06763" lon="6.25576">
        <ele>2312.11</ele>
        <time>2017-06-25T10:45:35Z</time>
      </trkpt>
      <trkpt lat="45.06761" lon="6.25575">
        <ele>2312.59</ele>
        <time>2017-06-25T10:45:37Z</time>
      </trkpt>
      <trkpt lat="45.06759" lon="6.25576">
        <ele>2312.59</ele>
        <time>2017-06-25T10:45:39Z</time>
      </trkpt>
      <trkpt lat="45.06753" lon="6.25575">
        <ele>2313.55</ele>
        <time>2017-06-25T10:45:45Z</time>
      </trkpt>
      <trkpt lat="45.06751" lon="6.25574">
        <ele>2314.03</ele>
        <time>2017-06-25T10:45:48Z</time>
      </trkpt>
      <trkpt lat="45.06745" lon="6.25577">
        <ele>2315.47</ele>
        <time>2017-06-25T10:45:55Z</time>
      </trkpt>
      <trkpt lat="45.06743" lon="6.2558">
        <ele>2316.91</ele>
        <time>2017-06-25T10:46:01Z</time>
      </trkpt>
      <trkpt lat="45.06743" lon="6.25579">
        <ele>2315.95</ele>
        <time>2017-06-25T10:46:16Z</time>
      </trkpt>
      <trkpt lat="45.06744" lon="6.25577">
        <ele>2315.47</ele>
        <time>2017-06-25T10:46:20Z</time>
      </trkpt>
      <trkpt lat="45.06737" lon="6.25573">
        <ele>2316.91</ele>
        <time>2017-06-25T10:46:28Z</time>
      </trkpt>
      <trkpt lat="45.06731" lon="6.25573">
        <ele>2319.32</ele>
        <time>2017-06-25T10:46:36Z</time>
      </trkpt>
      <trkpt lat="45.06723" lon="6.25576">
        <ele>2320.28</ele>
        <time>2017-06-25T10:46:44Z</time>
      </trkpt>
      <trkpt lat="45.06723" lon="6.25576">
        <ele>2322.68</ele>
        <time>2017-06-25T10:46:58Z</time>
      </trkpt>
      <trkpt lat="45.06723" lon="6.25576">
        <ele>2322.68</ele>
        <time>2017-06-25T10:47:11Z</time>
      </trkpt>
      <trkpt lat="45.06723" lon="6.25576">
        <ele>2322.68</ele>
        <time>2017-06-25T10:47:25Z</time>
      </trkpt>
      <trkpt lat="45.06723" lon="6.25576">
        <ele>2323.16</ele>
        <time>2017-06-25T10:47:36Z</time>
      </trkpt>
      <trkpt lat="45.06723" lon="6.25576">
        <ele>2324.12</ele>
        <time>2017-06-25T10:47:49Z</time>
      </trkpt>
      <trkpt lat="45.06724" lon="6.25577">
        <ele>2326.53</ele>
        <time>2017-06-25T10:48:02Z</time>
      </trkpt>
      <trkpt lat="45.06724" lon="6.25577">
        <ele>2325.57</ele>
        <time>2017-06-25T10:48:10Z</time>
      </trkpt>
      <trkpt lat="45.06724" lon="6.25576">
        <ele>2325.57</ele>
        <time>2017-06-25T10:48:21Z</time>
      </trkpt>
      <trkpt lat="45.06725" lon="6.25575">
        <ele>2323.64</ele>
        <time>2017-06-25T10:48:36Z</time>
      </trkpt>
      <trkpt lat="45.06725" lon="6.25574">
        <ele>2323.64</ele>
        <time>2017-06-25T10:48:49Z</time>
      </trkpt>
      <trkpt lat="45.06725" lon="6.25575">
        <ele>2324.61</ele>
        <time>2017-06-25T10:49:00Z</time>
      </trkpt>
      <trkpt lat="45.06725" lon="6.25577">
        <ele>2325.09</ele>
        <time>2017-06-25T10:49:09Z</time>
      </trkpt>
      <trkpt lat="45.06723" lon="6.25577">
        <ele>2324.61</ele>
        <time>2017-06-25T10:49:17Z</time>
      </trkpt>
      <trkpt lat="45.0672" lon="6.25579">
        <ele>2324.61</ele>
        <time>2017-06-25T10:49:23Z</time>
      </trkpt>
      <trkpt lat="45.06711" lon="6.25586">
        <ele>2324.61</ele>
        <time>2017-06-25T10:49:32Z</time>
      </trkpt>
      <trkpt lat="45.06706" lon="6.2559">
        <ele>2324.12</ele>
        <time>2017-06-25T10:49:38Z</time>
      </trkpt>
      <trkpt lat="45.06704" lon="6.25592">
        <ele>2323.64</ele>
        <time>2017-06-25T10:49:40Z</time>
      </trkpt>
      <trkpt lat="45.06697" lon="6.25596">
        <ele>2323.64</ele>
        <time>2017-06-25T10:49:47Z</time>
      </trkpt>
      <trkpt lat="45.06694" lon="6.25597">
        <ele>2323.64</ele>
        <time>2017-06-25T10:49:49Z</time>
      </trkpt>
      <trkpt lat="45.06687" lon="6.25601">
        <ele>2325.57</ele>
        <time>2017-06-25T10:49:56Z</time>
      </trkpt>
      <trkpt lat="45.06687" lon="6.25603">
        <ele>2326.05</ele>
        <time>2017-06-25T10:50:04Z</time>
      </trkpt>
      <trkpt lat="45.06687" lon="6.25604">
        <ele>2327.49</ele>
        <time>2017-06-25T10:50:16Z</time>
      </trkpt>
      <trkpt lat="45.06684" lon="6.25606">
        <ele>2328.45</ele>
        <time>2017-06-25T10:50:27Z</time>
      </trkpt>
      <trkpt lat="45.06679" lon="6.25611">
        <ele>2329.41</ele>
        <time>2017-06-25T10:50:33Z</time>
      </trkpt>
      <trkpt lat="45.06673" lon="6.25616">
        <ele>2328.45</ele>
        <time>2017-06-25T10:50:40Z</time>
      </trkpt>
      <trkpt lat="45.06668" lon="6.2562">
        <ele>2328.45</ele>
        <time>2017-06-25T10:50:46Z</time>
      </trkpt>
      <trkpt lat="45.06666" lon="6.25624">
        <ele>2327.97</ele>
        <time>2017-06-25T10:50:53Z</time>
      </trkpt>
      <trkpt lat="45.06662" lon="6.25633">
        <ele>2332.3</ele>
        <time>2017-06-25T10:51:01Z</time>
      </trkpt>
      <trkpt lat="45.06658" lon="6.25641">
        <ele>2335.18</ele>
        <time>2017-06-25T10:51:10Z</time>
      </trkpt>
      <trkpt lat="45.06655" lon="6.25646">
        <ele>2338.06</ele>
        <time>2017-06-25T10:51:18Z</time>
      </trkpt>
      <trkpt lat="45.06651" lon="6.25651">
        <ele>2338.54</ele>
        <time>2017-06-25T10:51:24Z</time>
      </trkpt>
      <trkpt lat="45.06647" lon="6.25655">
        <ele>2339.99</ele>
        <time>2017-06-25T10:51:32Z</time>
      </trkpt>
      <trkpt lat="45.06642" lon="6.25658">
        <ele>2341.91</ele>
        <time>2017-06-25T10:51:40Z</time>
      </trkpt>
      <trkpt lat="45.06636" lon="6.25663">
        <ele>2345.27</ele>
        <time>2017-06-25T10:51:50Z</time>
      </trkpt>
      <trkpt lat="45.06631" lon="6.25666">
        <ele>2346.72</ele>
        <time>2017-06-25T10:51:57Z</time>
      </trkpt>
      <trkpt lat="45.06628" lon="6.25668">
        <ele>2348.64</ele>
        <time>2017-06-25T10:52:03Z</time>
      </trkpt>
      <trkpt lat="45.06624" lon="6.25673">
        <ele>2350.56</ele>
        <time>2017-06-25T10:52:11Z</time>
      </trkpt>
      <trkpt lat="45.06621" lon="6.25678">
        <ele>2353.93</ele>
        <time>2017-06-25T10:52:21Z</time>
      </trkpt>
      <trkpt lat="45.06618" lon="6.25684">
        <ele>2356.81</ele>
        <time>2017-06-25T10:52:29Z</time>
      </trkpt>
      <trkpt lat="45.06615" lon="6.25688">
        <ele>2358.73</ele>
        <time>2017-06-25T10:52:38Z</time>
      </trkpt>
      <trkpt lat="45.06613" lon="6.25693">
        <ele>2360.65</ele>
        <time>2017-06-25T10:52:45Z</time>
      </trkpt>
      <trkpt lat="45.0661" lon="6.25699">
        <ele>2363.54</ele>
        <time>2017-06-25T10:52:54Z</time>
      </trkpt>
      <trkpt lat="45.06609" lon="6.25704">
        <ele>2365.46</ele>
        <time>2017-06-25T10:53:01Z</time>
      </trkpt>
      <trkpt lat="45.06607" lon="6.2571">
        <ele>2369.31</ele>
        <time>2017-06-25T10:53:11Z</time>
      </trkpt>
      <trkpt lat="45.06606" lon="6.25715">
        <ele>2372.67</ele>
        <time>2017-06-25T10:53:18Z</time>
      </trkpt>
      <trkpt lat="45.06604" lon="6.25721">
        <ele>2374.59</ele>
        <time>2017-06-25T10:53:26Z</time>
      </trkpt>
      <trkpt lat="45.06601" lon="6.25721">
        <ele>2375.07</ele>
        <time>2017-06-25T10:53:33Z</time>
      </trkpt>
      <trkpt lat="45.066" lon="6.25716">
        <ele>2376.04</ele>
        <time>2017-06-25T10:53:39Z</time>
      </trkpt>
      <trkpt lat="45.06596" lon="6.25713">
        <ele>2377.96</ele>
        <time>2017-06-25T10:53:47Z</time>
      </trkpt>
      <trkpt lat="45.06591" lon="6.25712">
        <ele>2380.36</ele>
        <time>2017-06-25T10:53:55Z</time>
      </trkpt>
      <trkpt lat="45.06586" lon="6.25712">
        <ele>2382.28</ele>
        <time>2017-06-25T10:54:02Z</time>
      </trkpt>
      <trkpt lat="45.06583" lon="6.25711">
        <ele>2384.21</ele>
        <time>2017-06-25T10:54:11Z</time>
      </trkpt>
      <trkpt lat="45.06579" lon="6.25717">
        <ele>2385.65</ele>
        <time>2017-06-25T10:54:18Z</time>
      </trkpt>
      <trkpt lat="45.06577" lon="6.25715">
        <ele>2386.13</ele>
        <time>2017-06-25T10:54:24Z</time>
      </trkpt>
      <trkpt lat="45.06577" lon="6.25714">
        <ele>2386.13</ele>
        <time>2017-06-25T10:54:25Z</time>
      </trkpt>
      <trkpt lat="45.06574" lon="6.25712">
        <ele>2386.61</ele>
        <time>2017-06-25T10:54:33Z</time>
      </trkpt>
      <trkpt lat="45.06574" lon="6.25712">
        <ele>2386.61</ele>
        <time>2017-06-25T10:54:44Z</time>
      </trkpt>
      <trkpt lat="45.06573" lon="6.25712">
        <ele>2387.57</ele>
        <time>2017-06-25T10:54:59Z</time>
      </trkpt>
      <trkpt lat="45.06574" lon="6.25713">
        <ele>2387.57</ele>
        <time>2017-06-25T10:55:17Z</time>
      </trkpt>
      <trkpt lat="45.06574" lon="6.25715">
        <ele>2388.05</ele>
        <time>2017-06-25T10:55:24Z</time>
      </trkpt>
      <trkpt lat="45.06575" lon="6.25715">
        <ele>2387.57</ele>
        <time>2017-06-25T10:55:36Z</time>
      </trkpt>
      <trkpt lat="45.06576" lon="6.25715">
        <ele>2386.61</ele>
        <time>2017-06-25T10:55:53Z</time>
      </trkpt>
      <trkpt lat="45.06577" lon="6.25715">
        <ele>2387.09</ele>
        <time>2017-06-25T10:56:13Z</time>
      </trkpt>
      <trkpt lat="45.06577" lon="6.25714">
        <ele>2388.05</ele>
        <time>2017-06-25T10:56:34Z</time>
      </trkpt>
      <trkpt lat="45.06577" lon="6.25714">
        <ele>2388.53</ele>
        <time>2017-06-25T10:56:49Z</time>
      </trkpt>
      <trkpt lat="45.06577" lon="6.25714">
        <ele>2388.53</ele>
        <time>2017-06-25T10:57:06Z</time>
      </trkpt>
      <trkpt lat="45.06577" lon="6.25714">
        <ele>2389.49</ele>
        <time>2017-06-25T10:57:24Z</time>
      </trkpt>
      <trkpt lat="45.06577" lon="6.25714">
        <ele>2389.49</ele>
        <time>2017-06-25T10:57:41Z</time>
      </trkpt>
      <trkpt lat="45.06577" lon="6.25714">
        <ele>2389.97</ele>
        <time>2017-06-25T10:58:02Z</time>
      </trkpt>
      <trkpt lat="45.06577" lon="6.25714">
        <ele>2389.97</ele>
        <time>2017-06-25T10:58:24Z</time>
      </trkpt>
      <trkpt lat="45.06577" lon="6.25714">
        <ele>2390.46</ele>
        <time>2017-06-25T10:58:47Z</time>
      </trkpt>
      <trkpt lat="45.06577" lon="6.25714">
        <ele>2390.46</ele>
        <time>2017-06-25T10:59:12Z</time>
      </trkpt>
      <trkpt lat="45.06577" lon="6.25714">
        <ele>2390.46</ele>
        <time>2017-06-25T10:59:38Z</time>
      </trkpt>
      <trkpt lat="45.06577" lon="6.25715">
        <ele>2390.46</ele>
        <time>2017-06-25T11:00:02Z</time>
      </trkpt>
      <trkpt lat="45.06577" lon="6.25715">
        <ele>2390.46</ele>
        <time>2017-06-25T11:00:23Z</time>
      </trkpt>
      <trkpt lat="45.06577" lon="6.25715">
        <ele>2390.46</ele>
        <time>2017-06-25T11:00:53Z</time>
      </trkpt>
      <trkpt lat="45.06577" lon="6.25715">
        <ele>2390.46</ele>
        <time>2017-06-25T11:01:22Z</time>
      </trkpt>
      <trkpt lat="45.06577" lon="6.25715">
        <ele>2390.46</ele>
        <time>2017-06-25T11:01:43Z</time>
      </trkpt>
      <trkpt lat="45.06576" lon="6.25715">
        <ele>2390.46</ele>
        <time>2017-06-25T11:02:05Z</time>
      </trkpt>
      <trkpt lat="45.06576" lon="6.25714">
        <ele>2390.94</ele>
        <time>2017-06-25T11:02:25Z</time>
      </trkpt>
      <trkpt lat="45.06577" lon="6.25713">
        <ele>2391.42</ele>
        <time>2017-06-25T11:02:45Z</time>
      </trkpt>
      <trkpt lat="45.06577" lon="6.25713">
        <ele>2391.42</ele>
        <time>2017-06-25T11:03:03Z</time>
      </trkpt>
      <trkpt lat="45.06577" lon="6.25712">
        <ele>2391.42</ele>
        <time>2017-06-25T11:03:18Z</time>
      </trkpt>
      <trkpt lat="45.06577" lon="6.25712">
        <ele>2392.38</ele>
        <time>2017-06-25T11:03:33Z</time>
      </trkpt>
      <trkpt lat="45.06577" lon="6.25711">
        <ele>2392.86</ele>
        <time>2017-06-25T11:03:46Z</time>
      </trkpt>
      <trkpt lat="45.06577" lon="6.25712">
        <ele>2393.34</ele>
        <time>2017-06-25T11:04:00Z</time>
      </trkpt>
      <trkpt lat="45.06578" lon="6.25711">
        <ele>2393.82</ele>
        <time>2017-06-25T11:04:12Z</time>
      </trkpt>
      <trkpt lat="45.06578" lon="6.25712">
        <ele>2393.82</ele>
        <time>2017-06-25T11:04:26Z</time>
      </trkpt>
      <trkpt lat="45.06578" lon="6.25712">
        <ele>2393.34</ele>
        <time>2017-06-25T11:04:41Z</time>
      </trkpt>
      <trkpt lat="45.06577" lon="6.25712">
        <ele>2393.34</ele>
        <time>2017-06-25T11:04:54Z</time>
      </trkpt>
      <trkpt lat="45.06577" lon="6.25712">
        <ele>2393.82</ele>
        <time>2017-06-25T11:05:06Z</time>
      </trkpt>
      <trkpt lat="45.06577" lon="6.25713">
        <ele>2392.86</ele>
        <time>2017-06-25T11:05:20Z</time>
      </trkpt>
      <trkpt lat="45.06577" lon="6.25713">
        <ele>2392.86</ele>
        <time>2017-06-25T11:05:35Z</time>
      </trkpt>
      <trkpt lat="45.06577" lon="6.25713">
        <ele>2392.38</ele>
        <time>2017-06-25T11:05:52Z</time>
      </trkpt>
      <trkpt lat="45.06576" lon="6.25713">
        <ele>2392.38</ele>
        <time>2017-06-25T11:06:06Z</time>
      </trkpt>
      <trkpt lat="45.06576" lon="6.25713">
        <ele>2392.86</ele>
        <time>2017-06-25T11:06:27Z</time>
      </trkpt>
      <trkpt lat="45.06576" lon="6.25713">
        <ele>2392.86</ele>
        <time>2017-06-25T11:06:45Z</time>
      </trkpt>
      <trkpt lat="45.06576" lon="6.25713">
        <ele>2393.34</ele>
        <time>2017-06-25T11:07:03Z</time>
      </trkpt>
      <trkpt lat="45.06576" lon="6.25713">
        <ele>2393.34</ele>
        <time>2017-06-25T11:07:16Z</time>
      </trkpt>
      <trkpt lat="45.06576" lon="6.25713">
        <ele>2392.86</ele>
        <time>2017-06-25T11:07:31Z</time>
      </trkpt>
      <trkpt lat="45.06576" lon="6.25713">
        <ele>2392.86</ele>
        <time>2017-06-25T11:07:55Z</time>
      </trkpt>
      <trkpt lat="45.06576" lon="6.25713">
        <ele>2392.86</ele>
        <time>2017-06-25T11:08:13Z</time>
      </trkpt>
      <trkpt lat="45.06576" lon="6.25712">
        <ele>2392.86</ele>
        <time>2017-06-25T11:08:26Z</time>
      </trkpt>
      <trkpt lat="45.06574" lon="6.25711">
        <ele>2391.9</ele>
        <time>2017-06-25T11:08:32Z</time>
      </trkpt>
      <trkpt lat="45.06574" lon="6.25712">
        <ele>2390.94</ele>
        <time>2017-06-25T11:08:48Z</time>
      </trkpt>
      <trkpt lat="45.06575" lon="6.25715">
        <ele>2390.94</ele>
        <time>2017-06-25T11:08:55Z</time>
      </trkpt>
      <trkpt lat="45.06576" lon="6.25716">
        <ele>2391.42</ele>
        <time>2017-06-25T11:09:08Z</time>
      </trkpt>
      <trkpt lat="45.06576" lon="6.25717">
        <ele>2391.42</ele>
        <time>2017-06-25T11:09:20Z</time>
      </trkpt>
      <trkpt lat="45.06575" lon="6.25717">
        <ele>2391.42</ele>
        <time>2017-06-25T11:09:28Z</time>
      </trkpt>
      <trkpt lat="45.06576" lon="6.25717">
        <ele>2391.42</ele>
        <time>2017-06-25T11:09:34Z</time>
      </trkpt>
      <trkpt lat="45.06576" lon="6.25716">
        <ele>2391.9</ele>
        <time>2017-06-25T11:09:43Z</time>
      </trkpt>
      <trkpt lat="45.06576" lon="6.25716">
        <ele>2391.9</ele>
        <time>2017-06-25T11:09:45Z</time>
      </trkpt>
      <trkpt lat="45.06575" lon="6.25717">
        <ele>2392.86</ele>
        <time>2017-06-25T11:09:50Z</time>
      </trkpt>
      <trkpt lat="45.06575" lon="6.25716">
        <ele>2392.86</ele>
        <time>2017-06-25T11:09:58Z</time>
      </trkpt>
      <trkpt lat="45.06575" lon="6.25717">
        <ele>2392.38</ele>
        <time>2017-06-25T11:10:05Z</time>
      </trkpt>
      <trkpt lat="45.06575" lon="6.25717">
        <ele>2392.38</ele>
        <time>2017-06-25T11:10:15Z</time>
      </trkpt>
      <trkpt lat="45.06574" lon="6.25718">
        <ele>2392.38</ele>
        <time>2017-06-25T11:10:19Z</time>
      </trkpt>
      <trkpt lat="45.06574" lon="6.25717">
        <ele>2392.38</ele>
        <time>2017-06-25T11:10:27Z</time>
      </trkpt>
      <trkpt lat="45.06574" lon="6.25717">
        <ele>2392.38</ele>
        <time>2017-06-25T11:10:37Z</time>
      </trkpt>
      <trkpt lat="45.06574" lon="6.25717">
        <ele>2392.38</ele>
        <time>2017-06-25T11:10:41Z</time>
      </trkpt>
      <trkpt lat="45.06574" lon="6.25717">
        <ele>2392.38</ele>
        <time>2017-06-25T11:10:54Z</time>
      </trkpt>
      <trkpt lat="45.06574" lon="6.25717">
        <ele>2392.38</ele>
        <time>2017-06-25T11:11:04Z</time>
      </trkpt>
      <trkpt lat="45.06574" lon="6.25717">
        <ele>2392.38</ele>
        <time>2017-06-25T11:11:10Z</time>
      </trkpt>
      <trkpt lat="45.06574" lon="6.25717">
        <ele>2391.9</ele>
        <time>2017-06-25T11:11:21Z</time>
      </trkpt>
      <trkpt lat="45.06574" lon="6.25718">
        <ele>2391.9</ele>
        <time>2017-06-25T11:11:32Z</time>
      </trkpt>
      <trkpt lat="45.06574" lon="6.25718">
        <ele>2391.42</ele>
        <time>2017-06-25T11:11:41Z</time>
      </trkpt>
      <trkpt lat="45.06574" lon="6.25718">
        <ele>2391.42</ele>
        <time>2017-06-25T11:11:51Z</time>
      </trkpt>
      <trkpt lat="45.06574" lon="6.25719">
        <ele>2391.42</ele>
        <time>2017-06-25T11:11:58Z</time>
      </trkpt>
      <trkpt lat="45.06574" lon="6.25718">
        <ele>2391.42</ele>
        <time>2017-06-25T11:12:09Z</time>
      </trkpt>
      <trkpt lat="45.06574" lon="6.25718">
        <ele>2391.42</ele>
        <time>2017-06-25T11:12:20Z</time>
      </trkpt>
      <trkpt lat="45.06575" lon="6.25717">
        <ele>2391.42</ele>
        <time>2017-06-25T11:12:33Z</time>
      </trkpt>
      <trkpt lat="45.06576" lon="6.25714">
        <ele>2390.46</ele>
        <time>2017-06-25T11:12:40Z</time>
      </trkpt>
      <trkpt lat="45.06576" lon="6.25714">
        <ele>2390.46</ele>
        <time>2017-06-25T11:12:46Z</time>
      </trkpt>
      <trkpt lat="45.06577" lon="6.25714">
        <ele>2389.97</ele>
        <time>2017-06-25T11:12:56Z</time>
      </trkpt>
      <trkpt lat="45.06576" lon="6.25715">
        <ele>2389.97</ele>
        <time>2017-06-25T11:13:07Z</time>
      </trkpt>
      <trkpt lat="45.06577" lon="6.25715">
        <ele>2389.97</ele>
        <time>2017-06-25T11:13:15Z</time>
      </trkpt>
      <trkpt lat="45.06577" lon="6.25716">
        <ele>2389.97</ele>
        <time>2017-06-25T11:13:29Z</time>
      </trkpt>
      <trkpt lat="45.06577" lon="6.25715">
        <ele>2390.46</ele>
        <time>2017-06-25T11:13:36Z</time>
      </trkpt>
      <trkpt lat="45.06472" lon="6.25639">
        <ele>2369.31</ele>
        <time>2017-06-25T11:15:56Z</time>
      </trkpt>
      <trkpt lat="45.06462" lon="6.25641">
        <ele>2380.84</ele>
        <time>2017-06-25T11:16:01Z</time>
      </trkpt>
      <trkpt lat="45.06463" lon="6.25632">
        <ele>2380.84</ele>
        <time>2017-06-25T11:16:09Z</time>
      </trkpt>
      <trkpt lat="45.06465" lon="6.25631">
        <ele>2381.32</ele>
        <time>2017-06-25T11:16:18Z</time>
      </trkpt>
      <trkpt lat="45.06467" lon="6.25623">
        <ele>2380.36</ele>
        <time>2017-06-25T11:16:25Z</time>
      </trkpt>
      <trkpt lat="45.06463" lon="6.25614">
        <ele>2378.92</ele>
        <time>2017-06-25T11:16:30Z</time>
      </trkpt>
      <trkpt lat="45.06466" lon="6.25607">
        <ele>2377.48</ele>
        <time>2017-06-25T11:16:34Z</time>
      </trkpt>
      <trkpt lat="45.06472" lon="6.256">
        <ele>2377.48</ele>
        <time>2017-06-25T11:16:41Z</time>
      </trkpt>
      <trkpt lat="45.06478" lon="6.25591">
        <ele>2378.92</ele>
        <time>2017-06-25T11:16:48Z</time>
      </trkpt>
      <trkpt lat="45.06479" lon="6.25589">
        <ele>2378.92</ele>
        <time>2017-06-25T11:16:49Z</time>
      </trkpt>
      <trkpt lat="45.06481" lon="6.25582">
        <ele>2378.92</ele>
        <time>2017-06-25T11:16:54Z</time>
      </trkpt>
      <trkpt lat="45.06491" lon="6.25568">
        <ele>2379.88</ele>
        <time>2017-06-25T11:17:05Z</time>
      </trkpt>
      <trkpt lat="45.06501" lon="6.25559">
        <ele>2380.36</ele>
        <time>2017-06-25T11:17:13Z</time>
      </trkpt>
      <trkpt lat="45.06509" lon="6.25544">
        <ele>2381.32</ele>
        <time>2017-06-25T11:17:20Z</time>
      </trkpt>
      <trkpt lat="45.06517" lon="6.25525">
        <ele>2383.25</ele>
        <time>2017-06-25T11:17:28Z</time>
      </trkpt>
      <trkpt lat="45.06522" lon="6.2551">
        <ele>2383.73</ele>
        <time>2017-06-25T11:17:34Z</time>
      </trkpt>
      <trkpt lat="45.06531" lon="6.25487">
        <ele>2384.21</ele>
        <time>2017-06-25T11:17:43Z</time>
      </trkpt>
      <trkpt lat="45.06536" lon="6.25467">
        <ele>2384.69</ele>
        <time>2017-06-25T11:17:51Z</time>
      </trkpt>
      <trkpt lat="45.06539" lon="6.25453">
        <ele>2385.65</ele>
        <time>2017-06-25T11:17:59Z</time>
      </trkpt>
      <trkpt lat="45.06543" lon="6.25441">
        <ele>2387.09</ele>
        <time>2017-06-25T11:18:04Z</time>
      </trkpt>
      <trkpt lat="45.06544" lon="6.25438">
        <ele>2387.09</ele>
        <time>2017-06-25T11:18:05Z</time>
      </trkpt>
      <trkpt lat="45.06543" lon="6.25426">
        <ele>2387.57</ele>
        <time>2017-06-25T11:18:12Z</time>
      </trkpt>
      <trkpt lat="45.06539" lon="6.25415">
        <ele>2389.01</ele>
        <time>2017-06-25T11:18:20Z</time>
      </trkpt>
      <trkpt lat="45.06538" lon="6.25409">
        <ele>2389.49</ele>
        <time>2017-06-25T11:18:23Z</time>
      </trkpt>
      <trkpt lat="45.06533" lon="6.25397">
        <ele>2389.49</ele>
        <time>2017-06-25T11:18:29Z</time>
      </trkpt>
      <trkpt lat="45.06528" lon="6.25389">
        <ele>2390.46</ele>
        <time>2017-06-25T11:18:36Z</time>
      </trkpt>
      <trkpt lat="45.06522" lon="6.25382">
        <ele>2391.42</ele>
        <time>2017-06-25T11:18:43Z</time>
      </trkpt>
      <trkpt lat="45.06515" lon="6.25375">
        <ele>2393.82</ele>
        <time>2017-06-25T11:18:51Z</time>
      </trkpt>
      <trkpt lat="45.06509" lon="6.2537">
        <ele>2394.78</ele>
        <time>2017-06-25T11:18:59Z</time>
      </trkpt>
      <trkpt lat="45.06502" lon="6.25366">
        <ele>2396.7</ele>
        <time>2017-06-25T11:19:07Z</time>
      </trkpt>
      <trkpt lat="45.06494" lon="6.2536">
        <ele>2398.63</ele>
        <time>2017-06-25T11:19:15Z</time>
      </trkpt>
      <trkpt lat="45.06485" lon="6.25359">
        <ele>2399.59</ele>
        <time>2017-06-25T11:19:24Z</time>
      </trkpt>
      <trkpt lat="45.06478" lon="6.25356">
        <ele>2400.07</ele>
        <time>2017-06-25T11:19:31Z</time>
      </trkpt>
      <trkpt lat="45.0647" lon="6.25349">
        <ele>2400.55</ele>
        <time>2017-06-25T11:19:37Z</time>
      </trkpt>
      <trkpt lat="45.06458" lon="6.2534">
        <ele>2402.95</ele>
        <time>2017-06-25T11:19:44Z</time>
      </trkpt>
      <trkpt lat="45.06443" lon="6.25331">
        <ele>2404.39</ele>
        <time>2017-06-25T11:19:53Z</time>
      </trkpt>
      <trkpt lat="45.06429" lon="6.25323">
        <ele>2404.88</ele>
        <time>2017-06-25T11:20:02Z</time>
      </trkpt>
      <trkpt lat="45.06422" lon="6.25318">
        <ele>2406.32</ele>
        <time>2017-06-25T11:20:08Z</time>
      </trkpt>
      <trkpt lat="45.06415" lon="6.25314">
        <ele>2407.28</ele>
        <time>2017-06-25T11:20:15Z</time>
      </trkpt>
      <trkpt lat="45.06406" lon="6.25307">
        <ele>2407.76</ele>
        <time>2017-06-25T11:20:23Z</time>
      </trkpt>
      <trkpt lat="45.06397" lon="6.25295">
        <ele>2408.72</ele>
        <time>2017-06-25T11:20:33Z</time>
      </trkpt>
      <trkpt lat="45.06395" lon="6.25287">
        <ele>2410.64</ele>
        <time>2017-06-25T11:20:39Z</time>
      </trkpt>
      <trkpt lat="45.06394" lon="6.25286">
        <ele>2411.12</ele>
        <time>2017-06-25T11:20:47Z</time>
      </trkpt>
      <trkpt lat="45.06389" lon="6.25274">
        <ele>2411.12</ele>
        <time>2017-06-25T11:20:56Z</time>
      </trkpt>
      <trkpt lat="45.06388" lon="6.2527">
        <ele>2411.6</ele>
        <time>2017-06-25T11:20:59Z</time>
      </trkpt>
      <trkpt lat="45.06383" lon="6.25251">
        <ele>2412.09</ele>
        <time>2017-06-25T11:21:07Z</time>
      </trkpt>
      <trkpt lat="45.06383" lon="6.25232">
        <ele>2412.09</ele>
        <time>2017-06-25T11:21:13Z</time>
      </trkpt>
      <trkpt lat="45.06389" lon="6.25209">
        <ele>2411.6</ele>
        <time>2017-06-25T11:21:20Z</time>
      </trkpt>
      <trkpt lat="45.06399" lon="6.25186">
        <ele>2410.16</ele>
        <time>2017-06-25T11:21:27Z</time>
      </trkpt>
      <trkpt lat="45.06402" lon="6.25168">
        <ele>2409.2</ele>
        <time>2017-06-25T11:21:32Z</time>
      </trkpt>
      <trkpt lat="45.06406" lon="6.25147">
        <ele>2407.76</ele>
        <time>2017-06-25T11:21:38Z</time>
      </trkpt>
      <trkpt lat="45.06407" lon="6.2514">
        <ele>2406.8</ele>
        <time>2017-06-25T11:21:40Z</time>
      </trkpt>
      <trkpt lat="45.06406" lon="6.25115">
        <ele>2404.88</ele>
        <time>2017-06-25T11:21:48Z</time>
      </trkpt>
      <trkpt lat="45.06405" lon="6.25092">
        <ele>2403.43</ele>
        <time>2017-06-25T11:21:55Z</time>
      </trkpt>
      <trkpt lat="45.06403" lon="6.25074">
        <ele>2401.99</ele>
        <time>2017-06-25T11:22:00Z</time>
      </trkpt>
      <trkpt lat="45.06396" lon="6.25063">
        <ele>2401.99</ele>
        <time>2017-06-25T11:22:06Z</time>
      </trkpt>
      <trkpt lat="45.06387" lon="6.25042">
        <ele>2401.03</ele>
        <time>2017-06-25T11:22:14Z</time>
      </trkpt>
      <trkpt lat="45.06383" lon="6.25024">
        <ele>2400.55</ele>
        <time>2017-06-25T11:22:20Z</time>
      </trkpt>
      <trkpt lat="45.06375" lon="6.25004">
        <ele>2400.55</ele>
        <time>2017-06-25T11:22:27Z</time>
      </trkpt>
      <trkpt lat="45.06368" lon="6.24984">
        <ele>2400.07</ele>
        <time>2017-06-25T11:22:33Z</time>
      </trkpt>
      <trkpt lat="45.06357" lon="6.24964">
        <ele>2399.11</ele>
        <time>2017-06-25T11:22:40Z</time>
      </trkpt>
      <trkpt lat="45.06349" lon="6.24949">
        <ele>2398.15</ele>
        <time>2017-06-25T11:22:46Z</time>
      </trkpt>
      <trkpt lat="45.06342" lon="6.24938">
        <ele>2397.67</ele>
        <time>2017-06-25T11:22:51Z</time>
      </trkpt>
      <trkpt lat="45.06339" lon="6.24932">
        <ele>2398.63</ele>
        <time>2017-06-25T11:22:53Z</time>
      </trkpt>
      <trkpt lat="45.06328" lon="6.24912">
        <ele>2399.11</ele>
        <time>2017-06-25T11:23:01Z</time>
      </trkpt>
      <trkpt lat="45.0632" lon="6.249">
        <ele>2398.63</ele>
        <time>2017-06-25T11:23:06Z</time>
      </trkpt>
      <trkpt lat="45.0631" lon="6.24884">
        <ele>2399.11</ele>
        <time>2017-06-25T11:23:13Z</time>
      </trkpt>
      <trkpt lat="45.06302" lon="6.24867">
        <ele>2399.59</ele>
        <time>2017-06-25T11:23:20Z</time>
      </trkpt>
      <trkpt lat="45.06297" lon="6.24855">
        <ele>2399.59</ele>
        <time>2017-06-25T11:23:25Z</time>
      </trkpt>
      <trkpt lat="45.06294" lon="6.24848">
        <ele>2399.11</ele>
        <time>2017-06-25T11:23:31Z</time>
      </trkpt>
      <trkpt lat="45.06292" lon="6.24842">
        <ele>2399.11</ele>
        <time>2017-06-25T11:23:39Z</time>
      </trkpt>
      <trkpt lat="45.06291" lon="6.24834">
        <ele>2399.11</ele>
        <time>2017-06-25T11:23:44Z</time>
      </trkpt>
      <trkpt lat="45.06286" lon="6.24822">
        <ele>2399.11</ele>
        <time>2017-06-25T11:23:50Z</time>
      </trkpt>
      <trkpt lat="45.0628" lon="6.24801">
        <ele>2399.11</ele>
        <time>2017-06-25T11:23:58Z</time>
      </trkpt>
      <trkpt lat="45.06276" lon="6.24784">
        <ele>2398.63</ele>
        <time>2017-06-25T11:24:04Z</time>
      </trkpt>
      <trkpt lat="45.06272" lon="6.24764">
        <ele>2398.15</ele>
        <time>2017-06-25T11:24:11Z</time>
      </trkpt>
      <trkpt lat="45.06268" lon="6.24743">
        <ele>2398.63</ele>
        <time>2017-06-25T11:24:18Z</time>
      </trkpt>
      <trkpt lat="45.06268" lon="6.2474">
        <ele>2398.63</ele>
        <time>2017-06-25T11:24:19Z</time>
      </trkpt>
      <trkpt lat="45.06264" lon="6.24719">
        <ele>2398.15</ele>
        <time>2017-06-25T11:24:26Z</time>
      </trkpt>
      <trkpt lat="45.06259" lon="6.24698">
        <ele>2399.11</ele>
        <time>2017-06-25T11:24:33Z</time>
      </trkpt>
      <trkpt lat="45.06255" lon="6.24676">
        <ele>2398.63</ele>
        <time>2017-06-25T11:24:40Z</time>
      </trkpt>
      <trkpt lat="45.06253" lon="6.24659">
        <ele>2399.11</ele>
        <time>2017-06-25T11:24:45Z</time>
      </trkpt>
      <trkpt lat="45.06248" lon="6.24636">
        <ele>2399.59</ele>
        <time>2017-06-25T11:24:52Z</time>
      </trkpt>
      <trkpt lat="45.06245" lon="6.24616">
        <ele>2400.07</ele>
        <time>2017-06-25T11:24:59Z</time>
      </trkpt>
      <trkpt lat="45.06241" lon="6.24597">
        <ele>2401.03</ele>
        <time>2017-06-25T11:25:06Z</time>
      </trkpt>
      <trkpt lat="45.06234" lon="6.24582">
        <ele>2401.03</ele>
        <time>2017-06-25T11:25:12Z</time>
      </trkpt>
      <trkpt lat="45.06232" lon="6.24574">
        <ele>2400.55</ele>
        <time>2017-06-25T11:25:15Z</time>
      </trkpt>
      <trkpt lat="45.06223" lon="6.24553">
        <ele>2401.03</ele>
        <time>2017-06-25T11:25:23Z</time>
      </trkpt>
      <trkpt lat="45.06214" lon="6.24535">
        <ele>2401.03</ele>
        <time>2017-06-25T11:25:30Z</time>
      </trkpt>
      <trkpt lat="45.06207" lon="6.24524">
        <ele>2401.51</ele>
        <time>2017-06-25T11:25:36Z</time>
      </trkpt>
      <trkpt lat="45.06204" lon="6.24521">
        <ele>2401.99</ele>
        <time>2017-06-25T11:25:38Z</time>
      </trkpt>
      <trkpt lat="45.062" lon="6.24517">
        <ele>2402.95</ele>
        <time>2017-06-25T11:25:43Z</time>
      </trkpt>
      <trkpt lat="45.06191" lon="6.24512">
        <ele>2401.99</ele>
        <time>2017-06-25T11:25:51Z</time>
      </trkpt>
      <trkpt lat="45.06184" lon="6.24507">
        <ele>2401.51</ele>
        <time>2017-06-25T11:25:55Z</time>
      </trkpt>
      <trkpt lat="45.06174" lon="6.24495">
        <ele>2401.99</ele>
        <time>2017-06-25T11:26:02Z</time>
      </trkpt>
      <trkpt lat="45.06171" lon="6.24492">
        <ele>2401.99</ele>
        <time>2017-06-25T11:26:04Z</time>
      </trkpt>
      <trkpt lat="45.06163" lon="6.24476">
        <ele>2401.51</ele>
        <time>2017-06-25T11:26:11Z</time>
      </trkpt>
      <trkpt lat="45.06162" lon="6.24464">
        <ele>2401.03</ele>
        <time>2017-06-25T11:26:16Z</time>
      </trkpt>
      <trkpt lat="45.06161" lon="6.24455">
        <ele>2401.03</ele>
        <time>2017-06-25T11:26:19Z</time>
      </trkpt>
      <trkpt lat="45.0616" lon="6.24434">
        <ele>2398.63</ele>
        <time>2017-06-25T11:26:26Z</time>
      </trkpt>
      <trkpt lat="45.06153" lon="6.24412">
        <ele>2398.63</ele>
        <time>2017-06-25T11:26:33Z</time>
      </trkpt>
      <trkpt lat="45.06147" lon="6.24401">
        <ele>2397.67</ele>
        <time>2017-06-25T11:26:37Z</time>
      </trkpt>
      <trkpt lat="45.06147" lon="6.24393">
        <ele>2398.63</ele>
        <time>2017-06-25T11:26:43Z</time>
      </trkpt>
      <trkpt lat="45.06145" lon="6.24383">
        <ele>2398.15</ele>
        <time>2017-06-25T11:26:47Z</time>
      </trkpt>
      <trkpt lat="45.06141" lon="6.24369">
        <ele>2396.22</ele>
        <time>2017-06-25T11:26:52Z</time>
      </trkpt>
      <trkpt lat="45.0614" lon="6.24366">
        <ele>2396.22</ele>
        <time>2017-06-25T11:26:53Z</time>
      </trkpt>
      <trkpt lat="45.0614" lon="6.24353">
        <ele>2394.78</ele>
        <time>2017-06-25T11:26:57Z</time>
      </trkpt>
      <trkpt lat="45.06134" lon="6.24338">
        <ele>2391.42</ele>
        <time>2017-06-25T11:27:02Z</time>
      </trkpt>
      <trkpt lat="45.06127" lon="6.24302">
        <ele>2387.09</ele>
        <time>2017-06-25T11:27:11Z</time>
      </trkpt>
      <trkpt lat="45.06125" lon="6.24277">
        <ele>2386.13</ele>
        <time>2017-06-25T11:27:17Z</time>
      </trkpt>
      <trkpt lat="45.06125" lon="6.24251">
        <ele>2383.25</ele>
        <time>2017-06-25T11:27:23Z</time>
      </trkpt>
      <trkpt lat="45.06123" lon="6.24248">
        <ele>2382.76</ele>
        <time>2017-06-25T11:27:24Z</time>
      </trkpt>
      <trkpt lat="45.06115" lon="6.24238">
        <ele>2379.88</ele>
        <time>2017-06-25T11:27:29Z</time>
      </trkpt>
      <trkpt lat="45.06099" lon="6.24221">
        <ele>2375.07</ele>
        <time>2017-06-25T11:27:36Z</time>
      </trkpt>
      <trkpt lat="45.06089" lon="6.24205">
        <ele>2372.19</ele>
        <time>2017-06-25T11:27:42Z</time>
      </trkpt>
      <trkpt lat="45.06081" lon="6.24185">
        <ele>2370.27</ele>
        <time>2017-06-25T11:27:49Z</time>
      </trkpt>
      <trkpt lat="45.06072" lon="6.24169">
        <ele>2370.27</ele>
        <time>2017-06-25T11:27:55Z</time>
      </trkpt>
      <trkpt lat="45.06064" lon="6.24149">
        <ele>2369.79</ele>
        <time>2017-06-25T11:28:02Z</time>
      </trkpt>
      <trkpt lat="45.06064" lon="6.24132">
        <ele>2367.38</ele>
        <time>2017-06-25T11:28:08Z</time>
      </trkpt>
      <trkpt lat="45.06062" lon="6.2411">
        <ele>2367.86</ele>
        <time>2017-06-25T11:28:15Z</time>
      </trkpt>
      <trkpt lat="45.06062" lon="6.24091">
        <ele>2368.35</ele>
        <time>2017-06-25T11:28:21Z</time>
      </trkpt>
      <trkpt lat="45.06059" lon="6.24061">
        <ele>2367.38</ele>
        <time>2017-06-25T11:28:31Z</time>
      </trkpt>
      <trkpt lat="45.06055" lon="6.24039">
        <ele>2365.94</ele>
        <time>2017-06-25T11:28:37Z</time>
      </trkpt>
      <trkpt lat="45.0605" lon="6.2402">
        <ele>2366.9</ele>
        <time>2017-06-25T11:28:43Z</time>
      </trkpt>
      <trkpt lat="45.06048" lon="6.24012">
        <ele>2368.35</ele>
        <time>2017-06-25T11:28:46Z</time>
      </trkpt>
      <trkpt lat="45.06044" lon="6.24003">
        <ele>2369.79</ele>
        <time>2017-06-25T11:28:50Z</time>
      </trkpt>
      <trkpt lat="45.06038" lon="6.2398">
        <ele>2368.83</ele>
        <time>2017-06-25T11:28:58Z</time>
      </trkpt>
      <trkpt lat="45.06034" lon="6.23958">
        <ele>2370.27</ele>
        <time>2017-06-25T11:29:05Z</time>
      </trkpt>
      <trkpt lat="45.06031" lon="6.23937">
        <ele>2370.27</ele>
        <time>2017-06-25T11:29:11Z</time>
      </trkpt>
      <trkpt lat="45.06031" lon="6.23924">
        <ele>2369.31</ele>
        <time>2017-06-25T11:29:15Z</time>
      </trkpt>
      <trkpt lat="45.06028" lon="6.23911">
        <ele>2368.83</ele>
        <time>2017-06-25T11:29:19Z</time>
      </trkpt>
      <trkpt lat="45.06023" lon="6.23888">
        <ele>2367.86</ele>
        <time>2017-06-25T11:29:26Z</time>
      </trkpt>
      <trkpt lat="45.06021" lon="6.23872">
        <ele>2367.86</ele>
        <time>2017-06-25T11:29:32Z</time>
      </trkpt>
      <trkpt lat="45.06019" lon="6.23865">
        <ele>2367.86</ele>
        <time>2017-06-25T11:29:37Z</time>
      </trkpt>
      <trkpt lat="45.0602" lon="6.23864">
        <ele>2367.86</ele>
        <time>2017-06-25T11:29:44Z</time>
      </trkpt>
      <trkpt lat="45.06019" lon="6.23863">
        <ele>2367.86</ele>
        <time>2017-06-25T11:29:53Z</time>
      </trkpt>
      <trkpt lat="45.06019" lon="6.23863">
        <ele>2367.86</ele>
        <time>2017-06-25T11:30:01Z</time>
      </trkpt>
      <trkpt lat="45.06018" lon="6.23859">
        <ele>2368.35</ele>
        <time>2017-06-25T11:30:09Z</time>
      </trkpt>
      <trkpt lat="45.06019" lon="6.23858">
        <ele>2369.79</ele>
        <time>2017-06-25T11:30:15Z</time>
      </trkpt>
      <trkpt lat="45.06018" lon="6.23857">
        <ele>2371.23</ele>
        <time>2017-06-25T11:30:21Z</time>
      </trkpt>
      <trkpt lat="45.06018" lon="6.23857">
        <ele>2371.71</ele>
        <time>2017-06-25T11:30:32Z</time>
      </trkpt>
      <trkpt lat="45.06018" lon="6.23857">
        <ele>2372.19</ele>
        <time>2017-06-25T11:30:43Z</time>
      </trkpt>
      <trkpt lat="45.06018" lon="6.23858">
        <ele>2371.71</ele>
        <time>2017-06-25T11:30:57Z</time>
      </trkpt>
      <trkpt lat="45.06018" lon="6.23859">
        <ele>2371.71</ele>
        <time>2017-06-25T11:31:07Z</time>
      </trkpt>
      <trkpt lat="45.06018" lon="6.23858">
        <ele>2371.71</ele>
        <time>2017-06-25T11:31:12Z</time>
      </trkpt>
      <trkpt lat="45.06018" lon="6.23858">
        <ele>2371.71</ele>
        <time>2017-06-25T11:31:21Z</time>
      </trkpt>
      <trkpt lat="45.06018" lon="6.23858">
        <ele>2371.23</ele>
        <time>2017-06-25T11:31:28Z</time>
      </trkpt>
      <trkpt lat="45.06018" lon="6.23859">
        <ele>2371.23</ele>
        <time>2017-06-25T11:31:36Z</time>
      </trkpt>
      <trkpt lat="45.06016" lon="6.23861">
        <ele>2370.75</ele>
        <time>2017-06-25T11:31:47Z</time>
      </trkpt>
      <trkpt lat="45.06013" lon="6.23863">
        <ele>2370.75</ele>
        <time>2017-06-25T11:31:55Z</time>
      </trkpt>
      <trkpt lat="45.06013" lon="6.23862">
        <ele>2369.79</ele>
        <time>2017-06-25T11:32:08Z</time>
      </trkpt>
      <trkpt lat="45.06013" lon="6.23862">
        <ele>2369.31</ele>
        <time>2017-06-25T11:32:11Z</time>
      </trkpt>
      <trkpt lat="45.05998" lon="6.23866">
        <ele>2366.9</ele>
        <time>2017-06-25T11:32:17Z</time>
      </trkpt>
      <trkpt lat="45.05971" lon="6.23872">
        <ele>2361.62</ele>
        <time>2017-06-25T11:32:26Z</time>
      </trkpt>
      <trkpt lat="45.05953" lon="6.23873">
        <ele>2358.73</ele>
        <time>2017-06-25T11:32:32Z</time>
      </trkpt>
      <trkpt lat="45.05939" lon="6.23873">
        <ele>2356.33</ele>
        <time>2017-06-25T11:32:37Z</time>
      </trkpt>
      <trkpt lat="45.05932" lon="6.2387">
        <ele>2355.37</ele>
        <time>2017-06-25T11:32:40Z</time>
      </trkpt>
      <trkpt lat="45.05929" lon="6.23873">
        <ele>2354.41</ele>
        <time>2017-06-25T11:32:43Z</time>
      </trkpt>
      <trkpt lat="45.05923" lon="6.23878">
        <ele>2351.52</ele>
        <time>2017-06-25T11:32:49Z</time>
      </trkpt>
      <trkpt lat="45.05918" lon="6.23879">
        <ele>2350.08</ele>
        <time>2017-06-25T11:32:53Z</time>
      </trkpt>
      <trkpt lat="45.05915" lon="6.2388">
        <ele>2349.6</ele>
        <time>2017-06-25T11:32:55Z</time>
      </trkpt>
      <trkpt lat="45.05904" lon="6.23877">
        <ele>2346.72</ele>
        <time>2017-06-25T11:33:01Z</time>
      </trkpt>
      <trkpt lat="45.05883" lon="6.23879">
        <ele>2341.91</ele>
        <time>2017-06-25T11:33:08Z</time>
      </trkpt>
      <trkpt lat="45.05866" lon="6.23883">
        <ele>2339.51</ele>
        <time>2017-06-25T11:33:14Z</time>
      </trkpt>
      <trkpt lat="45.05854" lon="6.23891">
        <ele>2337.58</ele>
        <time>2017-06-25T11:33:19Z</time>
      </trkpt>
      <trkpt lat="45.0584" lon="6.23901">
        <ele>2336.14</ele>
        <time>2017-06-25T11:33:25Z</time>
      </trkpt>
      <trkpt lat="45.05829" lon="6.23906">
        <ele>2332.78</ele>
        <time>2017-06-25T11:33:31Z</time>
      </trkpt>
      <trkpt lat="45.05816" lon="6.23913">
        <ele>2329.89</ele>
        <time>2017-06-25T11:33:36Z</time>
      </trkpt>
      <trkpt lat="45.05803" lon="6.23921">
        <ele>2327.97</ele>
        <time>2017-06-25T11:33:42Z</time>
      </trkpt>
      <trkpt lat="45.05792" lon="6.23934">
        <ele>2326.05</ele>
        <time>2017-06-25T11:33:48Z</time>
      </trkpt>
      <trkpt lat="45.05782" lon="6.23944">
        <ele>2325.09</ele>
        <time>2017-06-25T11:33:53Z</time>
      </trkpt>
      <trkpt lat="45.05775" lon="6.23957">
        <ele>2322.2</ele>
        <time>2017-06-25T11:33:59Z</time>
      </trkpt>
      <trkpt lat="45.05769" lon="6.23965">
        <ele>2318.84</ele>
        <time>2017-06-25T11:34:04Z</time>
      </trkpt>
      <trkpt lat="45.05765" lon="6.23982">
        <ele>2314.99</ele>
        <time>2017-06-25T11:34:11Z</time>
      </trkpt>
      <trkpt lat="45.05763" lon="6.23988">
        <ele>2314.03</ele>
        <time>2017-06-25T11:34:13Z</time>
      </trkpt>
      <trkpt lat="45.05762" lon="6.23994">
        <ele>2313.55</ele>
        <time>2017-06-25T11:34:15Z</time>
      </trkpt>
      <trkpt lat="45.05754" lon="6.24015">
        <ele>2307.78</ele>
        <time>2017-06-25T11:34:22Z</time>
      </trkpt>
      <trkpt lat="45.05749" lon="6.24039">
        <ele>2303.46</ele>
        <time>2017-06-25T11:34:28Z</time>
      </trkpt>
      <trkpt lat="45.0574" lon="6.24062">
        <ele>2300.57</ele>
        <time>2017-06-25T11:34:34Z</time>
      </trkpt>
      <trkpt lat="45.05734" lon="6.24079">
        <ele>2298.17</ele>
        <time>2017-06-25T11:34:40Z</time>
      </trkpt>
      <trkpt lat="45.05731" lon="6.24086">
        <ele>2297.69</ele>
        <time>2017-06-25T11:34:45Z</time>
      </trkpt>
      <trkpt lat="45.05731" lon="6.24107">
        <ele>2298.17</ele>
        <time>2017-06-25T11:34:50Z</time>
      </trkpt>
      <trkpt lat="45.0573" lon="6.24134">
        <ele>2299.13</ele>
        <time>2017-06-25T11:34:57Z</time>
      </trkpt>
      <trkpt lat="45.0573" lon="6.24136">
        <ele>2298.65</ele>
        <time>2017-06-25T11:34:59Z</time>
      </trkpt>
      <trkpt lat="45.05729" lon="6.24148">
        <ele>2297.69</ele>
        <time>2017-06-25T11:35:03Z</time>
      </trkpt>
      <trkpt lat="45.05726" lon="6.24153">
        <ele>2297.21</ele>
        <time>2017-06-25T11:35:05Z</time>
      </trkpt>
      <trkpt lat="45.05716" lon="6.24175">
        <ele>2296.73</ele>
        <time>2017-06-25T11:35:12Z</time>
      </trkpt>
      <trkpt lat="45.0571" lon="6.24189">
        <ele>2297.21</ele>
        <time>2017-06-25T11:35:18Z</time>
      </trkpt>
      <trkpt lat="45.05706" lon="6.24206">
        <ele>2297.21</ele>
        <time>2017-06-25T11:35:24Z</time>
      </trkpt>
      <trkpt lat="45.05709" lon="6.24228">
        <ele>2295.28</ele>
        <time>2017-06-25T11:35:30Z</time>
      </trkpt>
      <trkpt lat="45.05712" lon="6.24244">
        <ele>2293.84</ele>
        <time>2017-06-25T11:35:34Z</time>
      </trkpt>
      <trkpt lat="45.05712" lon="6.24267">
        <ele>2291.92</ele>
        <time>2017-06-25T11:35:40Z</time>
      </trkpt>
      <trkpt lat="45.05713" lon="6.24281">
        <ele>2290</ele>
        <time>2017-06-25T11:35:44Z</time>
      </trkpt>
      <trkpt lat="45.0571" lon="6.24308">
        <ele>2285.19</ele>
        <time>2017-06-25T11:35:52Z</time>
      </trkpt>
      <trkpt lat="45.0571" lon="6.24322">
        <ele>2281.83</ele>
        <time>2017-06-25T11:35:56Z</time>
      </trkpt>
      <trkpt lat="45.05716" lon="6.24341">
        <ele>2278.46</ele>
        <time>2017-06-25T11:36:01Z</time>
      </trkpt>
      <trkpt lat="45.0572" lon="6.24373">
        <ele>2275.1</ele>
        <time>2017-06-25T11:36:09Z</time>
      </trkpt>
      <trkpt lat="45.05724" lon="6.24394">
        <ele>2273.66</ele>
        <time>2017-06-25T11:36:15Z</time>
      </trkpt>
      <trkpt lat="45.05729" lon="6.24417">
        <ele>2272.21</ele>
        <time>2017-06-25T11:36:22Z</time>
      </trkpt>
      <trkpt lat="45.05727" lon="6.24446">
        <ele>2269.33</ele>
        <time>2017-06-25T11:36:30Z</time>
      </trkpt>
      <trkpt lat="45.05729" lon="6.24473">
        <ele>2266.93</ele>
        <time>2017-06-25T11:36:37Z</time>
      </trkpt>
      <trkpt lat="45.0573" lon="6.24482">
        <ele>2265.48</ele>
        <time>2017-06-25T11:36:40Z</time>
      </trkpt>
      <trkpt lat="45.05733" lon="6.245">
        <ele>2262.12</ele>
        <time>2017-06-25T11:36:46Z</time>
      </trkpt>
      <trkpt lat="45.0573" lon="6.2451">
        <ele>2261.64</ele>
        <time>2017-06-25T11:36:50Z</time>
      </trkpt>
      <trkpt lat="45.05729" lon="6.24515">
        <ele>2260.68</ele>
        <time>2017-06-25T11:36:55Z</time>
      </trkpt>
      <trkpt lat="45.05729" lon="6.24515">
        <ele>2260.68</ele>
        <time>2017-06-25T11:37:10Z</time>
      </trkpt>
      <trkpt lat="45.0573" lon="6.24515">
        <ele>2260.68</ele>
        <time>2017-06-25T11:37:22Z</time>
      </trkpt>
      <trkpt lat="45.0573" lon="6.24514">
        <ele>2260.68</ele>
        <time>2017-06-25T11:37:34Z</time>
      </trkpt>
      <trkpt lat="45.05729" lon="6.24514">
        <ele>2260.68</ele>
        <time>2017-06-25T11:37:46Z</time>
      </trkpt>
      <trkpt lat="45.0573" lon="6.24516">
        <ele>2260.68</ele>
        <time>2017-06-25T11:37:56Z</time>
      </trkpt>
      <trkpt lat="45.05725" lon="6.24537">
        <ele>2259.24</ele>
        <time>2017-06-25T11:38:03Z</time>
      </trkpt>
      <trkpt lat="45.05724" lon="6.24557">
        <ele>2259.24</ele>
        <time>2017-06-25T11:38:09Z</time>
      </trkpt>
      <trkpt lat="45.05721" lon="6.24576">
        <ele>2258.75</ele>
        <time>2017-06-25T11:38:15Z</time>
      </trkpt>
      <trkpt lat="45.05716" lon="6.24597">
        <ele>2258.27</ele>
        <time>2017-06-25T11:38:22Z</time>
      </trkpt>
      <trkpt lat="45.05714" lon="6.24613">
        <ele>2257.79</ele>
        <time>2017-06-25T11:38:27Z</time>
      </trkpt>
      <trkpt lat="45.05712" lon="6.24622">
        <ele>2256.83</ele>
        <time>2017-06-25T11:38:30Z</time>
      </trkpt>
      <trkpt lat="45.05707" lon="6.24667">
        <ele>2246.74</ele>
        <time>2017-06-25T11:38:45Z</time>
      </trkpt>
      <trkpt lat="45.05702" lon="6.24713">
        <ele>2247.7</ele>
        <time>2017-06-25T11:38:58Z</time>
      </trkpt>
      <trkpt lat="45.05698" lon="6.24731">
        <ele>2245.3</ele>
        <time>2017-06-25T11:39:04Z</time>
      </trkpt>
      <trkpt lat="45.05694" lon="6.24754">
        <ele>2243.85</ele>
        <time>2017-06-25T11:39:11Z</time>
      </trkpt>
      <trkpt lat="45.05692" lon="6.2476">
        <ele>2243.37</ele>
        <time>2017-06-25T11:39:13Z</time>
      </trkpt>
      <trkpt lat="45.05688" lon="6.24783">
        <ele>2240.97</ele>
        <time>2017-06-25T11:39:20Z</time>
      </trkpt>
      <trkpt lat="45.05687" lon="6.24805">
        <ele>2239.05</ele>
        <time>2017-06-25T11:39:26Z</time>
      </trkpt>
      <trkpt lat="45.05683" lon="6.24831">
        <ele>2234.72</ele>
        <time>2017-06-25T11:39:33Z</time>
      </trkpt>
      <trkpt lat="45.05678" lon="6.24854">
        <ele>2230.4</ele>
        <time>2017-06-25T11:39:40Z</time>
      </trkpt>
      <trkpt lat="45.05677" lon="6.24875">
        <ele>2227.51</ele>
        <time>2017-06-25T11:39:46Z</time>
      </trkpt>
      <trkpt lat="45.05681" lon="6.24896">
        <ele>2224.15</ele>
        <time>2017-06-25T11:39:52Z</time>
      </trkpt>
      <trkpt lat="45.05689" lon="6.24919">
        <ele>2221.26</ele>
        <time>2017-06-25T11:39:59Z</time>
      </trkpt>
      <trkpt lat="45.05693" lon="6.24937">
        <ele>2218.86</ele>
        <time>2017-06-25T11:40:04Z</time>
      </trkpt>
      <trkpt lat="45.05694" lon="6.24957">
        <ele>2219.34</ele>
        <time>2017-06-25T11:40:10Z</time>
      </trkpt>
      <trkpt lat="45.0569" lon="6.24981">
        <ele>2219.34</ele>
        <time>2017-06-25T11:40:17Z</time>
      </trkpt>
      <trkpt lat="45.05686" lon="6.25006">
        <ele>2218.86</ele>
        <time>2017-06-25T11:40:24Z</time>
      </trkpt>
      <trkpt lat="45.0569" lon="6.25027">
        <ele>2217.9</ele>
        <time>2017-06-25T11:40:30Z</time>
      </trkpt>
      <trkpt lat="45.05692" lon="6.2504">
        <ele>2216.46</ele>
        <time>2017-06-25T11:40:35Z</time>
      </trkpt>
      <trkpt lat="45.05699" lon="6.25065">
        <ele>2213.57</ele>
        <time>2017-06-25T11:40:42Z</time>
      </trkpt>
      <trkpt lat="45.05702" lon="6.25086">
        <ele>2211.65</ele>
        <time>2017-06-25T11:40:48Z</time>
      </trkpt>
      <trkpt lat="45.05701" lon="6.25092">
        <ele>2211.17</ele>
        <time>2017-06-25T11:40:50Z</time>
      </trkpt>
      <trkpt lat="45.05705" lon="6.25105">
        <ele>2207.81</ele>
        <time>2017-06-25T11:40:55Z</time>
      </trkpt>
      <trkpt lat="45.05708" lon="6.25137">
        <ele>2204.44</ele>
        <time>2017-06-25T11:41:03Z</time>
      </trkpt>
      <trkpt lat="45.0571" lon="6.25154">
        <ele>2203.96</ele>
        <time>2017-06-25T11:41:08Z</time>
      </trkpt>
      <trkpt lat="45.05719" lon="6.25159">
        <ele>2203</ele>
        <time>2017-06-25T11:41:13Z</time>
      </trkpt>
      <trkpt lat="45.05723" lon="6.25161">
        <ele>2202.04</ele>
        <time>2017-06-25T11:41:15Z</time>
      </trkpt>
      <trkpt lat="45.05724" lon="6.25176">
        <ele>2201.08</ele>
        <time>2017-06-25T11:41:20Z</time>
      </trkpt>
      <trkpt lat="45.05725" lon="6.25185">
        <ele>2201.56</ele>
        <time>2017-06-25T11:41:23Z</time>
      </trkpt>
      <trkpt lat="45.05731" lon="6.25204">
        <ele>2202.52</ele>
        <time>2017-06-25T11:41:30Z</time>
      </trkpt>
      <trkpt lat="45.05739" lon="6.25216">
        <ele>2202.04</ele>
        <time>2017-06-25T11:41:35Z</time>
      </trkpt>
      <trkpt lat="45.05742" lon="6.25228">
        <ele>2201.56</ele>
        <time>2017-06-25T11:41:40Z</time>
      </trkpt>
      <trkpt lat="45.05738" lon="6.25237">
        <ele>2201.56</ele>
        <time>2017-06-25T11:41:46Z</time>
      </trkpt>
      <trkpt lat="45.05737" lon="6.25239">
        <ele>2201.56</ele>
        <time>2017-06-25T11:41:49Z</time>
      </trkpt>
      <trkpt lat="45.05735" lon="6.2524">
        <ele>2201.56</ele>
        <time>2017-06-25T11:41:51Z</time>
      </trkpt>
      <trkpt lat="45.05727" lon="6.25242">
        <ele>2201.08</ele>
        <time>2017-06-25T11:41:59Z</time>
      </trkpt>
      <trkpt lat="45.05726" lon="6.25242">
        <ele>2201.08</ele>
        <time>2017-06-25T11:42:00Z</time>
      </trkpt>
      <trkpt lat="45.05713" lon="6.25245">
        <ele>2200.11</ele>
        <time>2017-06-25T11:42:08Z</time>
      </trkpt>
      <trkpt lat="45.05697" lon="6.25254">
        <ele>2200.11</ele>
        <time>2017-06-25T11:42:17Z</time>
      </trkpt>
      <trkpt lat="45.05687" lon="6.25263">
        <ele>2200.11</ele>
        <time>2017-06-25T11:42:24Z</time>
      </trkpt>
      <trkpt lat="45.05677" lon="6.25273">
        <ele>2200.59</ele>
        <time>2017-06-25T11:42:32Z</time>
      </trkpt>
      <trkpt lat="45.05676" lon="6.25274">
        <ele>2200.59</ele>
        <time>2017-06-25T11:42:38Z</time>
      </trkpt>
      <trkpt lat="45.05673" lon="6.25278">
        <ele>2200.59</ele>
        <time>2017-06-25T11:42:41Z</time>
      </trkpt>
      <trkpt lat="45.05663" lon="6.25284">
        <ele>2200.59</ele>
        <time>2017-06-25T11:42:47Z</time>
      </trkpt>
      <trkpt lat="45.05647" lon="6.25294">
        <ele>2200.59</ele>
        <time>2017-06-25T11:42:55Z</time>
      </trkpt>
      <trkpt lat="45.05636" lon="6.25301">
        <ele>2200.59</ele>
        <time>2017-06-25T11:43:01Z</time>
      </trkpt>
      <trkpt lat="45.05624" lon="6.25311">
        <ele>2200.59</ele>
        <time>2017-06-25T11:43:07Z</time>
      </trkpt>
      <trkpt lat="45.05612" lon="6.2532">
        <ele>2199.63</ele>
        <time>2017-06-25T11:43:13Z</time>
      </trkpt>
      <trkpt lat="45.05597" lon="6.25328">
        <ele>2199.63</ele>
        <time>2017-06-25T11:43:20Z</time>
      </trkpt>
      <trkpt lat="45.05586" lon="6.2534">
        <ele>2199.15</ele>
        <time>2017-06-25T11:43:26Z</time>
      </trkpt>
      <trkpt lat="45.05573" lon="6.2535">
        <ele>2198.67</ele>
        <time>2017-06-25T11:43:32Z</time>
      </trkpt>
      <trkpt lat="45.05562" lon="6.25363">
        <ele>2198.67</ele>
        <time>2017-06-25T11:43:38Z</time>
      </trkpt>
      <trkpt lat="45.0555" lon="6.25371">
        <ele>2198.67</ele>
        <time>2017-06-25T11:43:45Z</time>
      </trkpt>
      <trkpt lat="45.05534" lon="6.2538">
        <ele>2200.11</ele>
        <time>2017-06-25T11:43:54Z</time>
      </trkpt>
      <trkpt lat="45.05523" lon="6.2539">
        <ele>2199.63</ele>
        <time>2017-06-25T11:44:00Z</time>
      </trkpt>
      <trkpt lat="45.05515" lon="6.25398">
        <ele>2198.19</ele>
        <time>2017-06-25T11:44:05Z</time>
      </trkpt>
      <trkpt lat="45.0551" lon="6.25398">
        <ele>2198.19</ele>
        <time>2017-06-25T11:44:10Z</time>
      </trkpt>
      <trkpt lat="45.05502" lon="6.25398">
        <ele>2198.67</ele>
        <time>2017-06-25T11:44:15Z</time>
      </trkpt>
      <trkpt lat="45.05481" lon="6.25404">
        <ele>2198.67</ele>
        <time>2017-06-25T11:44:24Z</time>
      </trkpt>
      <trkpt lat="45.05463" lon="6.25413">
        <ele>2200.11</ele>
        <time>2017-06-25T11:44:32Z</time>
      </trkpt>
      <trkpt lat="45.05458" lon="6.25418">
        <ele>2200.59</ele>
        <time>2017-06-25T11:44:37Z</time>
      </trkpt>
      <trkpt lat="45.05457" lon="6.25419">
        <ele>2200.59</ele>
        <time>2017-06-25T11:44:38Z</time>
      </trkpt>
      <trkpt lat="45.05455" lon="6.25419">
        <ele>2200.59</ele>
        <time>2017-06-25T11:44:40Z</time>
      </trkpt>
      <trkpt lat="45.05447" lon="6.25421">
        <ele>2201.56</ele>
        <time>2017-06-25T11:44:48Z</time>
      </trkpt>
      <trkpt lat="45.05439" lon="6.25426">
        <ele>2203</ele>
        <time>2017-06-25T11:44:56Z</time>
      </trkpt>
      <trkpt lat="45.0543" lon="6.25432">
        <ele>2204.44</ele>
        <time>2017-06-25T11:45:04Z</time>
      </trkpt>
      <trkpt lat="45.05421" lon="6.25435">
        <ele>2205.4</ele>
        <time>2017-06-25T11:45:12Z</time>
      </trkpt>
      <trkpt lat="45.05411" lon="6.25438">
        <ele>2207.32</ele>
        <time>2017-06-25T11:45:21Z</time>
      </trkpt>
      <trkpt lat="45.05409" lon="6.25439">
        <ele>2207.32</ele>
        <time>2017-06-25T11:45:23Z</time>
      </trkpt>
      <trkpt lat="45.05398" lon="6.25445">
        <ele>2209.25</ele>
        <time>2017-06-25T11:45:31Z</time>
      </trkpt>
      <trkpt lat="45.05386" lon="6.25452">
        <ele>2210.69</ele>
        <time>2017-06-25T11:45:38Z</time>
      </trkpt>
      <trkpt lat="45.05374" lon="6.25457">
        <ele>2210.69</ele>
        <time>2017-06-25T11:45:44Z</time>
      </trkpt>
      <trkpt lat="45.05362" lon="6.25464">
        <ele>2211.65</ele>
        <time>2017-06-25T11:45:51Z</time>
      </trkpt>
      <trkpt lat="45.05356" lon="6.25469">
        <ele>2211.65</ele>
        <time>2017-06-25T11:45:56Z</time>
      </trkpt>
      <trkpt lat="45.05343" lon="6.25481">
        <ele>2212.61</ele>
        <time>2017-06-25T11:46:04Z</time>
      </trkpt>
      <trkpt lat="45.0533" lon="6.25495">
        <ele>2215.5</ele>
        <time>2017-06-25T11:46:12Z</time>
      </trkpt>
      <trkpt lat="45.05325" lon="6.25499">
        <ele>2215.98</ele>
        <time>2017-06-25T11:46:15Z</time>
      </trkpt>
      <trkpt lat="45.0531" lon="6.25514">
        <ele>2218.86</ele>
        <time>2017-06-25T11:46:24Z</time>
      </trkpt>
      <trkpt lat="45.05298" lon="6.25525">
        <ele>2220.78</ele>
        <time>2017-06-25T11:46:31Z</time>
      </trkpt>
      <trkpt lat="45.05286" lon="6.25534">
        <ele>2222.71</ele>
        <time>2017-06-25T11:46:38Z</time>
      </trkpt>
      <trkpt lat="45.05285" lon="6.25536">
        <ele>2223.19</ele>
        <time>2017-06-25T11:46:39Z</time>
      </trkpt>
      <trkpt lat="45.05274" lon="6.25551">
        <ele>2224.15</ele>
        <time>2017-06-25T11:46:47Z</time>
      </trkpt>
      <trkpt lat="45.05264" lon="6.25568">
        <ele>2226.55</ele>
        <time>2017-06-25T11:46:55Z</time>
      </trkpt>
      <trkpt lat="45.05253" lon="6.25586">
        <ele>2226.55</ele>
        <time>2017-06-25T11:47:03Z</time>
      </trkpt>
      <trkpt lat="45.05249" lon="6.25593">
        <ele>2226.55</ele>
        <time>2017-06-25T11:47:06Z</time>
      </trkpt>
      <trkpt lat="45.05241" lon="6.25606">
        <ele>2227.03</ele>
        <time>2017-06-25T11:47:12Z</time>
      </trkpt>
      <trkpt lat="45.05233" lon="6.25621">
        <ele>2226.07</ele>
        <time>2017-06-25T11:47:21Z</time>
      </trkpt>
      <trkpt lat="45.05225" lon="6.25638">
        <ele>2227.51</ele>
        <time>2017-06-25T11:47:31Z</time>
      </trkpt>
      <trkpt lat="45.05217" lon="6.25653">
        <ele>2227.51</ele>
        <time>2017-06-25T11:47:41Z</time>
      </trkpt>
      <trkpt lat="45.05211" lon="6.25663">
        <ele>2227.51</ele>
        <time>2017-06-25T11:47:48Z</time>
      </trkpt>
      <trkpt lat="45.05209" lon="6.25667">
        <ele>2227.51</ele>
        <time>2017-06-25T11:47:51Z</time>
      </trkpt>
      <trkpt lat="45.05205" lon="6.25676">
        <ele>2226.55</ele>
        <time>2017-06-25T11:47:57Z</time>
      </trkpt>
      <trkpt lat="45.05202" lon="6.25689">
        <ele>2227.51</ele>
        <time>2017-06-25T11:48:05Z</time>
      </trkpt>
      <trkpt lat="45.05199" lon="6.25702">
        <ele>2227.99</ele>
        <time>2017-06-25T11:48:12Z</time>
      </trkpt>
      <trkpt lat="45.05197" lon="6.25711">
        <ele>2227.99</ele>
        <time>2017-06-25T11:48:17Z</time>
      </trkpt>
      <trkpt lat="45.0519" lon="6.25732">
        <ele>2227.51</ele>
        <time>2017-06-25T11:48:28Z</time>
      </trkpt>
      <trkpt lat="45.05187" lon="6.25745">
        <ele>2227.03</ele>
        <time>2017-06-25T11:48:36Z</time>
      </trkpt>
      <trkpt lat="45.05186" lon="6.25758">
        <ele>2225.59</ele>
        <time>2017-06-25T11:48:44Z</time>
      </trkpt>
      <trkpt lat="45.05184" lon="6.25773">
        <ele>2225.11</ele>
        <time>2017-06-25T11:48:52Z</time>
      </trkpt>
      <trkpt lat="45.05185" lon="6.25789">
        <ele>2224.15</ele>
        <time>2017-06-25T11:49:01Z</time>
      </trkpt>
      <trkpt lat="45.05188" lon="6.25801">
        <ele>2222.71</ele>
        <time>2017-06-25T11:49:09Z</time>
      </trkpt>
      <trkpt lat="45.0519" lon="6.25815">
        <ele>2221.26</ele>
        <time>2017-06-25T11:49:17Z</time>
      </trkpt>
      <trkpt lat="45.05193" lon="6.25827">
        <ele>2220.78</ele>
        <time>2017-06-25T11:49:24Z</time>
      </trkpt>
      <trkpt lat="45.05196" lon="6.25836">
        <ele>2220.3</ele>
        <time>2017-06-25T11:49:30Z</time>
      </trkpt>
      <trkpt lat="45.05197" lon="6.25845">
        <ele>2219.82</ele>
        <time>2017-06-25T11:49:35Z</time>
      </trkpt>
      <trkpt lat="45.05198" lon="6.25861">
        <ele>2218.86</ele>
        <time>2017-06-25T11:49:44Z</time>
      </trkpt>
      <trkpt lat="45.052" lon="6.25879">
        <ele>2218.86</ele>
        <time>2017-06-25T11:49:53Z</time>
      </trkpt>
      <trkpt lat="45.052" lon="6.25884">
        <ele>2218.86</ele>
        <time>2017-06-25T11:49:56Z</time>
      </trkpt>
      <trkpt lat="45.05204" lon="6.25902">
        <ele>2217.42</ele>
        <time>2017-06-25T11:50:06Z</time>
      </trkpt>
      <trkpt lat="45.05208" lon="6.25909">
        <ele>2216.46</ele>
        <time>2017-06-25T11:50:12Z</time>
      </trkpt>
      <trkpt lat="45.05212" lon="6.25919">
        <ele>2215.01</ele>
        <time>2017-06-25T11:50:18Z</time>
      </trkpt>
      <trkpt lat="45.05216" lon="6.25934">
        <ele>2212.61</ele>
        <time>2017-06-25T11:50:27Z</time>
      </trkpt>
      <trkpt lat="45.05216" lon="6.25936">
        <ele>2212.13</ele>
        <time>2017-06-25T11:50:28Z</time>
      </trkpt>
      <trkpt lat="45.05216" lon="6.25955">
        <ele>2211.65</ele>
        <time>2017-06-25T11:50:38Z</time>
      </trkpt>
      <trkpt lat="45.05218" lon="6.25972">
        <ele>2209.25</ele>
        <time>2017-06-25T11:50:47Z</time>
      </trkpt>
      <trkpt lat="45.0522" lon="6.25989">
        <ele>2209.25</ele>
        <time>2017-06-25T11:50:56Z</time>
      </trkpt>
      <trkpt lat="45.05221" lon="6.26009">
        <ele>2205.88</ele>
        <time>2017-06-25T11:51:06Z</time>
      </trkpt>
      <trkpt lat="45.05224" lon="6.26026">
        <ele>2204.44</ele>
        <time>2017-06-25T11:51:15Z</time>
      </trkpt>
      <trkpt lat="45.05224" lon="6.26028">
        <ele>2204.44</ele>
        <time>2017-06-25T11:51:16Z</time>
      </trkpt>
      <trkpt lat="45.05225" lon="6.26031">
        <ele>2204.44</ele>
        <time>2017-06-25T11:51:24Z</time>
      </trkpt>
      <trkpt lat="45.05225" lon="6.26031">
        <ele>2204.92</ele>
        <time>2017-06-25T11:51:34Z</time>
      </trkpt>
      <trkpt lat="45.05226" lon="6.26031">
        <ele>2204.92</ele>
        <time>2017-06-25T11:51:41Z</time>
      </trkpt>
      <trkpt lat="45.05226" lon="6.26031">
        <ele>2204.44</ele>
        <time>2017-06-25T11:51:55Z</time>
      </trkpt>
      <trkpt lat="45.05226" lon="6.26031">
        <ele>2204.44</ele>
        <time>2017-06-25T11:52:00Z</time>
      </trkpt>
      <trkpt lat="45.05226" lon="6.26032">
        <ele>2204.44</ele>
        <time>2017-06-25T11:52:02Z</time>
      </trkpt>
      <trkpt lat="45.05231" lon="6.26047">
        <ele>2202.52</ele>
        <time>2017-06-25T11:52:10Z</time>
      </trkpt>
      <trkpt lat="45.05239" lon="6.26071">
        <ele>2200.11</ele>
        <time>2017-06-25T11:52:18Z</time>
      </trkpt>
      <trkpt lat="45.05242" lon="6.26091">
        <ele>2197.71</ele>
        <time>2017-06-25T11:52:24Z</time>
      </trkpt>
      <trkpt lat="45.05243" lon="6.26097">
        <ele>2197.23</ele>
        <time>2017-06-25T11:52:26Z</time>
      </trkpt>
      <trkpt lat="45.05249" lon="6.26117">
        <ele>2195.31</ele>
        <time>2017-06-25T11:52:33Z</time>
      </trkpt>
      <trkpt lat="45.05254" lon="6.26131">
        <ele>2191.94</ele>
        <time>2017-06-25T11:52:39Z</time>
      </trkpt>
      <trkpt lat="45.05257" lon="6.26146">
        <ele>2187.62</ele>
        <time>2017-06-25T11:52:45Z</time>
      </trkpt>
      <trkpt lat="45.05263" lon="6.26165">
        <ele>2185.69</ele>
        <time>2017-06-25T11:52:51Z</time>
      </trkpt>
      <trkpt lat="45.05262" lon="6.26174">
        <ele>2184.25</ele>
        <time>2017-06-25T11:52:55Z</time>
      </trkpt>
      <trkpt lat="45.05261" lon="6.2618">
        <ele>2183.77</ele>
        <time>2017-06-25T11:52:57Z</time>
      </trkpt>
      <trkpt lat="45.05258" lon="6.26209">
        <ele>2182.81</ele>
        <time>2017-06-25T11:53:06Z</time>
      </trkpt>
      <trkpt lat="45.0526" lon="6.26225">
        <ele>2182.81</ele>
        <time>2017-06-25T11:53:11Z</time>
      </trkpt>
      <trkpt lat="45.05262" lon="6.26241">
        <ele>2182.81</ele>
        <time>2017-06-25T11:53:16Z</time>
      </trkpt>
      <trkpt lat="45.05265" lon="6.26262">
        <ele>2182.33</ele>
        <time>2017-06-25T11:53:23Z</time>
      </trkpt>
      <trkpt lat="45.05266" lon="6.26281">
        <ele>2181.37</ele>
        <time>2017-06-25T11:53:29Z</time>
      </trkpt>
      <trkpt lat="45.05266" lon="6.26289">
        <ele>2180.89</ele>
        <time>2017-06-25T11:53:31Z</time>
      </trkpt>
      <trkpt lat="45.05266" lon="6.26297">
        <ele>2179.93</ele>
        <time>2017-06-25T11:53:34Z</time>
      </trkpt>
      <trkpt lat="45.05267" lon="6.26312">
        <ele>2178.97</ele>
        <time>2017-06-25T11:53:41Z</time>
      </trkpt>
      <trkpt lat="45.0527" lon="6.26323">
        <ele>2177.52</ele>
        <time>2017-06-25T11:53:46Z</time>
      </trkpt>
      <trkpt lat="45.05273" lon="6.2633">
        <ele>2177.04</ele>
        <time>2017-06-25T11:53:49Z</time>
      </trkpt>
      <trkpt lat="45.05286" lon="6.26345">
        <ele>2175.12</ele>
        <time>2017-06-25T11:53:57Z</time>
      </trkpt>
      <trkpt lat="45.05296" lon="6.26357">
        <ele>2175.6</ele>
        <time>2017-06-25T11:54:03Z</time>
      </trkpt>
      <trkpt lat="45.053" lon="6.26368">
        <ele>2175.6</ele>
        <time>2017-06-25T11:54:07Z</time>
      </trkpt>
      <trkpt lat="45.05298" lon="6.26389">
        <ele>2173.68</ele>
        <time>2017-06-25T11:54:13Z</time>
      </trkpt>
      <trkpt lat="45.053" lon="6.26402">
        <ele>2172.72</ele>
        <time>2017-06-25T11:54:17Z</time>
      </trkpt>
      <trkpt lat="45.05302" lon="6.26409">
        <ele>2172.72</ele>
        <time>2017-06-25T11:54:19Z</time>
      </trkpt>
      <trkpt lat="45.05303" lon="6.26422">
        <ele>2172.24</ele>
        <time>2017-06-25T11:54:23Z</time>
      </trkpt>
      <trkpt lat="45.05309" lon="6.26447">
        <ele>2170.79</ele>
        <time>2017-06-25T11:54:31Z</time>
      </trkpt>
      <trkpt lat="45.0531" lon="6.2645">
        <ele>2170.31</ele>
        <time>2017-06-25T11:54:32Z</time>
      </trkpt>
      <trkpt lat="45.05314" lon="6.26474">
        <ele>2169.35</ele>
        <time>2017-06-25T11:54:39Z</time>
      </trkpt>
      <trkpt lat="45.05319" lon="6.26493">
        <ele>2168.87</ele>
        <time>2017-06-25T11:54:45Z</time>
      </trkpt>
      <trkpt lat="45.05321" lon="6.26496">
        <ele>2168.87</ele>
        <time>2017-06-25T11:54:46Z</time>
      </trkpt>
      <trkpt lat="45.05324" lon="6.26517">
        <ele>2168.39</ele>
        <time>2017-06-25T11:54:52Z</time>
      </trkpt>
      <trkpt lat="45.05329" lon="6.2654">
        <ele>2167.91</ele>
        <time>2017-06-25T11:54:59Z</time>
      </trkpt>
      <trkpt lat="45.05332" lon="6.26558">
        <ele>2167.43</ele>
        <time>2017-06-25T11:55:04Z</time>
      </trkpt>
      <trkpt lat="45.05332" lon="6.26585">
        <ele>2166.47</ele>
        <time>2017-06-25T11:55:11Z</time>
      </trkpt>
      <trkpt lat="45.0533" lon="6.266">
        <ele>2165.03</ele>
        <time>2017-06-25T11:55:15Z</time>
      </trkpt>
      <trkpt lat="45.05325" lon="6.26621">
        <ele>2165.03</ele>
        <time>2017-06-25T11:55:21Z</time>
      </trkpt>
      <trkpt lat="45.05324" lon="6.26626">
        <ele>2165.51</ele>
        <time>2017-06-25T11:55:23Z</time>
      </trkpt>
      <trkpt lat="45.05326" lon="6.26626">
        <ele>2165.03</ele>
        <time>2017-06-25T11:55:30Z</time>
      </trkpt>
      <trkpt lat="45.05324" lon="6.26626">
        <ele>2165.03</ele>
        <time>2017-06-25T11:55:38Z</time>
      </trkpt>
      <trkpt lat="45.05326" lon="6.26625">
        <ele>2165.03</ele>
        <time>2017-06-25T11:55:42Z</time>
      </trkpt>
      <trkpt lat="45.05326" lon="6.26625">
        <ele>2165.03</ele>
        <time>2017-06-25T11:55:51Z</time>
      </trkpt>
      <trkpt lat="45.05326" lon="6.26625">
        <ele>2164.06</ele>
        <time>2017-06-25T11:56:04Z</time>
      </trkpt>
      <trkpt lat="45.05326" lon="6.26625">
        <ele>2164.06</ele>
        <time>2017-06-25T11:56:13Z</time>
      </trkpt>
      <trkpt lat="45.05325" lon="6.26627">
        <ele>2164.06</ele>
        <time>2017-06-25T11:56:18Z</time>
      </trkpt>
      <trkpt lat="45.05325" lon="6.26631">
        <ele>2163.58</ele>
        <time>2017-06-25T11:56:23Z</time>
      </trkpt>
      <trkpt lat="45.05326" lon="6.26642">
        <ele>2162.62</ele>
        <time>2017-06-25T11:56:31Z</time>
      </trkpt>
      <trkpt lat="45.05326" lon="6.26642">
        <ele>2162.62</ele>
        <time>2017-06-25T11:56:35Z</time>
      </trkpt>
      <trkpt lat="45.05325" lon="6.26649">
        <ele>2162.14</ele>
        <time>2017-06-25T11:56:38Z</time>
      </trkpt>
      <trkpt lat="45.05319" lon="6.26669">
        <ele>2158.78</ele>
        <time>2017-06-25T11:56:45Z</time>
      </trkpt>
      <trkpt lat="45.05317" lon="6.26675">
        <ele>2157.34</ele>
        <time>2017-06-25T11:56:50Z</time>
      </trkpt>
      <trkpt lat="45.05315" lon="6.26691">
        <ele>2154.93</ele>
        <time>2017-06-25T11:56:56Z</time>
      </trkpt>
      <trkpt lat="45.05315" lon="6.26702">
        <ele>2152.53</ele>
        <time>2017-06-25T11:57:00Z</time>
      </trkpt>
      <trkpt lat="45.05314" lon="6.26707">
        <ele>2151.57</ele>
        <time>2017-06-25T11:57:02Z</time>
      </trkpt>
      <trkpt lat="45.05312" lon="6.26712">
        <ele>2150.61</ele>
        <time>2017-06-25T11:57:06Z</time>
      </trkpt>
      <trkpt lat="45.05309" lon="6.26732">
        <ele>2147.24</ele>
        <time>2017-06-25T11:57:13Z</time>
      </trkpt>
      <trkpt lat="45.05305" lon="6.26751">
        <ele>2141.95</ele>
        <time>2017-06-25T11:57:19Z</time>
      </trkpt>
      <trkpt lat="45.05303" lon="6.26759">
        <ele>2140.51</ele>
        <time>2017-06-25T11:57:22Z</time>
      </trkpt>
      <trkpt lat="45.05295" lon="6.26777">
        <ele>2136.67</ele>
        <time>2017-06-25T11:57:29Z</time>
      </trkpt>
      <trkpt lat="45.05293" lon="6.2678">
        <ele>2135.71</ele>
        <time>2017-06-25T11:57:30Z</time>
      </trkpt>
      <trkpt lat="45.0529" lon="6.26785">
        <ele>2134.74</ele>
        <time>2017-06-25T11:57:32Z</time>
      </trkpt>
      <trkpt lat="45.05286" lon="6.26804">
        <ele>2130.42</ele>
        <time>2017-06-25T11:57:38Z</time>
      </trkpt>
      <trkpt lat="45.05287" lon="6.26831">
        <ele>2125.61</ele>
        <time>2017-06-25T11:57:45Z</time>
      </trkpt>
      <trkpt lat="45.05286" lon="6.2686">
        <ele>2123.21</ele>
        <time>2017-06-25T11:57:52Z</time>
      </trkpt>
      <trkpt lat="45.05282" lon="6.26884">
        <ele>2120.32</ele>
        <time>2017-06-25T11:57:59Z</time>
      </trkpt>
      <trkpt lat="45.05277" lon="6.26901">
        <ele>2118.4</ele>
        <time>2017-06-25T11:58:05Z</time>
      </trkpt>
      <trkpt lat="45.05276" lon="6.26907">
        <ele>2117.44</ele>
        <time>2017-06-25T11:58:07Z</time>
      </trkpt>
      <trkpt lat="45.05268" lon="6.26915">
        <ele>2116.96</ele>
        <time>2017-06-25T11:58:12Z</time>
      </trkpt>
      <trkpt lat="45.05267" lon="6.26918">
        <ele>2116.96</ele>
        <time>2017-06-25T11:58:13Z</time>
      </trkpt>
      <trkpt lat="45.0527" lon="6.26931">
        <ele>2115.04</ele>
        <time>2017-06-25T11:58:18Z</time>
      </trkpt>
      <trkpt lat="45.05268" lon="6.26945">
        <ele>2112.63</ele>
        <time>2017-06-25T11:58:24Z</time>
      </trkpt>
      <trkpt lat="45.05263" lon="6.26951">
        <ele>2112.63</ele>
        <time>2017-06-25T11:58:27Z</time>
      </trkpt>
      <trkpt lat="45.05253" lon="6.26968">
        <ele>2109.27</ele>
        <time>2017-06-25T11:58:34Z</time>
      </trkpt>
      <trkpt lat="45.05244" lon="6.26982">
        <ele>2104.46</ele>
        <time>2017-06-25T11:58:40Z</time>
      </trkpt>
      <trkpt lat="45.05234" lon="6.26995">
        <ele>2102.54</ele>
        <time>2017-06-25T11:58:46Z</time>
      </trkpt>
      <trkpt lat="45.05221" lon="6.27015">
        <ele>2099.18</ele>
        <time>2017-06-25T11:58:53Z</time>
      </trkpt>
      <trkpt lat="45.05216" lon="6.27033">
        <ele>2096.77</ele>
        <time>2017-06-25T11:58:59Z</time>
      </trkpt>
      <trkpt lat="45.05213" lon="6.27042">
        <ele>2096.77</ele>
        <time>2017-06-25T11:59:02Z</time>
      </trkpt>
      <trkpt lat="45.0521" lon="6.27054">
        <ele>2095.81</ele>
        <time>2017-06-25T11:59:07Z</time>
      </trkpt>
      <trkpt lat="45.05209" lon="6.27056">
        <ele>2095.81</ele>
        <time>2017-06-25T11:59:08Z</time>
      </trkpt>
      <trkpt lat="45.05207" lon="6.27077">
        <ele>2093.41</ele>
        <time>2017-06-25T11:59:15Z</time>
      </trkpt>
      <trkpt lat="45.05198" lon="6.27093">
        <ele>2091.49</ele>
        <time>2017-06-25T11:59:21Z</time>
      </trkpt>
      <trkpt lat="45.05194" lon="6.27115">
        <ele>2091</ele>
        <time>2017-06-25T11:59:28Z</time>
      </trkpt>
      <trkpt lat="45.05187" lon="6.27135">
        <ele>2091</ele>
        <time>2017-06-25T11:59:35Z</time>
      </trkpt>
      <trkpt lat="45.05182" lon="6.27155">
        <ele>2089.56</ele>
        <time>2017-06-25T11:59:41Z</time>
      </trkpt>
      <trkpt lat="45.05178" lon="6.27161">
        <ele>2089.08</ele>
        <time>2017-06-25T11:59:44Z</time>
      </trkpt>
      <trkpt lat="45.05177" lon="6.27181">
        <ele>2088.12</ele>
        <time>2017-06-25T11:59:50Z</time>
      </trkpt>
      <trkpt lat="45.05178" lon="6.272">
        <ele>2086.68</ele>
        <time>2017-06-25T11:59:56Z</time>
      </trkpt>
      <trkpt lat="45.05177" lon="6.27201">
        <ele>2085.72</ele>
        <time>2017-06-25T12:00:01Z</time>
      </trkpt>
      <trkpt lat="45.05176" lon="6.27207">
        <ele>2084.76</ele>
        <time>2017-06-25T12:00:08Z</time>
      </trkpt>
      <trkpt lat="45.05177" lon="6.2721">
        <ele>2084.76</ele>
        <time>2017-06-25T12:00:09Z</time>
      </trkpt>
      <trkpt lat="45.05168" lon="6.27222">
        <ele>2083.31</ele>
        <time>2017-06-25T12:00:15Z</time>
      </trkpt>
      <trkpt lat="45.0516" lon="6.27235">
        <ele>2082.35</ele>
        <time>2017-06-25T12:00:20Z</time>
      </trkpt>
      <trkpt lat="45.05155" lon="6.27249">
        <ele>2080.91</ele>
        <time>2017-06-25T12:00:25Z</time>
      </trkpt>
      <trkpt lat="45.05151" lon="6.2726">
        <ele>2079.47</ele>
        <time>2017-06-25T12:00:29Z</time>
      </trkpt>
      <trkpt lat="45.0515" lon="6.27266">
        <ele>2078.03</ele>
        <time>2017-06-25T12:00:31Z</time>
      </trkpt>
      <trkpt lat="45.05145" lon="6.27285">
        <ele>2075.14</ele>
        <time>2017-06-25T12:00:37Z</time>
      </trkpt>
      <trkpt lat="45.05141" lon="6.27298">
        <ele>2074.66</ele>
        <time>2017-06-25T12:00:41Z</time>
      </trkpt>
      <trkpt lat="45.05132" lon="6.27317">
        <ele>2071.3</ele>
        <time>2017-06-25T12:00:48Z</time>
      </trkpt>
      <trkpt lat="45.05122" lon="6.27326">
        <ele>2069.38</ele>
        <time>2017-06-25T12:00:52Z</time>
      </trkpt>
      <trkpt lat="45.05107" lon="6.27336">
        <ele>2066.49</ele>
        <time>2017-06-25T12:00:58Z</time>
      </trkpt>
      <trkpt lat="45.05091" lon="6.27353">
        <ele>2061.68</ele>
        <time>2017-06-25T12:01:06Z</time>
      </trkpt>
      <trkpt lat="45.05087" lon="6.27356">
        <ele>2060.72</ele>
        <time>2017-06-25T12:01:08Z</time>
      </trkpt>
      <trkpt lat="45.05087" lon="6.27361">
        <ele>2060.24</ele>
        <time>2017-06-25T12:01:12Z</time>
      </trkpt>
      <trkpt lat="45.05086" lon="6.27361">
        <ele>2060.24</ele>
        <time>2017-06-25T12:01:15Z</time>
      </trkpt>
      <trkpt lat="45.05087" lon="6.27369">
        <ele>2059.28</ele>
        <time>2017-06-25T12:01:20Z</time>
      </trkpt>
      <trkpt lat="45.05086" lon="6.27376">
        <ele>2057.36</ele>
        <time>2017-06-25T12:01:25Z</time>
      </trkpt>
      <trkpt lat="45.05085" lon="6.27376">
        <ele>2057.36</ele>
        <time>2017-06-25T12:01:33Z</time>
      </trkpt>
      <trkpt lat="45.05085" lon="6.27376">
        <ele>2058.32</ele>
        <time>2017-06-25T12:01:44Z</time>
      </trkpt>
      <trkpt lat="45.05085" lon="6.27379">
        <ele>2058.32</ele>
        <time>2017-06-25T12:01:46Z</time>
      </trkpt>
      <trkpt lat="45.05087" lon="6.27387">
        <ele>2057.36</ele>
        <time>2017-06-25T12:01:51Z</time>
      </trkpt>
      <trkpt lat="45.05089" lon="6.2739">
        <ele>2055.92</ele>
        <time>2017-06-25T12:01:58Z</time>
      </trkpt>
      <trkpt lat="45.05088" lon="6.27392">
        <ele>2055.44</ele>
        <time>2017-06-25T12:02:00Z</time>
      </trkpt>
      <trkpt lat="45.05081" lon="6.274">
        <ele>2052.07</ele>
        <time>2017-06-25T12:02:05Z</time>
      </trkpt>
      <trkpt lat="45.05078" lon="6.27401">
        <ele>2049.67</ele>
        <time>2017-06-25T12:02:07Z</time>
      </trkpt>
      <trkpt lat="45.05068" lon="6.27409">
        <ele>2044.86</ele>
        <time>2017-06-25T12:02:12Z</time>
      </trkpt>
      <trkpt lat="45.05061" lon="6.27418">
        <ele>2041.5</ele>
        <time>2017-06-25T12:02:17Z</time>
      </trkpt>
      <trkpt lat="45.05061" lon="6.27416">
        <ele>2040.54</ele>
        <time>2017-06-25T12:02:23Z</time>
      </trkpt>
      <trkpt lat="45.05054" lon="6.27426">
        <ele>2039.09</ele>
        <time>2017-06-25T12:02:29Z</time>
      </trkpt>
      <trkpt lat="45.05044" lon="6.27435">
        <ele>2036.69</ele>
        <time>2017-06-25T12:02:35Z</time>
      </trkpt>
      <trkpt lat="45.05036" lon="6.27437">
        <ele>2035.73</ele>
        <time>2017-06-25T12:02:39Z</time>
      </trkpt>
      <trkpt lat="45.05036" lon="6.27445">
        <ele>2033.33</ele>
        <time>2017-06-25T12:02:44Z</time>
      </trkpt>
      <trkpt lat="45.05038" lon="6.27447">
        <ele>2032.84</ele>
        <time>2017-06-25T12:02:45Z</time>
      </trkpt>
      <trkpt lat="45.05047" lon="6.27456">
        <ele>2031.88</ele>
        <time>2017-06-25T12:02:51Z</time>
      </trkpt>
      <trkpt lat="45.0505" lon="6.27465">
        <ele>2030.44</ele>
        <time>2017-06-25T12:02:55Z</time>
      </trkpt>
      <trkpt lat="45.05045" lon="6.27475">
        <ele>2029</ele>
        <time>2017-06-25T12:02:59Z</time>
      </trkpt>
      <trkpt lat="45.05046" lon="6.27485">
        <ele>2027.08</ele>
        <time>2017-06-25T12:03:04Z</time>
      </trkpt>
      <trkpt lat="45.05041" lon="6.27489">
        <ele>2025.15</ele>
        <time>2017-06-25T12:03:08Z</time>
      </trkpt>
      <trkpt lat="45.05047" lon="6.27503">
        <ele>2023.71</ele>
        <time>2017-06-25T12:03:13Z</time>
      </trkpt>
      <trkpt lat="45.0506" lon="6.27507">
        <ele>2022.27</ele>
        <time>2017-06-25T12:03:18Z</time>
      </trkpt>
      <trkpt lat="45.05065" lon="6.27509">
        <ele>2021.31</ele>
        <time>2017-06-25T12:03:20Z</time>
      </trkpt>
      <trkpt lat="45.0508" lon="6.27525">
        <ele>2016.98</ele>
        <time>2017-06-25T12:03:27Z</time>
      </trkpt>
      <trkpt lat="45.05093" lon="6.27548">
        <ele>2014.1</ele>
        <time>2017-06-25T12:03:35Z</time>
      </trkpt>
      <trkpt lat="45.051" lon="6.27565">
        <ele>2011.22</ele>
        <time>2017-06-25T12:03:41Z</time>
      </trkpt>
      <trkpt lat="45.05103" lon="6.27576">
        <ele>2008.81</ele>
        <time>2017-06-25T12:03:45Z</time>
      </trkpt>
      <trkpt lat="45.05106" lon="6.27585">
        <ele>2006.41</ele>
        <time>2017-06-25T12:03:49Z</time>
      </trkpt>
      <trkpt lat="45.0511" lon="6.27603">
        <ele>2003.52</ele>
        <time>2017-06-25T12:03:55Z</time>
      </trkpt>
      <trkpt lat="45.05112" lon="6.27606">
        <ele>2003.52</ele>
        <time>2017-06-25T12:03:56Z</time>
      </trkpt>
      <trkpt lat="45.05116" lon="6.27621">
        <ele>2001.6</ele>
        <time>2017-06-25T12:04:01Z</time>
      </trkpt>
      <trkpt lat="45.0512" lon="6.27642">
        <ele>1998.24</ele>
        <time>2017-06-25T12:04:07Z</time>
      </trkpt>
      <trkpt lat="45.05126" lon="6.27662">
        <ele>1994.39</ele>
        <time>2017-06-25T12:04:13Z</time>
      </trkpt>
      <trkpt lat="45.05128" lon="6.27674">
        <ele>1991.99</ele>
        <time>2017-06-25T12:04:17Z</time>
      </trkpt>
      <trkpt lat="45.05138" lon="6.27684">
        <ele>1990.55</ele>
        <time>2017-06-25T12:04:23Z</time>
      </trkpt>
      <trkpt lat="45.05147" lon="6.27689">
        <ele>1987.66</ele>
        <time>2017-06-25T12:04:28Z</time>
      </trkpt>
      <trkpt lat="45.05148" lon="6.27697">
        <ele>1985.74</ele>
        <time>2017-06-25T12:04:32Z</time>
      </trkpt>
      <trkpt lat="45.05144" lon="6.27711">
        <ele>1983.34</ele>
        <time>2017-06-25T12:04:38Z</time>
      </trkpt>
      <trkpt lat="45.05143" lon="6.2772">
        <ele>1980.93</ele>
        <time>2017-06-25T12:04:42Z</time>
      </trkpt>
      <trkpt lat="45.0515" lon="6.27715">
        <ele>1979.01</ele>
        <time>2017-06-25T12:04:46Z</time>
      </trkpt>
      <trkpt lat="45.05166" lon="6.27706">
        <ele>1975.17</ele>
        <time>2017-06-25T12:04:53Z</time>
      </trkpt>
      <trkpt lat="45.05179" lon="6.27692">
        <ele>1972.28</ele>
        <time>2017-06-25T12:05:00Z</time>
      </trkpt>
      <trkpt lat="45.05196" lon="6.27676">
        <ele>1968.44</ele>
        <time>2017-06-25T12:05:08Z</time>
      </trkpt>
      <trkpt lat="45.05204" lon="6.27672">
        <ele>1966.99</ele>
        <time>2017-06-25T12:05:11Z</time>
      </trkpt>
      <trkpt lat="45.05217" lon="6.27669">
        <ele>1965.07</ele>
        <time>2017-06-25T12:05:16Z</time>
      </trkpt>
      <trkpt lat="45.05231" lon="6.27668">
        <ele>1963.15</ele>
        <time>2017-06-25T12:05:21Z</time>
      </trkpt>
      <trkpt lat="45.05244" lon="6.27663">
        <ele>1961.23</ele>
        <time>2017-06-25T12:05:27Z</time>
      </trkpt>
      <trkpt lat="45.05252" lon="6.27669">
        <ele>1959.3</ele>
        <time>2017-06-25T12:05:32Z</time>
      </trkpt>
      <trkpt lat="45.05252" lon="6.2767">
        <ele>1958.82</ele>
        <time>2017-06-25T12:05:38Z</time>
      </trkpt>
      <trkpt lat="45.05252" lon="6.27671">
        <ele>1958.82</ele>
        <time>2017-06-25T12:05:45Z</time>
      </trkpt>
      <trkpt lat="45.05252" lon="6.27671">
        <ele>1958.34</ele>
        <time>2017-06-25T12:05:52Z</time>
      </trkpt>
      <trkpt lat="45.05252" lon="6.27672">
        <ele>1958.34</ele>
        <time>2017-06-25T12:06:03Z</time>
      </trkpt>
      <trkpt lat="45.05251" lon="6.27684">
        <ele>1957.86</ele>
        <time>2017-06-25T12:06:10Z</time>
      </trkpt>
      <trkpt lat="45.05249" lon="6.27689">
        <ele>1956.9</ele>
        <time>2017-06-25T12:06:14Z</time>
      </trkpt>
      <trkpt lat="45.05244" lon="6.27693">
        <ele>1954.02</ele>
        <time>2017-06-25T12:06:21Z</time>
      </trkpt>
      <trkpt lat="45.05244" lon="6.27693">
        <ele>1953.54</ele>
        <time>2017-06-25T12:06:25Z</time>
      </trkpt>
      <trkpt lat="45.0524" lon="6.27701">
        <ele>1952.09</ele>
        <time>2017-06-25T12:06:33Z</time>
      </trkpt>
      <trkpt lat="45.05236" lon="6.27704">
        <ele>1951.61</ele>
        <time>2017-06-25T12:06:36Z</time>
      </trkpt>
      <trkpt lat="45.05228" lon="6.27724">
        <ele>1948.25</ele>
        <time>2017-06-25T12:06:44Z</time>
      </trkpt>
      <trkpt lat="45.05228" lon="6.27743">
        <ele>1945.85</ele>
        <time>2017-06-25T12:06:50Z</time>
      </trkpt>
      <trkpt lat="45.05234" lon="6.27763">
        <ele>1943.44</ele>
        <time>2017-06-25T12:06:57Z</time>
      </trkpt>
      <trkpt lat="45.05234" lon="6.27766">
        <ele>1942.96</ele>
        <time>2017-06-25T12:06:58Z</time>
      </trkpt>
      <trkpt lat="45.05232" lon="6.27775">
        <ele>1939.6</ele>
        <time>2017-06-25T12:07:04Z</time>
      </trkpt>
      <trkpt lat="45.05233" lon="6.27775">
        <ele>1939.6</ele>
        <time>2017-06-25T12:07:05Z</time>
      </trkpt>
      <trkpt lat="45.0524" lon="6.27777">
        <ele>1938.16</ele>
        <time>2017-06-25T12:07:10Z</time>
      </trkpt>
      <trkpt lat="45.05252" lon="6.27783">
        <ele>1935.27</ele>
        <time>2017-06-25T12:07:17Z</time>
      </trkpt>
      <trkpt lat="45.05268" lon="6.27776">
        <ele>1932.39</ele>
        <time>2017-06-25T12:07:25Z</time>
      </trkpt>
      <trkpt lat="45.0527" lon="6.27775">
        <ele>1931.91</ele>
        <time>2017-06-25T12:07:26Z</time>
      </trkpt>
      <trkpt lat="45.05283" lon="6.27764">
        <ele>1928.54</ele>
        <time>2017-06-25T12:07:34Z</time>
      </trkpt>
      <trkpt lat="45.0529" lon="6.27763">
        <ele>1927.1</ele>
        <time>2017-06-25T12:07:37Z</time>
      </trkpt>
      <trkpt lat="45.05298" lon="6.27759">
        <ele>1925.18</ele>
        <time>2017-06-25T12:07:41Z</time>
      </trkpt>
      <trkpt lat="45.05306" lon="6.27746">
        <ele>1922.29</ele>
        <time>2017-06-25T12:07:47Z</time>
      </trkpt>
      <trkpt lat="45.05308" lon="6.27738">
        <ele>1920.85</ele>
        <time>2017-06-25T12:07:51Z</time>
      </trkpt>
      <trkpt lat="45.05312" lon="6.27754">
        <ele>1917.01</ele>
        <time>2017-06-25T12:07:58Z</time>
      </trkpt>
      <trkpt lat="45.05311" lon="6.27759">
        <ele>1916.04</ele>
        <time>2017-06-25T12:08:00Z</time>
      </trkpt>
      <trkpt lat="45.05309" lon="6.27767">
        <ele>1914.6</ele>
        <time>2017-06-25T12:08:03Z</time>
      </trkpt>
      <trkpt lat="45.05308" lon="6.27774">
        <ele>1912.68</ele>
        <time>2017-06-25T12:08:06Z</time>
      </trkpt>
      <trkpt lat="45.05311" lon="6.27775">
        <ele>1911.24</ele>
        <time>2017-06-25T12:08:10Z</time>
      </trkpt>
      <trkpt lat="45.05318" lon="6.27769">
        <ele>1909.8</ele>
        <time>2017-06-25T12:08:15Z</time>
      </trkpt>
      <trkpt lat="45.05325" lon="6.27761">
        <ele>1907.39</ele>
        <time>2017-06-25T12:08:21Z</time>
      </trkpt>
      <trkpt lat="45.05326" lon="6.27766">
        <ele>1906.43</ele>
        <time>2017-06-25T12:08:24Z</time>
      </trkpt>
      <trkpt lat="45.05326" lon="6.27768">
        <ele>1906.43</ele>
        <time>2017-06-25T12:08:25Z</time>
      </trkpt>
      <trkpt lat="45.05324" lon="6.27791">
        <ele>1903.55</ele>
        <time>2017-06-25T12:08:33Z</time>
      </trkpt>
      <trkpt lat="45.05321" lon="6.27812">
        <ele>1901.63</ele>
        <time>2017-06-25T12:08:40Z</time>
      </trkpt>
      <trkpt lat="45.05319" lon="6.27827">
        <ele>1900.18</ele>
        <time>2017-06-25T12:08:45Z</time>
      </trkpt>
      <trkpt lat="45.05316" lon="6.27849">
        <ele>1897.3</ele>
        <time>2017-06-25T12:08:52Z</time>
      </trkpt>
      <trkpt lat="45.05315" lon="6.27852">
        <ele>1896.82</ele>
        <time>2017-06-25T12:08:53Z</time>
      </trkpt>
      <trkpt lat="45.05315" lon="6.27858">
        <ele>1895.38</ele>
        <time>2017-06-25T12:08:57Z</time>
      </trkpt>
      <trkpt lat="45.05321" lon="6.27853">
        <ele>1893.45</ele>
        <time>2017-06-25T12:09:01Z</time>
      </trkpt>
      <trkpt lat="45.05332" lon="6.27839">
        <ele>1890.09</ele>
        <time>2017-06-25T12:09:09Z</time>
      </trkpt>
      <trkpt lat="45.0534" lon="6.27824">
        <ele>1887.69</ele>
        <time>2017-06-25T12:09:15Z</time>
      </trkpt>
      <trkpt lat="45.05352" lon="6.27809">
        <ele>1885.28</ele>
        <time>2017-06-25T12:09:22Z</time>
      </trkpt>
      <trkpt lat="45.05358" lon="6.27797">
        <ele>1882.88</ele>
        <time>2017-06-25T12:09:27Z</time>
      </trkpt>
      <trkpt lat="45.05359" lon="6.27793">
        <ele>1881.92</ele>
        <time>2017-06-25T12:09:30Z</time>
      </trkpt>
      <trkpt lat="45.05362" lon="6.27802">
        <ele>1881.44</ele>
        <time>2017-06-25T12:09:35Z</time>
      </trkpt>
      <trkpt lat="45.05362" lon="6.27811">
        <ele>1880.96</ele>
        <time>2017-06-25T12:09:39Z</time>
      </trkpt>
      <trkpt lat="45.05361" lon="6.27817">
        <ele>1880.96</ele>
        <time>2017-06-25T12:09:42Z</time>
      </trkpt>
      <trkpt lat="45.05358" lon="6.27831">
        <ele>1879.51</ele>
        <time>2017-06-25T12:09:48Z</time>
      </trkpt>
      <trkpt lat="45.05356" lon="6.27841">
        <ele>1875.19</ele>
        <time>2017-06-25T12:09:54Z</time>
      </trkpt>
      <trkpt lat="45.05355" lon="6.27842">
        <ele>1874.71</ele>
        <time>2017-06-25T12:10:01Z</time>
      </trkpt>
      <trkpt lat="45.05355" lon="6.27843">
        <ele>1874.23</ele>
        <time>2017-06-25T12:10:02Z</time>
      </trkpt>
      <trkpt lat="45.05355" lon="6.27862">
        <ele>1870.38</ele>
        <time>2017-06-25T12:10:10Z</time>
      </trkpt>
      <trkpt lat="45.05355" lon="6.27879">
        <ele>1867.98</ele>
        <time>2017-06-25T12:10:16Z</time>
      </trkpt>
      <trkpt lat="45.05354" lon="6.27902">
        <ele>1865.58</ele>
        <time>2017-06-25T12:10:23Z</time>
      </trkpt>
      <trkpt lat="45.05354" lon="6.27904">
        <ele>1865.09</ele>
        <time>2017-06-25T12:10:24Z</time>
      </trkpt>
      <trkpt lat="45.05353" lon="6.27909">
        <ele>1864.61</ele>
        <time>2017-06-25T12:10:26Z</time>
      </trkpt>
      <trkpt lat="45.05359" lon="6.27914">
        <ele>1864.13</ele>
        <time>2017-06-25T12:10:31Z</time>
      </trkpt>
      <trkpt lat="45.05364" lon="6.2791">
        <ele>1861.25</ele>
        <time>2017-06-25T12:10:36Z</time>
      </trkpt>
      <trkpt lat="45.05366" lon="6.27908">
        <ele>1860.77</ele>
        <time>2017-06-25T12:10:38Z</time>
      </trkpt>
      <trkpt lat="45.0537" lon="6.279">
        <ele>1858.85</ele>
        <time>2017-06-25T12:10:42Z</time>
      </trkpt>
      <trkpt lat="45.05374" lon="6.27892">
        <ele>1857.4</ele>
        <time>2017-06-25T12:10:45Z</time>
      </trkpt>
      <trkpt lat="45.05383" lon="6.27871">
        <ele>1854.52</ele>
        <time>2017-06-25T12:10:53Z</time>
      </trkpt>
      <trkpt lat="45.05393" lon="6.27855">
        <ele>1852.6</ele>
        <time>2017-06-25T12:11:00Z</time>
      </trkpt>
      <trkpt lat="45.05403" lon="6.27834">
        <ele>1850.19</ele>
        <time>2017-06-25T12:11:07Z</time>
      </trkpt>
      <trkpt lat="45.05406" lon="6.2783">
        <ele>1849.23</ele>
        <time>2017-06-25T12:11:09Z</time>
      </trkpt>
      <trkpt lat="45.05408" lon="6.27839">
        <ele>1848.27</ele>
        <time>2017-06-25T12:11:14Z</time>
      </trkpt>
      <trkpt lat="45.05411" lon="6.2785">
        <ele>1847.79</ele>
        <time>2017-06-25T12:11:19Z</time>
      </trkpt>
      <trkpt lat="45.05414" lon="6.27859">
        <ele>1847.31</ele>
        <time>2017-06-25T12:11:23Z</time>
      </trkpt>
      <trkpt lat="45.05413" lon="6.27879">
        <ele>1845.39</ele>
        <time>2017-06-25T12:11:32Z</time>
      </trkpt>
      <trkpt lat="45.05411" lon="6.27896">
        <ele>1842.5</ele>
        <time>2017-06-25T12:11:40Z</time>
      </trkpt>
      <trkpt lat="45.05412" lon="6.27914">
        <ele>1839.62</ele>
        <time>2017-06-25T12:11:46Z</time>
      </trkpt>
      <trkpt lat="45.05414" lon="6.27931">
        <ele>1836.74</ele>
        <time>2017-06-25T12:11:52Z</time>
      </trkpt>
      <trkpt lat="45.05418" lon="6.2794">
        <ele>1835.29</ele>
        <time>2017-06-25T12:11:57Z</time>
      </trkpt>
      <trkpt lat="45.05424" lon="6.27926">
        <ele>1831.93</ele>
        <time>2017-06-25T12:12:03Z</time>
      </trkpt>
      <trkpt lat="45.05429" lon="6.27928">
        <ele>1830.49</ele>
        <time>2017-06-25T12:12:07Z</time>
      </trkpt>
      <trkpt lat="45.05431" lon="6.27933">
        <ele>1829.53</ele>
        <time>2017-06-25T12:12:10Z</time>
      </trkpt>
      <trkpt lat="45.05432" lon="6.27937">
        <ele>1829.05</ele>
        <time>2017-06-25T12:12:13Z</time>
      </trkpt>
      <trkpt lat="45.05431" lon="6.27942">
        <ele>1827.6</ele>
        <time>2017-06-25T12:12:16Z</time>
      </trkpt>
      <trkpt lat="45.05433" lon="6.27955">
        <ele>1823.76</ele>
        <time>2017-06-25T12:12:23Z</time>
      </trkpt>
      <trkpt lat="45.05423" lon="6.27969">
        <ele>1821.35</ele>
        <time>2017-06-25T12:12:33Z</time>
      </trkpt>
      <trkpt lat="45.05417" lon="6.27982">
        <ele>1818.47</ele>
        <time>2017-06-25T12:12:41Z</time>
      </trkpt>
      <trkpt lat="45.05408" lon="6.27996">
        <ele>1815.59</ele>
        <time>2017-06-25T12:12:49Z</time>
      </trkpt>
      <trkpt lat="45.05398" lon="6.28017">
        <ele>1811.74</ele>
        <time>2017-06-25T12:12:57Z</time>
      </trkpt>
      <trkpt lat="45.05392" lon="6.28035">
        <ele>1808.86</ele>
        <time>2017-06-25T12:13:04Z</time>
      </trkpt>
      <trkpt lat="45.05392" lon="6.28037">
        <ele>1808.86</ele>
        <time>2017-06-25T12:13:05Z</time>
      </trkpt>
      <trkpt lat="45.05392" lon="6.28043">
        <ele>1808.38</ele>
        <time>2017-06-25T12:13:08Z</time>
      </trkpt>
      <trkpt lat="45.05394" lon="6.28049">
        <ele>1808.38</ele>
        <time>2017-06-25T12:13:13Z</time>
      </trkpt>
      <trkpt lat="45.05399" lon="6.28046">
        <ele>1807.42</ele>
        <time>2017-06-25T12:13:18Z</time>
      </trkpt>
      <trkpt lat="45.05404" lon="6.28046">
        <ele>1806.45</ele>
        <time>2017-06-25T12:13:23Z</time>
      </trkpt>
      <trkpt lat="45.05404" lon="6.28046">
        <ele>1806.94</ele>
        <time>2017-06-25T12:13:33Z</time>
      </trkpt>
      <trkpt lat="45.05405" lon="6.28046">
        <ele>1808.38</ele>
        <time>2017-06-25T12:13:44Z</time>
      </trkpt>
      <trkpt lat="45.05405" lon="6.28047">
        <ele>1808.86</ele>
        <time>2017-06-25T12:13:58Z</time>
      </trkpt>
      <trkpt lat="45.05408" lon="6.28047">
        <ele>1808.38</ele>
        <time>2017-06-25T12:14:04Z</time>
      </trkpt>
      <trkpt lat="45.05417" lon="6.28045">
        <ele>1805.49</ele>
        <time>2017-06-25T12:14:10Z</time>
      </trkpt>
      <trkpt lat="45.05425" lon="6.28041">
        <ele>1803.57</ele>
        <time>2017-06-25T12:14:15Z</time>
      </trkpt>
      <trkpt lat="45.05434" lon="6.28034">
        <ele>1799.73</ele>
        <time>2017-06-25T12:14:21Z</time>
      </trkpt>
      <trkpt lat="45.0544" lon="6.28029">
        <ele>1797.8</ele>
        <time>2017-06-25T12:14:24Z</time>
      </trkpt>
      <trkpt lat="45.05455" lon="6.28023">
        <ele>1794.44</ele>
        <time>2017-06-25T12:14:31Z</time>
      </trkpt>
      <trkpt lat="45.05466" lon="6.28017">
        <ele>1792.03</ele>
        <time>2017-06-25T12:14:36Z</time>
      </trkpt>
      <trkpt lat="45.0547" lon="6.28015">
        <ele>1791.07</ele>
        <time>2017-06-25T12:14:38Z</time>
      </trkpt>
      <trkpt lat="45.05482" lon="6.28011">
        <ele>1788.19</ele>
        <time>2017-06-25T12:14:43Z</time>
      </trkpt>
      <trkpt lat="45.05492" lon="6.28013">
        <ele>1786.27</ele>
        <time>2017-06-25T12:14:47Z</time>
      </trkpt>
      <trkpt lat="45.05505" lon="6.28021">
        <ele>1784.82</ele>
        <time>2017-06-25T12:14:52Z</time>
      </trkpt>
      <trkpt lat="45.05515" lon="6.28024">
        <ele>1782.42</ele>
        <time>2017-06-25T12:14:57Z</time>
      </trkpt>
      <trkpt lat="45.05514" lon="6.28025">
        <ele>1781.94</ele>
        <time>2017-06-25T12:14:58Z</time>
      </trkpt>
      <trkpt lat="45.05515" lon="6.28032">
        <ele>1779.54</ele>
        <time>2017-06-25T12:15:03Z</time>
      </trkpt>
      <trkpt lat="45.05525" lon="6.28032">
        <ele>1777.13</ele>
        <time>2017-06-25T12:15:08Z</time>
      </trkpt>
      <trkpt lat="45.05526" lon="6.28031">
        <ele>1776.65</ele>
        <time>2017-06-25T12:15:09Z</time>
      </trkpt>
      <trkpt lat="45.0553" lon="6.28024">
        <ele>1774.73</ele>
        <time>2017-06-25T12:15:15Z</time>
      </trkpt>
      <trkpt lat="45.05532" lon="6.28035">
        <ele>1773.77</ele>
        <time>2017-06-25T12:15:22Z</time>
      </trkpt>
      <trkpt lat="45.05531" lon="6.28043">
        <ele>1771.37</ele>
        <time>2017-06-25T12:15:27Z</time>
      </trkpt>
      <trkpt lat="45.05529" lon="6.28045">
        <ele>1771.37</ele>
        <time>2017-06-25T12:15:30Z</time>
      </trkpt>
      <trkpt lat="45.05532" lon="6.28046">
        <ele>1770.89</ele>
        <time>2017-06-25T12:15:33Z</time>
      </trkpt>
      <trkpt lat="45.05539" lon="6.28042">
        <ele>1769.44</ele>
        <time>2017-06-25T12:15:38Z</time>
      </trkpt>
      <trkpt lat="45.05545" lon="6.28035">
        <ele>1768</ele>
        <time>2017-06-25T12:15:43Z</time>
      </trkpt>
      <trkpt lat="45.05546" lon="6.28029">
        <ele>1766.56</ele>
        <time>2017-06-25T12:15:50Z</time>
      </trkpt>
      <trkpt lat="45.05546" lon="6.28031">
        <ele>1767.52</ele>
        <time>2017-06-25T12:15:56Z</time>
      </trkpt>
      <trkpt lat="45.05546" lon="6.28031">
        <ele>1766.56</ele>
        <time>2017-06-25T12:16:12Z</time>
      </trkpt>
      <trkpt lat="45.05546" lon="6.28031">
        <ele>1766.56</ele>
        <time>2017-06-25T12:16:30Z</time>
      </trkpt>
      <trkpt lat="45.05548" lon="6.28026">
        <ele>1766.08</ele>
        <time>2017-06-25T12:16:38Z</time>
      </trkpt>
      <trkpt lat="45.05551" lon="6.28023">
        <ele>1764.64</ele>
        <time>2017-06-25T12:16:41Z</time>
      </trkpt>
      <trkpt lat="45.05565" lon="6.28017">
        <ele>1757.43</ele>
        <time>2017-06-25T12:16:49Z</time>
      </trkpt>
      <trkpt lat="45.05573" lon="6.28008">
        <ele>1753.58</ele>
        <time>2017-06-25T12:16:54Z</time>
      </trkpt>
      <trkpt lat="45.05576" lon="6.28002">
        <ele>1751.66</ele>
        <time>2017-06-25T12:16:57Z</time>
      </trkpt>
      <trkpt lat="45.05578" lon="6.27997">
        <ele>1750.22</ele>
        <time>2017-06-25T12:17:04Z</time>
      </trkpt>
      <trkpt lat="45.05579" lon="6.27997">
        <ele>1750.22</ele>
        <time>2017-06-25T12:17:20Z</time>
      </trkpt>
      <trkpt lat="45.0558" lon="6.27998">
        <ele>1750.7</ele>
        <time>2017-06-25T12:17:36Z</time>
      </trkpt>
      <trkpt lat="45.05581" lon="6.27998">
        <ele>1751.18</ele>
        <time>2017-06-25T12:17:40Z</time>
      </trkpt>
      <trkpt lat="45.05588" lon="6.27993">
        <ele>1749.74</ele>
        <time>2017-06-25T12:17:45Z</time>
      </trkpt>
      <trkpt lat="45.05593" lon="6.2799">
        <ele>1748.29</ele>
        <time>2017-06-25T12:17:47Z</time>
      </trkpt>
      <trkpt lat="45.05613" lon="6.27986">
        <ele>1744.45</ele>
        <time>2017-06-25T12:17:54Z</time>
      </trkpt>
      <trkpt lat="45.05626" lon="6.27989">
        <ele>1742.05</ele>
        <time>2017-06-25T12:17:58Z</time>
      </trkpt>
      <trkpt lat="45.05632" lon="6.27989">
        <ele>1740.12</ele>
        <time>2017-06-25T12:18:03Z</time>
      </trkpt>
      <trkpt lat="45.05633" lon="6.27989">
        <ele>1740.6</ele>
        <time>2017-06-25T12:18:16Z</time>
      </trkpt>
      <trkpt lat="45.05638" lon="6.2799">
        <ele>1742.05</ele>
        <time>2017-06-25T12:18:26Z</time>
      </trkpt>
      <trkpt lat="45.05659" lon="6.27999">
        <ele>1741.08</ele>
        <time>2017-06-25T12:18:32Z</time>
      </trkpt>
      <trkpt lat="45.05667" lon="6.28003">
        <ele>1740.6</ele>
        <time>2017-06-25T12:18:34Z</time>
      </trkpt>
      <trkpt lat="45.05685" lon="6.28007">
        <ele>1737.24</ele>
        <time>2017-06-25T12:18:40Z</time>
      </trkpt>
      <trkpt lat="45.05685" lon="6.28008">
        <ele>1736.76</ele>
        <time>2017-06-25T12:18:46Z</time>
      </trkpt>
      <trkpt lat="45.05685" lon="6.28007">
        <ele>1735.32</ele>
        <time>2017-06-25T12:18:58Z</time>
      </trkpt>
      <trkpt lat="45.05686" lon="6.28006">
        <ele>1735.8</ele>
        <time>2017-06-25T12:19:05Z</time>
      </trkpt>
      <trkpt lat="45.05689" lon="6.28007">
        <ele>1735.8</ele>
        <time>2017-06-25T12:19:10Z</time>
      </trkpt>
      <trkpt lat="45.05688" lon="6.28006">
        <ele>1735.8</ele>
        <time>2017-06-25T12:19:21Z</time>
      </trkpt>
      <trkpt lat="45.05687" lon="6.28006">
        <ele>1735.8</ele>
        <time>2017-06-25T12:19:32Z</time>
      </trkpt>
      <trkpt lat="45.05686" lon="6.28006">
        <ele>1736.28</ele>
        <time>2017-06-25T12:19:43Z</time>
      </trkpt>
      <trkpt lat="45.05687" lon="6.28006">
        <ele>1736.28</ele>
        <time>2017-06-25T12:19:51Z</time>
      </trkpt>
      <trkpt lat="45.05689" lon="6.28006">
        <ele>1736.28</ele>
        <time>2017-06-25T12:19:57Z</time>
      </trkpt>
      <trkpt lat="45.05689" lon="6.28006">
        <ele>1735.8</ele>
        <time>2017-06-25T12:20:02Z</time>
      </trkpt>
      <trkpt lat="45.05694" lon="6.27998">
        <ele>1733.88</ele>
        <time>2017-06-25T12:20:07Z</time>
      </trkpt>
      <trkpt lat="45.05695" lon="6.27997">
        <ele>1733.88</ele>
        <time>2017-06-25T12:20:13Z</time>
      </trkpt>
      <trkpt lat="45.05705" lon="6.28013">
        <ele>1734.36</ele>
        <time>2017-06-25T12:20:19Z</time>
      </trkpt>
      <trkpt lat="45.05708" lon="6.28016">
        <ele>1733.88</ele>
        <time>2017-06-25T12:20:24Z</time>
      </trkpt>
      <trkpt lat="45.05711" lon="6.28027">
        <ele>1734.36</ele>
        <time>2017-06-25T12:20:28Z</time>
      </trkpt>
      <trkpt lat="45.05711" lon="6.28028">
        <ele>1734.36</ele>
        <time>2017-06-25T12:20:31Z</time>
      </trkpt>
      <trkpt lat="45.05709" lon="6.28035">
        <ele>1734.84</ele>
        <time>2017-06-25T12:20:35Z</time>
      </trkpt>
      <trkpt lat="45.05699" lon="6.2805">
        <ele>1735.32</ele>
        <time>2017-06-25T12:20:42Z</time>
      </trkpt>
      <trkpt lat="45.05698" lon="6.28052">
        <ele>1735.32</ele>
        <time>2017-06-25T12:20:43Z</time>
      </trkpt>
      <trkpt lat="45.05692" lon="6.28058">
        <ele>1736.28</ele>
        <time>2017-06-25T12:20:47Z</time>
      </trkpt>
      <trkpt lat="45.05688" lon="6.28059">
        <ele>1736.76</ele>
        <time>2017-06-25T12:20:53Z</time>
      </trkpt>
      <trkpt lat="45.05683" lon="6.28073">
        <ele>1738.2</ele>
        <time>2017-06-25T12:21:00Z</time>
      </trkpt>
      <trkpt lat="45.05682" lon="6.28074">
        <ele>1738.2</ele>
        <time>2017-06-25T12:21:01Z</time>
      </trkpt>
      <trkpt lat="45.05681" lon="6.28077">
        <ele>1738.2</ele>
        <time>2017-06-25T12:21:03Z</time>
      </trkpt>
      <trkpt lat="45.05674" lon="6.28094">
        <ele>1739.64</ele>
        <time>2017-06-25T12:21:11Z</time>
      </trkpt>
      <trkpt lat="45.05666" lon="6.28108">
        <ele>1741.57</ele>
        <time>2017-06-25T12:21:18Z</time>
      </trkpt>
      <trkpt lat="45.05664" lon="6.28113">
        <ele>1742.05</ele>
        <time>2017-06-25T12:21:21Z</time>
      </trkpt>
      <trkpt lat="45.05657" lon="6.2813">
        <ele>1743.97</ele>
        <time>2017-06-25T12:21:29Z</time>
      </trkpt>
      <trkpt lat="45.05651" lon="6.28141">
        <ele>1744.93</ele>
        <time>2017-06-25T12:21:37Z</time>
      </trkpt>
      <trkpt lat="45.05643" lon="6.28152">
        <ele>1746.37</ele>
        <time>2017-06-25T12:21:45Z</time>
      </trkpt>
      <trkpt lat="45.05636" lon="6.28165">
        <ele>1747.33</ele>
        <time>2017-06-25T12:21:54Z</time>
      </trkpt>
      <trkpt lat="45.05632" lon="6.2817">
        <ele>1747.33</ele>
        <time>2017-06-25T12:21:58Z</time>
      </trkpt>
      <trkpt lat="45.05627" lon="6.28182">
        <ele>1746.37</ele>
        <time>2017-06-25T12:22:04Z</time>
      </trkpt>
      <trkpt lat="45.05625" lon="6.28183">
        <ele>1747.33</ele>
        <time>2017-06-25T12:22:09Z</time>
      </trkpt>
      <trkpt lat="45.05622" lon="6.28189">
        <ele>1747.81</ele>
        <time>2017-06-25T12:22:15Z</time>
      </trkpt>
      <trkpt lat="45.05619" lon="6.28192">
        <ele>1747.81</ele>
        <time>2017-06-25T12:22:19Z</time>
      </trkpt>
      <trkpt lat="45.05612" lon="6.28204">
        <ele>1747.33</ele>
        <time>2017-06-25T12:22:25Z</time>
      </trkpt>
      <trkpt lat="45.05609" lon="6.28209">
        <ele>1746.85</ele>
        <time>2017-06-25T12:22:27Z</time>
      </trkpt>
      <trkpt lat="45.05598" lon="6.28226">
        <ele>1746.37</ele>
        <time>2017-06-25T12:22:35Z</time>
      </trkpt>
      <trkpt lat="45.0559" lon="6.2824">
        <ele>1746.85</ele>
        <time>2017-06-25T12:22:41Z</time>
      </trkpt>
      <trkpt lat="45.05577" lon="6.28261">
        <ele>1747.81</ele>
        <time>2017-06-25T12:22:50Z</time>
      </trkpt>
      <trkpt lat="45.05568" lon="6.28276">
        <ele>1748.29</ele>
        <time>2017-06-25T12:22:57Z</time>
      </trkpt>
      <trkpt lat="45.0556" lon="6.28289">
        <ele>1749.74</ele>
        <time>2017-06-25T12:23:03Z</time>
      </trkpt>
      <trkpt lat="45.05548" lon="6.28305">
        <ele>1752.14</ele>
        <time>2017-06-25T12:23:12Z</time>
      </trkpt>
      <trkpt lat="45.0554" lon="6.2831">
        <ele>1754.54</ele>
        <time>2017-06-25T12:23:18Z</time>
      </trkpt>
      <trkpt lat="45.05539" lon="6.28311">
        <ele>1754.54</ele>
        <time>2017-06-25T12:23:23Z</time>
      </trkpt>
      <trkpt lat="45.05533" lon="6.28324">
        <ele>1756.47</ele>
        <time>2017-06-25T12:23:31Z</time>
      </trkpt>
      <trkpt lat="45.05525" lon="6.28336">
        <ele>1756.95</ele>
        <time>2017-06-25T12:23:40Z</time>
      </trkpt>
      <trkpt lat="45.0552" lon="6.28345">
        <ele>1758.39</ele>
        <time>2017-06-25T12:23:47Z</time>
      </trkpt>
      <trkpt lat="45.05513" lon="6.28354">
        <ele>1760.79</ele>
        <time>2017-06-25T12:23:55Z</time>
      </trkpt>
      <trkpt lat="45.05512" lon="6.28355">
        <ele>1760.79</ele>
        <time>2017-06-25T12:23:56Z</time>
      </trkpt>
      <trkpt lat="45.05503" lon="6.28364">
        <ele>1761.75</ele>
        <time>2017-06-25T12:24:03Z</time>
      </trkpt>
      <trkpt lat="45.05489" lon="6.28379">
        <ele>1763.68</ele>
        <time>2017-06-25T12:24:12Z</time>
      </trkpt>
      <trkpt lat="45.05487" lon="6.28383">
        <ele>1763.68</ele>
        <time>2017-06-25T12:24:14Z</time>
      </trkpt>
      <trkpt lat="45.05485" lon="6.28386">
        <ele>1765.12</ele>
        <time>2017-06-25T12:24:21Z</time>
      </trkpt>
      <trkpt lat="45.05485" lon="6.28386">
        <ele>1765.6</ele>
        <time>2017-06-25T12:24:36Z</time>
      </trkpt>
      <trkpt lat="45.05485" lon="6.28386">
        <ele>1766.08</ele>
        <time>2017-06-25T12:24:50Z</time>
      </trkpt>
      <trkpt lat="45.05485" lon="6.28386">
        <ele>1767.52</ele>
        <time>2017-06-25T12:25:06Z</time>
      </trkpt>
      <trkpt lat="45.05484" lon="6.28388">
        <ele>1768</ele>
        <time>2017-06-25T12:25:09Z</time>
      </trkpt>
      <trkpt lat="45.05479" lon="6.28398">
        <ele>1767.52</ele>
        <time>2017-06-25T12:25:14Z</time>
      </trkpt>
      <trkpt lat="45.05473" lon="6.28405">
        <ele>1767.52</ele>
        <time>2017-06-25T12:25:18Z</time>
      </trkpt>
      <trkpt lat="45.05464" lon="6.28407">
        <ele>1768.48</ele>
        <time>2017-06-25T12:25:25Z</time>
      </trkpt>
      <trkpt lat="45.05463" lon="6.28408">
        <ele>1768.96</ele>
        <time>2017-06-25T12:25:26Z</time>
      </trkpt>
      <trkpt lat="45.05461" lon="6.28411">
        <ele>1769.44</ele>
        <time>2017-06-25T12:25:28Z</time>
      </trkpt>
      <trkpt lat="45.05455" lon="6.28418">
        <ele>1770.89</ele>
        <time>2017-06-25T12:25:33Z</time>
      </trkpt>
      <trkpt lat="45.05451" lon="6.2842">
        <ele>1772.33</ele>
        <time>2017-06-25T12:25:39Z</time>
      </trkpt>
      <trkpt lat="45.05447" lon="6.28418">
        <ele>1773.29</ele>
        <time>2017-06-25T12:25:42Z</time>
      </trkpt>
      <trkpt lat="45.05441" lon="6.28422">
        <ele>1775.69</ele>
        <time>2017-06-25T12:25:47Z</time>
      </trkpt>
      <trkpt lat="45.05434" lon="6.28432">
        <ele>1777.61</ele>
        <time>2017-06-25T12:25:53Z</time>
      </trkpt>
      <trkpt lat="45.05434" lon="6.28434">
        <ele>1778.1</ele>
        <time>2017-06-25T12:25:57Z</time>
      </trkpt>
      <trkpt lat="45.0543" lon="6.2844">
        <ele>1777.61</ele>
        <time>2017-06-25T12:26:05Z</time>
      </trkpt>
      <trkpt lat="45.05426" lon="6.28447">
        <ele>1778.58</ele>
        <time>2017-06-25T12:26:11Z</time>
      </trkpt>
      <trkpt lat="45.05421" lon="6.28457">
        <ele>1779.54</ele>
        <time>2017-06-25T12:26:18Z</time>
      </trkpt>
      <trkpt lat="45.05419" lon="6.28467">
        <ele>1780.5</ele>
        <time>2017-06-25T12:26:25Z</time>
      </trkpt>
      <trkpt lat="45.05419" lon="6.28471">
        <ele>1780.98</ele>
        <time>2017-06-25T12:26:27Z</time>
      </trkpt>
      <trkpt lat="45.05414" lon="6.28484">
        <ele>1782.9</ele>
        <time>2017-06-25T12:26:34Z</time>
      </trkpt>
      <trkpt lat="45.05413" lon="6.28497">
        <ele>1784.82</ele>
        <time>2017-06-25T12:26:41Z</time>
      </trkpt>
      <trkpt lat="45.05411" lon="6.2851">
        <ele>1788.19</ele>
        <time>2017-06-25T12:26:49Z</time>
      </trkpt>
      <trkpt lat="45.05411" lon="6.28514">
        <ele>1789.15</ele>
        <time>2017-06-25T12:26:58Z</time>
      </trkpt>
      <trkpt lat="45.05411" lon="6.28514">
        <ele>1789.63</ele>
        <time>2017-06-25T12:27:14Z</time>
      </trkpt>
      <trkpt lat="45.05412" lon="6.28517">
        <ele>1790.11</ele>
        <time>2017-06-25T12:27:16Z</time>
      </trkpt>
      <trkpt lat="45.05411" lon="6.28523">
        <ele>1791.07</ele>
        <time>2017-06-25T12:27:18Z</time>
      </trkpt>
      <trkpt lat="45.05409" lon="6.2855">
        <ele>1792.52</ele>
        <time>2017-06-25T12:27:26Z</time>
      </trkpt>
      <trkpt lat="45.05408" lon="6.28554">
        <ele>1792.03</ele>
        <time>2017-06-25T12:27:27Z</time>
      </trkpt>
      <trkpt lat="45.05403" lon="6.28579">
        <ele>1793.48</ele>
        <time>2017-06-25T12:27:34Z</time>
      </trkpt>
      <trkpt lat="45.054" lon="6.28588">
        <ele>1793.48</ele>
        <time>2017-06-25T12:27:39Z</time>
      </trkpt>
      <trkpt lat="45.054" lon="6.28598">
        <ele>1793</ele>
        <time>2017-06-25T12:27:44Z</time>
      </trkpt>
      <trkpt lat="45.054" lon="6.28606">
        <ele>1792.52</ele>
        <time>2017-06-25T12:27:46Z</time>
      </trkpt>
      <trkpt lat="45.05398" lon="6.28619">
        <ele>1791.55</ele>
        <time>2017-06-25T12:27:50Z</time>
      </trkpt>
      <trkpt lat="45.05392" lon="6.28636">
        <ele>1791.55</ele>
        <time>2017-06-25T12:27:57Z</time>
      </trkpt>
      <trkpt lat="45.05387" lon="6.28648">
        <ele>1791.07</ele>
        <time>2017-06-25T12:28:04Z</time>
      </trkpt>
      <trkpt lat="45.05379" lon="6.28662">
        <ele>1793.48</ele>
        <time>2017-06-25T12:28:12Z</time>
      </trkpt>
      <trkpt lat="45.05376" lon="6.28667">
        <ele>1793.96</ele>
        <time>2017-06-25T12:28:15Z</time>
      </trkpt>
      <trkpt lat="45.05363" lon="6.28683">
        <ele>1794.44</ele>
        <time>2017-06-25T12:28:26Z</time>
      </trkpt>
      <trkpt lat="45.05352" lon="6.28694">
        <ele>1795.88</ele>
        <time>2017-06-25T12:28:35Z</time>
      </trkpt>
      <trkpt lat="45.05337" lon="6.28701">
        <ele>1799.24</ele>
        <time>2017-06-25T12:28:44Z</time>
      </trkpt>
    </trkseg>
  </trk>
</gpx>